GFSSW_sfc_thetae_021.txt.gz
Theta_e
315 316 316 317 317 316 316 316 316 316 316 316 317 317 317 317 317 306 300 309 313 331 335 332 327 323 320 315 316 312 301 298 301 302 304 308 306 311 312 309 309 310 311 313 314
314 314 314 315 316 317 316 316 315 315 315 315 315 316 316 317 310 304 314 325 329 336 319 320 317 318 311 312 313 308 300 302 308 308 306 309 307 309 308 309 307 310 314 315 314
313 313 313 313 314 315 316 316 316 315 315 315 315 315 316 315 301 299 327 328 329 333 315 317 319 314 308 310 309 307 304 309 309 312 311 309 310 314 307 306 308 308 310 312 311
311 311 312 313 313 313 313 314 316 316 316 315 315 315 317 310 289 302 335 339 340 325 314 309 309 308 306 305 310 304 309 312 312 314 313 310 313 311 312 311 315 312 313 312 310
312 312 310 310 311 312 313 313 313 314 315 315 315 315 309 301 296 305 327 323 328 319 311 307 303 303 299 303 307 305 308 310 312 313 313 314 310 311 312 315 316 311 313 312 311
313 313 312 312 310 310 312 313 313 313 313 314 314 315 304 290 302 307 306 306 306 314 312 307 305 306 299 300 299 304 305 307 309 311 312 309 308 308 310 313 311 310 311 311 311
313 313 313 313 312 311 310 311 312 313 312 313 313 310 302 298 307 305 303 301 303 305 308 312 310 305 301 298 302 301 298 301 302 305 305 307 302 304 310 310 309 307 309 311 311
312 312 312 312 312 312 312 312 311 310 311 313 313 307 298 309 310 308 307 303 302 303 306 310 312 304 300 300 301 297 296 292 301 304 306 303 297 306 310 307 307 308 307 309 310
312 312 311 311 311 312 313 312 311 310 310 311 305 303 294 310 305 308 305 300 302 302 303 309 307 301 299 296 291 292 290 292 296 303 302 301 298 305 308 307 306 308 308 306 309
311 311 311 311 311 312 312 311 310 308 307 307 306 297 300 298 302 304 304 303 301 301 300 300 301 296 293 291 287 289 290 293 294 300 300 298 298 304 307 306 307 307 307 307 307
310 311 310 311 311 311 309 299 293 296 300 296 296 295 299 304 307 304 304 300 301 299 291 296 293 293 296 298 299 296 294 294 297 301 299 298 299 302 305 304 305 306 305 306 307
310 310 310 310 310 311 304 293 297 298 291 299 298 300 304 305 298 303 305 297 296 290 295 293 290 297 303 301 299 296 293 293 298 301 298 298 298 302 304 304 305 306 306 306 309
310 310 309 310 310 302 295 297 303 302 290 294 298 297 299 302 297 299 303 301 295 291 292 291 294 299 300 298 296 295 293 293 294 299 300 298 297 299 304 305 306 307 306 307 309
310 310 310 310 301 296 296 299 301 302 284 288 295 297 299 300 295 303 305 303 296 291 292 291 296 297 296 296 295 290 298 297 296 294 288 298 287 295 299 302 303 304 303 305 308
309 309 309 309 301 297 299 301 305 299 273 290 293 304 301 296 299 299 304 301 296 294 294 290 293 293 293 295 297 294 300 298 298 294 291 295 289 293 297 298 301 303 303 305 308
309 309 309 303 301 301 303 301 298 283 275 287 293 291 292 296 297 301 300 302 301 296 294 293 298 297 296 299 299 299 296 295 294 292 287 293 291 290 295 299 301 303 305 306 308
309 308 306 305 295 299 301 294 282 277 289 286 286 290 289 289 294 295 295 293 291 288 289 292 293 296 298 293 296 294 288 282 280 282 284 293 290 294 298 302 303 303 305 306 309
308 307 305 303 300 301 295 287 276 284 285 291 289 288 286 288 288 290 292 291 295 293 290 287 285 294 298 294 291 292 291 284 279 281 286 294 289 294 302 305 305 305 306 308 309
306 301 298 298 302 300 293 280 278 284 288 286 288 284 285 287 287 288 287 291 294 295 287 287 287 297 298 298 296 290 288 294 287 288 285 289 294 300 302 303 304 305 307 306 309
300 296 293 301 301 300 288 281 283 289 289 289 282 286 281 284 284 285 286 293 293 296 295 291 285 295 297 299 297 292 294 286 286 281 281 287 289 292 297 300 304 304 304 306 308
294 289 294 304 304 293 282 281 286 290 290 287 285 283 284 284 286 284 286 292 294 293 296 292 288 290 294 292 292 289 289 289 289 288 283 282 287 297 298 301 303 304 305 307 309
290 284 297 304 288 288 281 286 291 288 292 289 289 287 286 287 285 285 285 290 296 294 289 292 288 286 289 294 299 295 291 291 288 285 288 287 289 300 300 301 306 305 307 307 309
290 290 298 300 283 284 287 287 288 288 288 288 287 289 290 287 283 287 289 295 295 292 291 292 288 284 285 290 293 293 293 294 290 290 287 288 291 300 302 301 306 304 306 308 308
290 283 289 292 290 286 285 285 285 291 289 289 288 289 287 285 288 286 287 291 294 293 299 294 288 288 285 288 292 289 293 293 292 288 289 291 291 297 301 303 305 305 306 308 309
287 284 290 283 285 286 285 286 284 284 289 288 285 286 286 283 285 285 289 291 293 295 294 288 283 289 293 294 293 294 293 294 293 293 291 294 294 298 302 303 307 308 306 307 308
287 289 289 287 288 285 284 284 285 287 287 286 284 287 288 285 287 285 289 289 288 291 291 289 282 288 290 294 294 291 294 295 295 296 295 295 294 301 304 307 307 308 308 308 309
295 297 291 285 285 280 280 284 286 288 290 291 290 287 286 289 293 294 294 294 293 290 289 288 285 283 283 293 291 287 292 293 295 298 298 294 297 300 301 307 308 307 309 309 310

GFSSW_sfc_thetae_024.txt.gz
Theta_e
314 314 314 314 314 315 316 316 316 316 316 316 316 316 316 317 316 305 299 308 313 330 335 330 323 322 317 313 315 311 300 297 300 301 303 305 304 308 310 309 308 310 309 311 313
311 311 312 313 314 313 313 314 315 316 316 316 316 316 316 317 308 303 312 325 330 335 317 320 317 318 310 310 311 307 299 301 306 305 304 305 306 309 308 309 310 309 311 314 312
313 313 312 311 311 312 313 313 313 314 316 316 316 316 316 315 298 297 324 324 327 332 312 320 319 314 307 307 309 307 304 308 307 309 308 308 309 311 308 306 311 309 314 311 310
313 313 313 313 312 310 310 312 313 313 314 315 315 315 316 308 286 303 335 337 339 324 309 311 314 307 304 303 309 302 308 311 309 310 308 309 311 310 312 311 315 315 315 311 309
312 313 313 313 313 312 312 311 311 312 313 313 314 315 309 298 295 303 322 315 320 318 307 307 306 308 302 304 307 303 307 308 310 309 310 312 310 310 311 316 316 314 311 310 309
312 312 312 312 312 313 313 313 312 310 310 312 312 313 304 292 305 303 308 303 303 310 310 305 303 306 300 299 298 303 305 305 305 307 308 308 307 307 310 314 311 310 309 309 309
311 311 311 311 311 311 313 311 311 312 312 310 312 308 300 297 309 310 309 303 301 302 302 311 308 304 300 296 299 299 294 298 300 301 301 305 299 301 308 309 307 308 309 308 310
311 312 311 311 311 310 311 312 312 312 312 312 311 305 294 307 309 307 308 306 307 305 301 305 311 304 298 299 298 295 294 290 298 302 302 301 294 303 307 306 306 307 307 307 309
311 311 311 310 310 311 311 311 311 312 312 311 303 300 291 308 303 308 308 303 304 304 300 305 307 301 298 295 291 292 289 290 293 300 300 299 295 303 305 305 305 306 307 308 307
310 311 311 310 310 310 311 310 310 307 306 306 304 295 297 294 304 304 307 305 300 298 297 297 299 295 292 291 285 287 288 291 291 297 296 295 295 301 304 303 303 304 306 306 307
310 310 310 310 309 310 307 297 295 294 297 292 293 294 296 303 307 303 303 302 300 295 289 293 291 291 293 295 294 294 291 291 295 300 297 295 296 300 303 302 301 303 305 306 305
310 309 310 310 309 310 304 291 296 296 289 297 297 298 301 303 295 300 302 295 294 290 293 291 288 294 297 297 296 294 292 292 297 300 297 296 296 299 302 302 302 304 305 305 306
309 309 309 309 309 299 294 296 300 299 288 293 297 296 296 299 295 295 302 297 293 290 290 288 292 297 298 296 294 294 293 294 294 296 296 294 293 296 301 303 303 305 306 305 306
309 309 309 309 299 296 295 299 301 303 283 287 292 295 297 297 293 300 303 298 294 289 291 289 295 294 295 295 296 291 298 298 296 292 286 294 285 294 298 300 302 304 302 303 306
309 309 309 308 299 296 298 301 301 296 272 288 293 302 299 293 295 296 302 299 293 292 291 288 291 291 292 295 299 294 300 298 296 290 288 291 287 292 296 297 300 302 303 302 306
309 309 309 304 301 299 301 300 295 283 274 286 292 290 290 295 295 298 295 298 300 293 292 291 297 295 294 298 300 299 296 293 291 289 283 289 289 289 293 298 300 302 303 306 307
308 308 306 304 295 298 298 293 280 274 288 284 286 289 289 288 292 294 293 289 289 286 286 289 290 293 296 293 295 293 288 280 279 280 281 291 288 291 297 300 302 302 302 305 307
307 306 303 303 298 300 294 285 275 282 283 290 288 288 285 288 287 288 289 287 291 290 288 285 283 292 295 292 291 292 289 282 277 279 284 292 287 292 300 304 304 304 303 306 307
305 296 294 297 300 302 293 278 277 283 287 286 287 284 284 287 287 287 285 289 291 292 285 286 286 295 296 296 296 289 288 291 285 287 284 287 291 297 300 301 302 302 305 305 306
297 296 293 303 302 299 285 280 282 288 288 287 281 285 280 283 283 284 285 291 290 293 292 289 284 293 295 296 296 292 294 285 284 279 279 285 288 291 296 299 303 303 303 304 306
290 288 293 305 302 292 278 281 285 290 290 285 284 282 283 283 285 283 284 290 293 290 293 290 287 288 292 291 289 287 288 286 287 285 281 281 286 295 298 300 302 303 303 305 307
292 280 295 303 288 287 281 285 290 287 290 288 288 285 283 286 285 283 283 287 294 293 286 291 286 284 288 293 297 294 289 288 285 283 285 285 286 298 299 300 302 303 305 305 308
288 286 296 298 282 284 287 287 288 287 287 287 286 288 289 286 282 287 287 292 293 291 288 291 285 281 283 289 291 291 291 290 288 287 285 283 286 299 300 302 301 303 304 306 308
285 281 286 289 289 287 283 284 284 290 288 288 287 288 285 285 288 285 287 291 293 293 297 294 285 285 282 285 289 288 291 292 287 283 286 290 290 297 300 300 302 303 304 306 308
285 283 290 280 282 286 284 284 283 283 289 289 284 285 284 282 285 285 289 290 292 295 294 290 281 286 288 291 292 291 291 291 290 291 287 290 292 296 299 301 303 304 305 306 307
285 285 289 286 287 283 283 282 283 286 286 286 285 287 286 283 286 284 288 289 288 291 291 291 281 285 283 291 292 291 291 292 292 292 291 292 292 298 301 305 305 305 306 307 308
290 292 292 286 285 279 278 284 284 286 288 290 288 286 285 287 291 291 292 292 292 290 288 287 283 281 279 286 288 286 291 291 292 295 294 290 296 298 301 304 305 305 307 308 309

GFSSW_sfc_thetae_027.txt.gz
Theta_e
313 312 312 312 312 313 314 314 314 315 316 317 317 317 317 317 317 308 299 309 313 328 332 326 322 322 323 318 320 317 308 303 304 305 308 314 313 315 317 317 317 318 319 321 321
314 313 313 313 312 311 311 312 313 314 314 316 317 316 316 317 310 304 313 323 329 333 320 317 313 318 315 316 318 314 307 306 311 311 310 312 313 314 314 315 316 318 321 320 320
313 314 314 314 314 313 313 312 311 312 313 313 314 315 315 315 300 299 328 326 326 329 315 316 316 316 312 315 315 314 308 312 312 313 313 313 313 316 313 311 315 315 319 323 323
312 313 313 312 313 313 313 313 313 312 311 312 313 314 315 309 293 306 324 322 335 326 311 308 313 312 309 309 315 309 313 314 314 315 314 312 315 313 315 315 319 320 322 322 321
312 312 312 312 312 312 312 312 313 312 312 311 312 312 309 300 298 306 317 314 314 320 310 306 309 308 304 308 311 309 311 314 316 316 315 315 312 312 312 317 319 320 320 319 319
311 311 311 311 311 311 311 312 312 311 311 311 311 312 303 291 308 310 311 309 305 315 310 307 306 311 307 307 307 309 311 311 313 313 313 310 309 310 311 316 315 315 315 316 318
310 310 311 311 311 310 310 311 312 311 312 312 312 306 299 296 309 310 309 307 306 304 302 309 311 307 307 303 308 306 303 306 306 308 306 306 302 303 309 312 311 312 314 316 319
311 311 311 311 311 310 310 311 311 311 312 313 313 305 295 306 310 307 309 308 309 309 306 305 310 308 305 306 303 301 301 297 304 304 305 304 298 306 311 310 310 312 314 315 318
311 311 310 310 311 310 310 311 311 311 311 311 306 300 293 307 302 308 309 304 307 308 306 305 305 304 304 300 298 299 295 296 298 303 303 304 300 306 310 309 309 311 313 314 316
311 311 310 310 310 310 310 309 309 308 307 307 304 295 297 296 303 306 309 307 303 303 300 300 301 298 297 297 291 293 293 296 296 301 301 300 300 305 308 309 309 311 313 314 315
310 310 310 310 309 309 307 302 300 297 299 295 295 295 297 301 305 302 306 305 303 299 294 297 294 293 296 297 298 299 297 297 299 302 300 301 302 305 308 309 309 310 312 314 316
310 310 310 310 309 308 304 296 296 297 290 298 297 298 300 302 295 299 305 298 296 292 296 294 291 297 300 299 296 296 295 295 299 301 301 302 301 305 307 307 309 310 312 314 317
310 310 310 310 310 303 299 298 304 304 291 294 297 296 298 300 295 296 301 298 294 292 293 292 295 298 297 297 295 295 294 295 296 300 302 301 299 302 306 308 309 311 314 315 316
310 310 310 309 301 301 298 303 305 304 286 288 292 296 299 299 293 301 301 299 295 292 293 294 298 296 294 295 297 293 299 298 297 295 293 300 292 300 303 304 307 310 313 315 315
309 309 309 308 302 297 300 305 305 299 273 289 294 304 300 295 296 298 302 298 293 293 294 291 293 293 293 295 298 296 300 298 297 295 296 296 293 297 303 301 305 308 312 315 314
309 308 308 303 303 302 305 304 300 284 273 286 292 291 292 294 294 297 297 299 300 296 295 295 298 297 296 298 300 301 299 299 299 297 290 296 294 294 298 301 304 308 312 314 315
308 307 306 304 297 303 304 299 282 276 287 285 287 290 290 289 290 292 292 290 290 288 289 293 293 297 298 295 299 300 296 289 287 288 289 296 293 295 302 305 307 309 313 315 316
307 305 303 303 304 304 299 289 275 281 283 290 288 288 285 288 287 288 289 290 292 293 292 288 286 294 297 296 295 297 297 291 284 285 289 295 289 294 305 308 309 312 313 315 316
304 302 301 302 303 303 293 279 279 283 287 285 287 284 284 287 286 286 287 290 292 292 287 290 290 298 297 298 298 296 293 299 293 293 291 293 296 303 307 308 309 310 311 314 316
298 298 298 305 305 300 288 281 283 289 289 288 281 285 281 283 284 284 284 289 290 294 296 293 289 296 297 299 300 298 300 290 293 285 284 290 293 295 303 306 309 310 312 314 316
298 292 298 304 303 292 283 283 286 291 290 286 284 283 283 282 285 284 284 288 291 292 295 294 293 293 296 293 293 294 294 295 296 293 287 286 292 307 307 309 311 313 314 314 315
295 288 299 304 289 287 285 286 290 289 291 289 289 287 285 285 285 285 284 287 293 293 289 294 293 290 292 298 299 297 296 296 290 289 292 293 292 306 309 309 311 313 313 315 317
291 290 300 300 283 284 288 287 289 288 289 288 287 289 290 286 283 287 288 293 294 291 288 293 291 288 290 294 298 295 296 297 297 297 291 289 293 305 307 308 310 313 313 314 316
292 285 293 294 292 286 284 285 286 291 290 290 289 290 288 286 289 286 287 291 294 293 295 295 290 289 288 291 295 292 294 296 296 291 291 292 295 302 305 308 311 312 314 315 316
291 288 291 283 286 286 286 285 285 284 290 290 287 287 287 283 285 285 288 291 293 296 294 292 285 288 290 291 293 294 294 294 293 295 291 294 295 301 304 308 311 313 314 315 315
291 290 292 288 288 286 285 285 284 286 287 285 286 288 288 285 286 284 288 289 289 292 292 293 286 289 289 292 293 292 295 295 295 295 296 297 298 304 308 310 311 312 313 314 315
295 297 292 288 286 285 285 285 286 288 289 290 289 287 287 289 292 293 293 292 292 291 290 290 289 287 287 290 292 289 295 296 296 297 297 294 299 304 305 309 312 314 314 315 317

GFSSW_sfc_thetae_030.txt.gz
Theta_e
315 315 315 315 314 314 313 312 313 314 314 315 316 317 317 317 317 314 306 312 317 331 333 326 323 322 325 322 325 324 312 308 309 310 312 318 316 320 322 319 321 322 322 325 328
313 314 314 314 315 315 314 314 314 313 313 313 314 315 316 317 313 309 319 324 329 331 312 319 316 317 318 320 321 318 311 310 315 316 315 317 316 317 317 318 318 320 324 326 328
313 313 313 313 312 312 313 314 314 314 313 312 313 314 315 315 307 307 325 328 326 327 311 315 316 314 312 316 318 318 312 316 316 318 318 316 317 319 316 315 319 318 321 324 325
312 312 312 312 312 311 312 312 312 313 313 313 312 313 314 312 296 317 319 322 328 330 313 311 314 310 310 308 316 313 317 317 318 319 318 316 319 317 318 318 322 322 322 322 323
310 311 311 311 312 311 311 311 311 312 312 312 312 311 311 304 303 312 319 321 313 321 313 310 309 312 310 312 312 312 315 317 318 318 318 319 316 317 317 320 322 320 320 320 321
310 311 311 311 312 311 310 311 311 312 312 312 312 312 306 296 310 313 313 312 311 311 316 313 309 313 314 313 312 314 313 313 316 317 318 315 315 316 317 318 318 317 318 319 318
310 310 311 311 311 311 312 312 312 312 312 313 313 310 304 300 310 312 311 310 312 309 310 315 313 311 314 310 315 313 309 311 312 314 313 316 310 310 315 316 315 316 317 318 319
311 311 311 311 311 311 311 311 311 311 312 313 313 309 299 308 311 309 311 310 311 312 309 311 314 311 311 313 309 307 309 303 310 311 312 311 303 312 316 315 314 315 317 317 318
310 311 310 310 310 310 311 311 311 312 312 312 309 306 297 309 303 308 309 306 309 311 311 309 308 307 308 303 303 305 300 303 306 312 309 308 305 312 315 314 314 316 317 317 317
311 311 311 310 310 310 310 311 310 310 310 311 309 299 301 297 304 307 310 310 306 307 306 304 303 301 303 302 297 300 301 304 305 310 307 306 305 311 313 313 314 316 316 316 317
311 311 311 311 311 310 309 307 303 301 303 299 298 299 299 303 305 303 307 307 307 304 299 302 297 296 300 303 305 305 304 304 306 310 307 306 307 310 314 314 314 316 316 317 318
310 310 310 311 310 310 307 300 300 302 294 300 300 299 301 302 296 300 305 301 301 296 300 299 295 301 303 304 302 302 301 303 307 309 308 305 306 311 313 314 315 315 316 317 319
310 309 309 310 309 308 304 302 307 306 294 296 299 298 300 302 296 297 301 299 298 297 297 296 298 302 301 301 300 300 299 301 302 306 307 305 302 306 312 314 316 316 316 317 317
310 310 309 309 305 306 302 306 308 308 288 290 295 299 302 302 297 305 305 299 298 295 298 297 302 300 299 298 301 297 303 301 301 299 295 304 296 305 310 311 313 314 316 316 320
310 310 309 307 304 301 303 308 308 304 277 292 297 306 302 298 299 300 306 301 293 296 298 295 297 299 298 299 302 299 304 302 301 299 299 300 297 303 309 307 310 314 315 316 322
310 309 308 306 304 305 308 308 304 285 277 288 295 293 294 296 296 300 300 304 300 295 299 298 303 301 301 302 302 303 302 302 302 300 293 299 298 300 305 308 311 315 313 316 322
309 307 307 305 299 306 307 301 285 279 289 286 289 292 292 290 293 294 294 295 292 287 289 296 297 301 302 299 302 301 299 293 291 292 291 301 299 301 309 311 312 312 313 320 323
307 304 305 308 309 306 303 291 278 283 285 292 290 290 287 290 290 291 291 291 297 294 291 289 289 297 301 300 298 299 300 294 288 291 295 302 296 302 309 313 314 313 314 321 323
305 309 307 308 310 307 297 283 283 285 289 288 289 285 286 288 288 288 288 286 293 296 290 290 292 301 301 302 303 299 297 303 299 300 295 299 303 306 308 309 310 311 313 319 323
304 304 303 308 309 305 291 284 286 291 291 290 284 287 284 286 286 287 286 289 290 296 299 295 291 300 299 302 303 302 304 296 299 291 290 296 297 297 304 307 310 314 315 319 323
304 298 303 309 306 295 287 287 289 293 293 289 287 285 286 286 287 286 285 289 291 294 297 297 295 297 299 297 297 299 299 301 301 299 293 292 295 305 306 310 313 316 318 321 322
301 294 304 308 295 290 287 289 292 292 294 292 292 289 288 288 287 286 285 288 294 294 291 297 296 292 296 301 303 302 300 301 295 294 297 297 296 309 312 314 315 316 321 322 323
297 296 307 304 288 290 290 289 291 291 291 291 290 291 292 289 285 288 289 294 294 293 291 294 294 291 293 298 301 299 301 302 303 303 297 293 294 309 312 314 315 318 319 321 322
298 291 298 300 295 287 287 288 288 293 291 292 291 293 291 289 291 288 289 293 295 294 295 296 294 294 291 294 298 296 298 301 301 296 297 296 298 306 310 312 315 318 320 321 322
299 293 294 290 289 287 289 289 288 287 291 293 290 290 288 285 288 287 291 291 294 296 295 296 291 295 296 296 296 298 297 298 298 299 296 298 298 303 311 311 315 319 320 321 321
295 292 295 292 291 288 289 289 287 288 288 288 289 290 290 287 288 288 290 290 288 292 293 296 290 295 292 296 296 295 298 299 299 300 299 300 299 307 309 310 312 317 319 320 321
299 302 293 291 289 287 288 289 288 289 292 292 291 289 290 291 295 296 296 296 295 293 293 292 292 292 289 295 294 292 297 299 300 301 301 297 303 307 307 309 312 316 319 321 322

GFSSW_sfc_thetae_033.txt.gz
Theta_e
314 314 314 314 314 314 314 315 315 315 314 314 314 315 315 316 316 315 312 317 319 329 330 325 325 325 327 322 322 323 312 309 310 311 313 319 317 322 323 320 321 323 323 326 330
313 313 313 313 313 313 313 313 314 315 315 315 314 314 314 315 313 310 321 327 332 334 314 320 318 319 318 321 319 317 313 312 317 317 315 319 318 319 319 318 319 321 325 326 328
311 311 312 312 313 313 312 312 313 313 313 313 314 314 313 314 308 308 325 328 330 326 313 314 320 319 313 316 320 318 313 318 318 319 320 318 319 321 318 316 320 320 323 325 325
311 311 312 312 312 312 312 312 312 312 313 313 313 314 314 312 298 318 320 323 325 318 312 309 309 311 312 311 316 313 317 319 319 321 319 317 319 319 319 320 324 324 325 324 323
311 312 311 312 312 312 312 312 311 312 312 313 313 313 311 305 305 318 322 323 317 318 318 313 308 310 311 312 314 312 314 316 319 320 319 320 318 318 319 323 325 324 323 323 322
311 311 312 312 312 312 313 313 313 312 312 313 313 313 308 298 313 314 314 314 315 315 317 317 312 314 314 314 313 316 316 315 317 317 318 316 317 319 320 324 323 322 322 321 321
311 311 311 312 311 311 312 312 312 312 312 313 313 312 305 302 311 313 313 312 313 313 310 316 319 314 315 312 317 316 312 315 315 316 315 317 312 314 320 322 320 320 320 321 321
311 311 311 311 311 312 312 312 312 312 312 313 314 311 301 310 312 309 311 310 312 313 313 314 317 315 312 315 313 310 312 306 313 315 315 314 307 315 320 319 318 318 319 319 322
312 312 311 311 311 312 312 312 312 313 313 313 311 308 300 312 306 309 310 306 309 311 313 313 311 309 310 306 305 308 303 305 308 315 314 312 309 314 317 317 317 318 318 319 321
311 311 311 311 311 312 311 311 313 311 312 313 311 302 305 300 304 307 311 310 307 307 307 307 305 302 303 303 296 300 302 305 305 311 312 310 310 314 316 315 315 318 318 318 320
310 311 311 311 311 310 310 310 305 304 308 302 301 301 302 305 307 304 307 307 308 305 299 305 299 296 300 303 305 305 304 304 308 312 309 309 310 314 315 314 315 316 317 319 321
310 310 310 311 310 310 310 303 303 303 295 302 301 301 303 304 297 301 305 300 301 298 301 301 296 302 303 304 303 303 302 303 308 312 310 310 308 312 314 314 315 316 318 320 321
310 310 310 311 310 309 306 305 309 308 296 297 301 300 301 303 298 298 302 300 297 298 299 296 300 304 302 301 301 302 301 302 304 309 310 309 306 309 313 315 315 316 318 320 321
310 310 310 309 306 308 304 308 309 309 289 292 296 300 302 303 298 305 305 299 297 294 299 298 302 302 301 300 302 298 305 304 304 303 299 308 298 305 309 310 313 316 318 320 320
310 310 309 307 306 304 306 309 309 304 278 294 296 307 304 299 300 301 308 302 294 295 296 295 299 298 299 300 303 301 306 305 304 302 301 301 298 303 307 307 311 315 318 320 321
310 309 308 309 308 307 309 310 305 288 278 289 296 295 296 298 298 301 300 305 303 296 296 297 303 302 301 304 305 305 303 304 305 302 295 300 299 300 304 308 311 316 319 320 320
309 308 307 309 302 310 309 301 286 281 291 288 290 293 293 292 294 295 295 295 294 289 289 293 296 302 304 300 304 304 300 293 293 294 294 302 299 303 308 311 313 315 317 318 319
308 306 308 309 309 309 303 293 281 286 287 292 291 291 288 291 292 293 292 291 296 294 292 288 286 297 303 301 299 301 300 294 288 291 294 302 297 302 313 315 317 318 318 317 324
305 310 306 310 311 309 296 285 285 288 290 289 290 286 288 290 291 291 291 290 294 296 291 290 289 300 302 303 303 300 298 304 298 301 296 301 306 311 313 313 314 315 317 317 324
308 306 306 311 312 307 292 286 289 293 293 292 285 288 284 287 287 289 289 294 291 293 295 296 290 296 301 303 303 302 305 296 299 291 291 299 301 303 306 308 312 312 313 317 324
306 301 307 314 311 301 289 289 291 295 295 291 288 288 289 287 289 287 288 292 293 294 297 297 295 296 298 298 297 299 299 300 302 300 294 293 299 311 309 311 312 313 315 317 324
305 296 307 312 297 298 292 292 294 293 296 293 293 291 290 290 289 289 288 291 295 295 293 298 294 292 295 303 304 302 301 302 297 296 300 300 300 310 311 313 316 317 318 321 326
300 301 309 307 290 291 294 292 294 292 292 292 290 293 294 291 287 290 291 295 296 294 293 297 294 289 293 299 302 299 302 304 304 305 300 297 300 310 313 315 317 318 320 324 325
302 294 300 304 298 290 291 291 290 295 293 294 292 294 292 290 293 289 291 294 295 296 297 296 294 291 289 295 299 297 300 303 303 299 301 301 301 307 312 314 317 320 322 323 325
301 297 297 291 292 291 292 290 290 290 295 295 292 291 291 288 289 289 291 293 294 296 296 294 291 292 293 296 298 299 299 301 301 303 300 303 302 307 313 315 317 321 322 322 323
298 295 297 293 294 291 291 291 289 291 291 291 290 293 293 290 291 288 292 292 292 293 293 295 291 294 290 293 297 297 300 301 302 303 304 304 302 310 312 314 316 319 321 321 322
303 301 296 292 292 290 291 290 291 291 293 295 293 292 291 292 296 298 297 297 296 293 292 293 293 293 286 293 295 292 299 301 302 305 304 300 303 309 309 310 312 319 321 321 323

GFSSW_sfc_thetae_036.txt.gz
Theta_e
312 313 313 313 313 314 314 313 313 314 315 315 315 315 315 315 315 311 308 316 320 331 328 324 330 327 328 326 323 318 307 304 307 309 312 318 316 320 323 319 321 322 321 324 327
312 312 312 312 313 313 313 313 313 313 314 314 314 314 315 316 309 307 317 331 333 334 314 313 314 319 318 318 319 313 307 307 313 315 314 317 317 318 318 318 318 320 324 326 327
311 312 312 312 313 313 313 313 313 313 313 313 314 314 315 314 307 307 326 333 334 329 314 315 317 319 313 315 315 316 309 313 315 318 318 317 317 321 318 315 319 319 322 324 325
312 312 312 313 313 313 313 313 313 313 313 313 313 314 315 311 297 313 325 323 324 316 312 310 309 307 312 310 313 308 315 316 317 319 318 316 319 317 318 319 323 324 325 325 325
311 312 312 312 312 312 312 312 313 313 313 313 313 313 310 301 303 314 328 325 316 313 309 308 306 307 304 309 313 310 311 314 317 318 317 319 316 316 317 322 324 324 325 325 324
312 312 312 312 312 313 313 313 313 313 312 312 313 313 306 295 310 313 315 315 313 314 312 313 310 311 309 309 309 313 312 313 315 315 316 313 314 316 318 322 322 323 323 324 325
313 313 313 312 312 313 313 313 313 313 313 313 313 311 303 299 310 312 311 311 313 313 311 315 318 314 313 308 313 312 309 312 314 314 314 317 312 313 319 320 319 321 322 323 324
312 312 311 311 312 313 313 313 313 313 313 314 314 310 299 309 312 310 310 308 310 311 310 312 314 310 311 314 310 307 308 304 311 314 315 314 306 315 319 318 317 319 320 322 323
312 312 311 311 311 311 312 312 313 313 314 314 310 306 299 314 306 310 309 305 307 308 310 311 310 307 307 305 303 305 301 302 305 312 312 312 308 315 319 318 317 318 318 320 321
311 311 311 311 311 311 311 310 312 312 313 313 311 302 306 302 306 308 310 309 304 304 304 305 304 300 301 300 295 299 300 303 303 309 311 309 309 314 317 317 317 318 318 318 319
310 311 311 311 312 311 309 309 303 302 307 303 303 303 304 307 307 304 306 304 305 303 296 301 297 295 297 301 302 303 303 302 306 310 309 308 309 311 316 317 316 317 318 318 320
310 310 311 311 311 310 309 304 303 304 295 302 301 300 302 303 297 301 306 298 298 296 300 297 294 301 302 301 300 300 300 301 306 308 308 307 308 312 315 315 316 317 317 318 320
310 311 311 310 310 309 307 305 309 307 295 297 300 299 300 302 297 298 302 298 295 294 296 294 297 302 301 299 298 299 298 300 300 305 307 306 304 309 313 316 317 318 319 320 320
310 310 310 309 306 308 304 308 309 308 289 292 295 299 301 301 296 304 305 300 295 291 294 296 300 298 299 298 300 296 302 301 301 299 296 305 295 306 310 312 315 316 318 318 320
310 310 310 308 307 303 306 309 310 304 278 295 296 306 304 299 301 302 308 301 293 293 293 291 296 297 295 298 302 299 303 302 301 300 300 300 298 302 309 307 310 314 316 318 320
309 309 309 309 309 308 310 309 305 286 278 288 296 296 296 298 299 302 302 305 302 295 295 293 298 297 299 301 301 304 301 301 301 300 294 300 298 298 303 307 310 314 316 317 321
309 308 307 310 303 309 309 301 286 280 291 287 289 293 292 292 295 296 295 294 293 289 289 293 293 296 299 297 301 300 299 292 291 291 291 301 298 300 308 310 311 313 315 318 322
307 306 309 311 311 310 305 292 280 287 287 292 291 291 288 291 291 293 292 290 294 294 291 288 287 293 297 296 296 298 299 293 286 288 292 299 295 301 311 313 315 317 318 320 321
305 312 310 311 311 309 298 285 285 288 291 290 291 288 288 291 291 291 291 290 292 295 287 287 288 299 297 299 300 297 294 301 296 297 293 297 302 307 310 312 315 314 318 319 325
305 308 307 312 312 305 293 287 290 293 293 292 285 287 286 287 287 290 289 292 293 294 297 290 285 295 299 298 299 299 302 294 297 289 288 295 298 300 308 311 313 315 316 319 326
307 302 308 312 310 300 290 290 292 295 295 291 289 288 289 288 289 287 288 292 295 294 296 294 290 291 298 294 293 297 296 298 300 297 292 291 296 310 312 313 312 315 316 319 325
305 297 308 309 296 298 292 292 294 294 296 293 293 291 289 290 289 289 289 292 296 296 290 295 292 288 292 300 300 301 298 299 294 294 297 297 297 313 312 313 315 315 316 322 326
301 300 310 307 290 292 293 293 294 293 294 293 291 292 293 290 287 288 291 296 297 295 292 294 291 286 289 295 300 297 299 301 302 304 297 293 297 313 312 312 315 317 316 322 325
302 296 301 301 299 292 291 290 290 297 294 295 293 294 291 290 292 289 290 294 297 296 297 295 290 288 285 289 294 293 298 300 300 296 297 299 301 307 309 312 316 319 321 323 324
302 297 299 292 293 292 292 291 290 290 294 295 292 292 290 287 289 289 292 293 296 296 296 292 287 290 291 292 293 293 296 298 298 301 298 301 302 306 312 315 318 323 324 323 323
300 296 297 294 295 293 292 291 290 292 292 290 291 292 292 289 290 288 291 292 291 295 293 293 287 292 289 292 291 290 295 298 300 302 303 304 304 313 315 317 318 320 321 321 322
303 303 297 293 293 292 292 291 291 292 294 294 293 291 291 293 296 297 297 297 295 293 292 292 291 289 285 291 289 287 296 299 301 303 305 301 307 312 310 311 317 320 322 321 323

GFSSW_sfc_thetae_039.txt.gz
Theta_e
312 312 312 313 313 313 313 314 314 314 314 315 315 315 315 316 316 308 303 311 318 327 330 318 325 324 322 319 322 322 303 297 300 303 306 313 312 317 320 318 318 320 318 320 323
312 312 312 313 313 313 313 313 314 314 314 314 314 315 315 315 308 304 314 327 330 336 314 310 310 318 315 315 319 315 304 303 308 309 308 312 314 315 316 317 316 318 324 324 324
312 312 312 313 313 313 313 313 313 314 314 314 314 314 315 314 303 303 328 327 326 333 312 312 310 310 309 311 313 312 306 310 310 312 313 313 314 318 315 313 316 316 319 321 322
312 312 312 312 313 313 313 313 313 313 313 313 313 313 314 308 291 307 328 331 334 321 311 308 305 302 302 306 311 306 311 313 314 315 313 312 316 314 315 314 318 320 321 323 320
313 313 313 313 313 313 313 313 313 313 313 313 313 313 307 298 298 307 329 325 314 312 307 305 302 300 296 302 310 306 308 310 314 315 314 315 313 313 313 318 319 320 319 318 318
312 312 311 311 311 312 313 313 313 313 313 313 313 313 303 291 305 308 308 310 313 308 307 305 302 304 301 301 301 307 309 310 311 310 311 310 311 313 314 316 316 317 316 317 318
313 312 312 312 312 313 313 313 312 312 312 313 314 310 300 296 305 306 305 303 306 307 307 310 309 305 304 301 306 306 302 305 307 309 309 311 307 308 314 316 315 315 316 316 317
312 312 311 311 312 313 313 313 312 313 312 313 315 307 295 306 307 304 305 305 307 307 305 307 307 303 302 305 305 304 303 297 304 307 309 310 301 310 314 314 313 315 316 316 315
312 311 311 311 311 312 312 312 313 313 314 314 307 303 295 311 304 307 306 302 304 305 305 307 304 299 300 296 294 299 295 297 300 307 307 307 303 310 314 313 312 314 314 315 315
311 311 311 311 311 312 311 311 312 313 311 311 309 299 302 301 307 307 308 306 303 302 300 299 297 294 293 292 287 292 295 298 298 303 305 304 303 308 311 311 311 313 314 315 315
310 311 311 311 311 311 307 302 299 298 302 297 299 301 304 308 310 303 305 304 302 298 290 294 290 289 292 294 297 298 298 297 301 305 303 302 303 306 309 309 309 310 310 312 313
310 310 311 311 311 310 305 300 301 299 291 299 299 299 302 303 296 299 303 295 295 290 295 292 287 294 298 297 295 295 293 294 300 305 303 302 301 306 309 309 310 311 311 312 312
310 310 311 310 310 307 302 303 306 304 290 294 298 297 298 300 295 296 299 296 292 289 290 290 292 297 296 295 294 293 292 293 293 298 301 299 296 300 305 307 310 311 312 312 312
309 309 310 310 304 304 300 305 304 304 284 290 296 299 299 298 293 301 301 297 292 288 289 288 294 296 294 293 296 290 297 297 296 294 289 297 288 297 301 303 306 309 310 310 312
309 309 309 308 302 300 302 305 304 299 275 293 295 305 302 296 299 300 302 298 291 291 290 286 289 291 292 293 297 293 300 297 297 293 292 293 288 295 300 301 304 307 309 310 310
309 309 308 307 304 303 306 305 301 285 276 288 294 292 292 296 296 300 300 303 300 292 292 290 295 292 291 294 298 298 296 296 295 292 285 291 291 292 295 299 302 306 309 309 309
308 308 305 306 299 305 305 298 283 277 290 286 288 291 291 289 292 295 294 293 290 286 285 290 290 293 295 290 293 293 289 283 283 284 284 293 291 294 299 303 305 306 307 309 311
307 306 306 307 308 305 300 289 276 286 285 290 290 291 288 291 291 292 290 287 293 292 287 285 283 293 297 291 288 288 290 284 278 281 285 294 289 293 303 307 308 309 308 310 310
305 305 305 307 308 304 294 282 282 286 290 288 289 285 286 290 289 289 288 287 291 292 285 285 285 295 294 294 293 288 285 293 287 290 286 290 294 299 302 303 306 307 309 310 318
300 301 303 309 307 301 289 285 288 293 292 291 284 287 283 285 286 287 287 292 291 294 294 289 282 291 291 295 297 293 293 286 288 281 280 288 290 291 298 301 305 306 307 315 321
300 298 304 308 306 296 285 287 291 294 295 289 287 286 287 286 287 286 287 291 294 293 293 289 286 286 291 289 290 291 287 288 288 288 283 283 288 298 300 306 303 306 308 318 320
299 293 304 305 292 293 288 290 294 292 295 293 293 290 288 288 287 287 286 291 296 295 289 292 288 284 287 294 296 295 290 289 285 284 289 289 289 301 304 305 306 307 309 319 320
294 297 307 304 287 285 290 291 292 292 293 291 290 292 291 287 284 289 290 295 296 294 290 290 285 281 283 289 294 292 295 293 291 292 288 286 290 302 304 305 308 306 316 319 320
297 291 297 299 296 291 288 288 288 295 293 293 291 292 290 288 290 288 289 294 295 295 298 295 287 284 280 284 290 289 291 293 291 288 289 291 293 299 303 305 307 310 318 319 320
298 293 295 287 288 290 291 290 288 288 293 293 290 290 288 284 286 286 290 291 294 296 295 292 284 287 288 291 291 289 289 291 289 291 290 293 295 298 303 309 310 315 318 318 319
296 292 295 291 292 292 291 289 288 290 290 289 288 290 290 286 288 286 289 289 288 292 292 294 285 288 287 291 291 288 290 291 291 292 294 296 296 304 312 317 316 316 317 318 319
300 301 296 292 291 289 288 290 290 291 292 293 292 290 289 291 294 294 293 293 292 289 289 290 287 287 283 290 289 284 289 290 291 294 295 293 300 308 308 312 313 315 317 318 320

GFSSW_sfc_thetae_042.txt.gz
Theta_e
312 312 312 312 313 313 313 313 314 314 314 315 315 315 315 315 315 308 301 308 313 323 327 322 323 318 314 312 318 317 301 296 298 301 304 310 310 315 318 316 317 318 317 319 325
312 312 312 313 313 313 313 313 314 314 314 314 315 314 314 315 307 303 312 323 326 331 315 310 307 320 314 313 314 311 305 304 306 307 305 309 309 312 313 313 314 316 321 322 322
312 312 313 313 313 313 313 313 314 314 314 314 314 314 314 313 301 301 325 324 325 331 315 311 310 308 307 311 311 311 307 312 313 312 311 310 311 314 312 310 314 314 317 319 319
313 313 312 312 312 312 313 313 313 314 314 314 314 314 314 307 284 305 325 328 332 321 317 307 304 300 299 302 310 304 312 314 313 315 313 311 314 312 312 313 317 317 319 319 318
313 312 312 312 313 312 312 312 313 313 313 313 313 314 306 297 297 303 320 315 308 323 308 305 301 299 295 298 305 305 307 310 311 311 313 314 312 311 312 317 319 317 316 315 316
312 312 312 312 312 313 313 313 313 312 312 312 312 312 301 290 302 305 305 305 304 304 308 303 301 302 299 298 298 302 304 307 308 307 308 307 309 311 312 315 315 315 314 314 314
312 312 311 311 312 313 313 313 312 312 312 313 313 309 300 295 305 303 301 300 302 303 301 305 305 303 301 298 302 302 298 302 303 303 304 308 304 306 312 314 313 314 313 314 314
311 312 311 311 312 312 313 312 312 312 314 314 314 307 295 306 306 304 304 303 305 304 303 304 303 301 299 301 300 297 298 294 301 304 305 305 298 308 312 311 311 312 313 315 314
312 311 311 311 311 311 312 312 313 314 314 314 306 302 294 310 304 307 305 301 303 304 303 306 300 297 297 294 291 293 292 295 298 305 304 304 300 307 311 310 310 310 311 313 314
311 310 311 311 311 311 311 311 312 312 311 311 308 300 301 300 306 308 306 305 301 300 299 297 293 291 290 290 286 289 291 295 296 302 304 302 301 305 308 309 309 310 311 312 313
309 310 310 311 311 311 308 300 296 294 297 294 295 299 301 306 309 305 306 302 302 297 288 292 286 286 290 293 295 295 295 294 299 303 301 300 301 303 307 306 306 307 309 310 311
309 309 310 310 311 311 303 298 298 298 290 299 297 298 300 301 295 298 303 294 293 288 291 288 285 291 294 294 293 292 290 291 295 298 299 300 299 304 306 306 307 308 309 308 308
309 309 309 310 309 304 300 299 303 299 289 293 300 299 297 299 294 295 299 295 290 286 287 287 290 295 292 291 291 291 289 291 291 296 297 295 292 296 301 303 305 306 308 309 308
309 309 309 309 301 300 298 302 302 300 283 289 294 297 300 298 293 300 300 296 290 286 287 286 290 291 291 289 292 287 295 294 292 290 286 294 285 293 298 300 302 303 305 304 307
309 309 309 308 298 297 301 301 301 295 273 292 294 303 300 295 297 299 305 296 289 288 288 285 287 287 288 290 294 289 296 294 294 290 289 290 285 291 295 296 298 302 304 307 309
309 309 308 302 299 302 302 301 297 281 274 288 293 292 293 295 296 300 300 299 298 290 290 289 293 290 288 292 292 293 292 292 292 288 283 288 287 289 292 295 298 302 305 306 306
308 307 306 305 296 302 301 295 279 275 289 285 287 291 291 290 292 294 292 291 290 286 283 288 288 292 293 288 290 288 283 279 278 280 281 290 287 291 295 298 299 300 304 305 306
307 306 303 304 302 302 296 286 275 285 286 292 289 290 287 289 289 290 290 288 292 290 286 284 282 292 296 290 285 284 283 279 275 277 282 290 285 290 298 301 302 304 305 306 304
305 297 300 303 305 300 290 277 280 286 290 288 289 285 285 289 289 289 288 287 291 290 283 283 284 293 293 292 290 286 282 286 282 286 281 286 290 297 300 300 302 302 304 304 307
297 296 298 304 303 297 286 284 286 291 292 291 284 287 282 285 285 285 286 291 290 294 291 287 281 290 292 293 291 290 292 281 281 277 277 283 286 289 294 297 299 300 302 307 317
295 294 302 304 301 290 279 284 289 294 294 289 287 286 286 285 286 285 286 291 294 293 292 287 284 285 290 287 284 287 286 285 284 282 280 279 284 294 295 297 299 303 303 316 318
293 289 301 302 288 286 283 289 293 291 295 293 291 289 287 287 285 286 286 289 295 295 288 290 285 281 284 290 294 291 289 287 280 280 284 285 285 298 297 298 300 302 315 317 320
290 291 302 299 286 283 288 291 292 291 292 291 289 291 290 287 283 288 289 294 296 293 290 289 282 277 279 286 291 289 292 291 288 284 282 281 285 298 299 300 302 305 315 317 319
293 288 291 292 291 286 286 288 288 294 292 292 290 291 288 286 287 285 287 293 295 294 298 293 286 283 276 283 288 286 290 291 288 283 284 286 288 294 298 298 300 307 314 317 319
291 288 290 282 286 287 288 288 287 288 292 291 289 289 287 284 285 285 289 290 293 295 294 293 284 286 286 288 289 288 289 289 287 289 284 289 289 294 298 299 300 310 316 317 318
288 289 292 290 290 289 288 287 289 289 290 287 287 289 289 285 288 285 288 287 286 290 289 290 285 287 285 288 289 287 291 290 289 290 290 290 290 300 302 309 309 315 317 317 318
293 294 294 291 287 287 288 289 290 292 293 293 291 289 287 290 293 294 293 292 290 287 286 287 287 284 280 288 288 284 288 289 290 292 292 288 293 300 306 310 310 315 317 317 319

GFSSW_sfc_thetae_045.txt.gz
Theta_e
312 312 312 313 313 313 313 314 314 314 314 315 315 315 314 314 314 307 298 305 310 321 325 311 323 319 312 312 317 312 299 295 298 300 302 305 304 310 315 313 314 315 315 318 321
312 312 312 312 312 312 313 313 313 313 314 314 314 314 314 314 306 301 309 318 324 328 313 305 306 314 304 307 313 308 299 300 305 306 304 309 308 309 310 310 311 313 317 320 320
312 312 312 313 313 313 313 313 313 313 313 313 313 314 314 311 296 296 325 327 324 324 318 311 309 309 309 311 309 309 304 308 309 311 311 309 309 312 309 306 311 312 315 317 317
311 312 312 312 313 313 313 313 313 313 313 313 313 313 313 305 282 299 326 322 321 314 315 308 304 300 297 303 309 303 311 312 312 314 315 313 314 311 312 310 316 316 318 317 316
311 312 312 312 312 312 312 312 313 313 313 312 312 312 306 294 295 300 314 310 305 319 309 307 301 300 296 297 303 302 306 311 315 316 313 313 311 311 311 316 317 318 318 315 315
310 311 311 312 312 312 312 312 312 312 312 312 311 311 301 290 302 303 303 302 301 300 305 307 300 301 297 297 298 299 303 306 307 307 308 307 307 308 310 315 314 313 312 313 312
312 311 311 311 311 312 313 313 312 312 313 313 312 308 300 296 306 304 304 301 300 300 298 305 307 303 299 295 300 299 295 299 300 300 301 306 302 304 310 312 311 312 312 312 313
311 311 310 310 310 311 312 313 313 314 315 314 313 306 296 306 306 303 304 302 303 303 302 302 302 301 298 298 299 296 295 292 300 302 302 303 296 305 310 310 309 310 310 311 312
310 310 309 310 309 311 312 312 313 316 314 314 304 300 293 310 305 307 305 300 302 303 302 305 299 296 297 292 289 291 290 292 296 303 303 302 299 305 310 309 307 308 309 311 312
310 310 309 309 310 311 311 312 312 311 311 311 308 296 298 295 301 303 305 304 300 299 297 296 292 290 288 290 285 287 289 293 294 300 302 300 299 303 306 307 306 307 308 309 310
309 309 309 310 310 310 307 300 294 293 295 292 294 295 297 301 304 301 303 300 299 295 288 291 286 285 289 292 293 292 292 291 296 300 300 299 299 302 305 304 304 306 307 307 307
309 309 309 310 310 310 301 296 297 296 288 297 296 297 301 301 295 298 302 293 291 287 289 286 285 291 293 292 291 290 287 287 293 297 295 295 296 299 301 303 305 305 306 307 308
308 308 309 309 309 302 297 299 301 296 287 293 297 298 298 299 294 295 298 294 289 285 285 284 287 293 291 289 289 288 288 289 289 294 295 293 291 294 298 299 302 304 304 305 305
308 308 309 308 300 298 297 302 300 297 280 287 294 297 299 298 293 301 300 294 289 285 285 284 289 289 288 287 288 284 292 292 291 288 284 291 283 291 295 296 299 301 302 301 303
308 308 308 307 298 296 300 300 300 294 272 290 293 302 299 294 297 298 304 295 287 287 286 283 285 285 286 287 291 286 291 290 291 288 285 287 283 289 293 293 296 299 301 301 304
308 308 308 301 297 301 302 300 295 280 272 287 293 291 291 294 295 297 297 298 295 288 288 286 290 288 287 290 290 292 288 289 288 285 279 285 285 286 289 293 296 298 299 303 302
308 307 305 304 295 299 299 292 279 274 289 285 287 290 289 289 291 292 291 290 287 282 280 285 287 290 291 286 288 286 280 276 276 276 279 288 285 288 292 295 296 296 298 300 302
307 306 303 304 300 300 294 284 274 284 285 291 289 289 286 289 289 290 289 287 292 290 286 283 280 287 293 287 283 282 281 277 274 276 280 289 283 288 296 299 301 301 300 300 300
304 297 297 302 303 298 288 275 279 285 289 288 288 284 284 288 288 288 288 287 290 292 285 284 284 293 292 292 289 284 280 284 279 281 278 283 288 294 297 297 299 298 299 298 300
295 294 297 302 301 295 285 283 285 290 291 290 283 286 281 284 284 285 286 291 290 293 290 286 280 289 292 293 291 287 289 279 277 275 275 281 283 286 291 294 297 297 297 299 300
294 292 299 302 299 291 283 282 288 293 292 289 286 285 285 283 284 284 286 290 293 292 292 286 283 284 288 286 283 285 285 285 281 280 276 276 281 291 293 295 295 296 299 302 305
290 287 299 299 287 283 280 288 293 291 294 292 291 288 286 286 284 285 286 289 294 293 287 289 284 280 283 288 291 288 287 285 280 278 282 280 282 295 292 294 295 297 300 311 311
290 290 300 296 278 277 286 289 291 290 291 291 288 290 290 285 282 287 288 293 294 292 288 289 281 277 278 285 290 286 289 288 287 284 282 279 281 294 294 295 297 296 302 314 315
294 285 288 289 288 283 284 287 287 293 292 292 289 290 286 284 286 284 286 291 294 293 297 293 286 280 275 281 285 284 287 290 286 280 284 285 286 290 293 295 298 299 309 313 316
289 285 287 280 283 285 284 287 286 288 293 291 287 288 286 284 284 284 287 289 292 294 292 290 284 285 285 287 287 286 286 288 287 287 283 287 287 290 294 296 300 301 303 314 316
284 285 289 286 287 286 286 285 287 289 289 288 287 289 288 283 286 284 287 287 286 289 289 289 281 285 283 288 288 286 288 288 289 290 288 289 288 295 297 299 303 310 310 314 317
293 290 288 285 288 287 286 289 288 291 291 293 291 289 286 288 292 293 293 292 291 289 286 287 285 281 279 286 285 282 287 288 289 291 289 285 290 297 297 299 303 310 311 315 318

GFSSW_sfc_thetae_048.txt.gz
Theta_e
312 312 313 313 313 313 313 313 313 313 314 314 314 314 314 314 314 305 297 301 310 322 326 308 321 319 314 312 315 309 296 292 297 299 301 304 305 309 312 311 313 314 314 316 319
312 312 312 313 313 313 313 313 313 314 314 314 314 313 313 314 303 299 306 314 319 321 312 304 303 312 304 306 312 306 296 297 303 306 303 307 305 306 307 307 309 312 316 318 319
311 311 312 312 312 312 312 312 313 313 313 314 313 313 313 310 291 289 324 322 322 325 315 314 308 310 301 306 307 308 303 307 306 308 309 308 309 311 307 306 308 309 312 314 316
311 312 312 312 312 312 311 311 312 313 313 313 313 312 311 302 281 295 316 315 315 313 313 310 302 299 300 304 307 304 310 311 309 311 313 311 312 310 310 311 313 315 315 315 314
311 311 311 311 311 311 311 312 313 313 312 312 312 311 303 293 291 301 313 308 302 304 311 306 299 298 294 298 306 304 305 310 314 314 313 314 311 311 311 314 316 316 316 314 314
311 311 311 311 311 310 312 312 313 312 312 312 312 311 298 287 300 303 303 305 300 296 298 306 302 301 297 296 302 299 304 307 308 307 308 306 308 307 309 314 312 312 312 312 310
310 310 310 310 310 310 311 312 312 313 314 314 312 307 299 293 304 305 304 301 300 301 296 298 306 302 298 293 298 298 294 296 299 301 301 306 302 304 310 311 310 310 311 311 310
310 310 310 310 310 311 311 312 313 314 316 313 313 304 295 305 305 304 303 301 303 302 300 299 300 295 295 296 296 295 293 291 299 299 301 304 296 305 309 309 308 310 311 311 310
310 310 309 310 311 311 311 311 313 315 315 314 303 298 292 308 303 307 304 300 301 301 300 303 297 294 295 291 287 290 289 290 294 301 301 300 297 304 308 307 306 306 307 308 308
309 310 309 310 310 311 311 312 312 311 311 310 307 294 295 294 300 303 304 302 299 298 296 295 291 288 288 288 283 285 287 291 291 298 299 297 298 302 305 305 304 304 306 307 308
309 309 309 309 310 310 306 298 294 292 294 291 292 294 295 300 304 300 303 299 297 294 286 289 285 284 289 292 292 291 290 289 294 298 298 297 298 300 302 303 304 305 307 308 309
308 309 309 309 309 309 299 295 296 295 288 296 296 295 298 300 295 298 301 292 290 285 288 286 283 289 291 292 290 289 287 286 291 296 293 293 292 294 297 299 302 304 305 305 306
308 308 308 308 308 301 296 298 300 296 286 291 295 295 297 298 294 294 297 293 288 286 285 282 287 292 290 289 288 287 286 287 288 293 293 291 290 293 297 298 299 301 302 304 305
308 307 307 307 299 297 296 301 300 296 280 285 292 296 297 296 293 301 301 293 289 285 285 283 287 288 286 286 287 283 291 291 290 288 283 290 283 290 294 295 297 298 299 301 301
307 307 307 306 297 295 298 300 297 292 272 289 291 299 297 292 295 297 303 298 287 285 285 282 283 284 284 286 289 285 291 289 289 286 284 285 281 286 290 290 294 297 299 300 299
308 307 307 300 300 299 301 298 294 280 272 286 291 290 290 292 293 296 296 298 296 288 287 284 289 286 286 289 290 291 287 286 286 284 277 283 283 285 288 291 293 296 297 299 299
307 307 304 302 294 298 297 291 278 273 287 285 286 289 288 287 290 291 291 290 288 280 278 284 285 288 289 284 286 284 280 275 275 275 277 286 283 286 291 293 294 295 296 297 298
306 303 303 302 299 299 292 283 274 283 284 290 288 288 284 287 288 289 289 287 292 289 285 280 279 285 289 286 282 281 280 276 273 274 276 286 281 286 294 298 298 299 297 298 298
303 296 296 300 302 296 288 275 279 284 288 286 287 283 283 286 286 286 286 287 290 290 284 282 283 292 291 290 288 283 278 282 277 279 276 280 285 291 295 295 296 296 297 297 297
293 294 296 301 299 293 284 282 284 290 290 289 283 285 280 282 282 283 284 291 289 293 291 286 280 289 292 291 289 285 287 278 276 273 274 278 281 284 289 291 295 295 295 297 299
292 292 298 299 298 289 278 282 287 292 292 289 286 284 284 282 282 282 284 289 292 291 293 288 283 283 287 284 282 283 281 282 279 278 275 275 279 288 291 293 294 294 295 296 305
289 287 298 298 286 279 278 286 292 291 293 291 290 288 285 285 283 283 284 288 292 292 286 289 284 280 283 287 289 285 283 284 279 278 280 277 278 291 291 291 292 294 298 301 313
292 291 298 293 277 276 284 288 290 290 290 290 288 289 288 285 282 285 287 292 293 291 287 288 281 276 279 284 288 284 287 285 285 284 280 277 279 292 292 294 294 295 300 303 314
291 284 287 287 285 282 285 285 286 292 291 291 289 289 288 284 286 283 285 290 292 292 297 293 284 279 274 279 284 282 285 286 285 280 281 283 285 290 292 293 295 297 300 302 314
287 282 290 279 281 282 287 287 286 286 292 291 287 288 287 283 284 283 286 288 291 293 290 289 283 285 285 286 286 285 285 286 284 285 283 285 286 289 292 294 295 298 300 308 312
283 285 287 283 285 287 287 286 287 288 289 287 287 289 290 285 285 283 286 287 286 289 289 290 283 283 282 285 285 284 286 287 287 287 286 287 286 294 296 297 297 298 301 310 311
294 294 290 285 282 280 281 287 287 288 291 292 291 289 287 288 291 291 292 291 291 289 287 288 285 283 276 284 284 278 284 285 287 288 288 283 288 293 293 295 297 298 304 310 312

GFSSW_sfc_thetae_054.txt.gz
Theta_e
312 313 313 313 313 313 313 312 313 313 314 315 315 315 314 314 314 310 303 309 312 325 325 311 309 319 322 319 319 318 306 303 304 302 303 309 310 315 319 319 320 322 324 325 332
312 313 313 313 313 313 313 313 313 313 314 314 315 314 314 314 310 305 313 316 319 323 312 307 304 311 314 316 317 313 307 307 310 309 306 309 311 313 315 317 318 320 324 326 329
312 312 312 312 313 312 312 313 313 314 314 314 314 314 314 314 302 306 321 316 318 318 311 310 307 307 309 313 315 314 308 312 312 312 310 309 310 314 314 314 319 319 323 325 326
312 312 312 312 312 312 312 313 313 314 314 314 314 314 313 309 293 309 316 315 317 312 310 309 307 304 304 306 312 309 314 314 314 314 312 309 313 311 312 314 321 321 324 325 325
311 311 312 311 312 312 312 313 314 314 314 313 314 314 311 302 299 306 313 316 312 309 303 303 305 303 301 305 308 308 310 313 315 315 314 314 312 313 313 317 319 321 322 323 325
311 311 311 311 311 312 313 313 314 314 314 315 315 312 307 297 307 310 311 312 310 308 305 304 303 308 303 303 305 308 309 310 311 313 314 311 312 315 317 320 320 322 322 324 323
310 310 310 311 311 311 312 313 313 314 315 315 315 311 305 300 310 313 312 310 311 309 305 306 306 302 306 303 306 306 304 307 310 311 309 314 309 311 317 320 320 320 321 322 323
311 310 309 310 310 311 312 313 312 314 316 316 314 310 301 309 313 312 311 309 310 311 308 309 308 303 301 304 304 301 302 298 306 309 311 309 304 313 318 317 318 319 320 320 323
310 310 309 309 310 310 311 312 313 315 315 315 312 307 298 310 305 309 310 306 308 308 308 308 305 301 299 296 296 299 294 298 301 308 308 307 304 312 317 317 317 318 319 320 322
309 309 308 309 309 310 310 312 313 316 314 313 311 303 303 299 306 307 310 308 304 304 303 302 301 297 296 293 288 293 295 297 299 304 306 303 305 311 314 315 315 317 318 319 321
309 309 308 308 309 310 311 310 307 303 305 299 299 299 300 305 308 305 308 305 304 302 295 299 294 291 294 295 295 296 296 297 300 305 305 303 304 307 311 312 314 315 317 319 319
310 309 308 308 309 309 311 304 303 305 297 303 302 302 304 305 298 302 307 300 299 295 298 295 291 296 297 295 294 294 294 295 300 303 303 303 303 307 310 311 313 315 316 317 319
309 308 308 308 309 310 308 306 310 309 298 297 300 300 300 303 298 299 303 302 297 295 295 292 294 297 295 293 291 293 293 295 296 301 303 302 300 304 308 311 313 314 316 316 317
309 308 309 309 306 309 307 309 311 310 293 292 296 299 301 302 297 303 305 301 297 294 295 294 297 294 293 291 292 288 295 296 296 296 293 301 291 301 305 307 309 311 313 314 316
309 308 308 306 309 308 308 312 311 306 283 293 295 304 302 297 298 299 305 302 295 295 296 292 293 292 290 291 294 291 295 296 296 295 296 297 294 299 304 303 307 310 312 313 315
309 308 307 308 312 310 312 311 307 291 280 290 295 294 295 296 296 298 298 303 303 297 297 295 299 295 293 294 295 296 293 295 296 294 288 294 294 295 299 303 306 309 310 311 312
308 307 308 311 307 313 312 305 291 285 292 289 290 294 293 292 293 294 293 293 291 286 288 292 293 296 295 291 294 294 290 284 284 286 286 295 293 296 303 304 306 307 307 310 312
307 304 307 313 315 312 308 296 284 288 289 294 292 293 290 292 292 293 292 290 294 293 288 286 283 292 295 293 290 291 290 284 280 283 287 294 290 295 304 307 308 308 308 310 314
305 313 313 314 314 311 301 290 289 289 291 291 292 289 289 291 291 292 291 290 292 294 286 286 285 293 296 295 294 290 286 293 287 290 288 291 295 300 303 304 306 306 307 310 316
307 310 310 312 314 308 297 288 291 294 294 293 287 289 286 289 289 290 289 292 291 295 296 291 285 292 293 296 296 292 295 287 289 280 281 289 291 293 299 300 304 305 306 309 314
307 303 308 311 311 302 294 292 293 296 296 292 290 288 289 288 289 288 288 292 293 294 296 294 289 287 292 289 287 290 289 290 290 289 284 284 290 301 302 303 304 306 307 309 311
304 299 309 309 297 299 292 292 293 294 297 294 295 292 290 290 289 289 288 291 296 295 291 294 291 286 288 293 294 293 291 292 284 285 289 290 292 303 305 305 306 306 308 310 311
298 298 308 306 293 291 293 292 294 293 293 293 292 293 294 290 286 290 291 295 296 294 292 293 289 284 285 291 294 290 290 293 293 292 288 286 291 303 303 303 304 305 308 309 310
299 294 301 300 300 292 290 290 290 295 294 294 294 295 292 290 291 288 289 293 295 295 297 296 291 287 283 286 290 287 290 292 291 287 288 290 292 299 301 301 303 305 308 308 309
299 295 296 292 295 293 293 291 289 289 295 295 292 291 290 286 290 289 291 292 294 296 296 293 286 289 290 291 290 289 289 290 290 291 287 291 292 296 300 301 303 305 307 306 307
296 294 297 292 294 290 291 291 289 290 291 290 291 292 291 288 289 286 289 290 290 295 293 295 287 290 287 290 290 288 290 291 291 291 291 292 292 299 301 302 302 303 304 305 307
302 296 293 293 291 288 290 290 290 291 293 294 293 291 292 293 295 296 296 295 293 291 291 290 290 286 284 288 288 285 289 290 291 293 292 289 295 300 300 301 302 303 304 305 306

GFSSW_sfc_thetae_057.txt.gz
Theta_e
313 314 314 314 314 314 314 314 314 314 315 316 316 316 316 316 315 314 308 313 314 325 322 311 313 313 319 318 321 319 309 305 305 305 305 310 309 316 319 318 322 326 327 329 335
313 313 313 313 313 313 314 314 314 314 315 316 316 316 316 315 314 309 317 318 320 324 314 309 307 310 314 316 319 314 308 308 313 312 310 311 311 312 313 316 319 323 326 329 334
312 313 313 313 313 313 313 314 314 315 316 316 315 316 316 315 309 311 319 316 319 319 313 312 311 309 307 313 315 315 309 313 313 315 315 312 312 315 312 313 319 320 324 326 329
312 312 313 312 313 313 313 314 314 315 316 316 315 315 316 315 297 315 316 317 320 317 309 310 310 305 303 303 312 309 314 315 315 316 315 311 313 312 313 314 322 325 327 328 327
311 312 312 312 312 312 312 313 314 315 315 315 316 316 315 307 303 310 314 318 315 312 307 305 305 307 303 305 307 307 310 313 316 316 317 316 313 314 314 317 319 323 325 326 327
311 311 311 311 311 312 312 313 314 314 314 316 317 316 312 302 310 313 313 312 313 311 308 307 304 306 305 305 305 308 309 310 313 313 315 313 314 315 317 320 319 318 320 323 325
311 311 310 311 311 311 312 313 313 313 315 316 317 315 309 303 312 313 314 312 312 311 307 309 309 304 305 304 309 307 302 306 309 310 310 314 309 311 318 320 319 319 320 322 325
311 311 310 310 311 311 312 312 312 314 316 318 316 316 305 310 313 312 312 311 312 312 310 311 310 306 304 304 302 301 303 298 305 308 310 310 303 312 317 318 318 319 321 322 325
312 311 310 310 310 311 311 311 313 315 316 316 315 311 302 311 307 309 311 307 309 310 310 309 308 303 303 298 295 297 293 298 301 307 307 307 305 312 315 316 317 319 320 321 323
311 311 310 309 310 310 311 310 314 315 316 317 312 306 307 301 306 307 310 309 306 306 305 304 303 299 299 296 289 292 293 296 297 304 306 304 305 311 314 314 315 317 320 321 322
310 309 309 309 309 310 311 315 310 310 310 303 302 302 301 306 308 306 308 306 306 304 298 302 297 294 297 298 298 297 294 294 299 304 303 303 304 307 312 313 314 316 319 321 322
310 309 309 309 310 310 312 307 306 308 300 306 305 303 305 306 300 304 308 301 301 296 299 297 294 298 299 298 296 295 293 293 297 301 302 303 302 308 310 311 313 315 317 318 321
310 310 309 309 310 310 310 308 313 312 301 300 302 302 303 304 300 301 304 302 298 296 296 294 297 300 297 296 294 295 293 293 293 298 301 301 300 303 309 312 313 315 317 319 320
310 310 310 309 307 312 310 312 314 312 296 296 298 301 302 303 299 305 305 302 299 295 296 296 299 296 295 294 295 291 296 295 293 293 291 301 292 301 305 307 311 312 315 317 319
310 310 309 307 313 310 311 315 314 310 287 296 298 306 303 299 299 300 306 302 295 296 296 294 295 295 294 294 296 293 297 295 294 292 293 295 294 299 305 304 307 311 314 316 319
310 309 308 311 316 312 315 314 310 295 284 293 298 297 297 299 298 300 300 303 302 297 297 296 301 299 297 298 296 297 294 294 294 292 286 293 294 296 301 304 307 311 313 315 317
310 308 308 314 309 315 315 309 295 289 296 293 293 296 296 295 295 296 296 295 292 289 290 294 295 298 300 294 297 294 291 284 282 283 284 294 294 297 305 308 308 310 312 314 316
308 306 310 315 316 315 312 301 287 292 293 297 295 296 293 294 294 294 294 292 296 295 291 287 286 295 298 296 292 291 291 284 279 281 285 294 290 297 306 309 309 310 312 312 313
306 314 314 317 316 314 304 294 293 293 295 293 295 292 292 294 294 294 293 292 294 295 288 287 287 296 298 298 296 292 287 293 287 287 283 288 296 301 305 306 308 309 310 312 315
308 311 313 315 317 310 300 293 295 297 297 296 290 292 289 292 291 292 292 294 292 296 298 293 286 294 296 298 298 295 295 287 287 280 278 286 289 294 300 303 306 308 309 312 314
309 304 311 314 312 304 295 294 295 299 298 294 293 292 292 291 292 291 291 294 296 295 297 294 291 290 295 291 292 292 290 291 291 288 281 283 289 301 302 304 306 308 310 311 312
308 300 312 309 300 302 296 294 293 297 299 297 297 294 292 292 291 291 291 293 298 297 291 295 292 287 289 296 298 295 293 292 287 286 289 287 287 304 307 308 308 309 310 311 313
302 303 311 307 296 297 298 296 296 296 296 295 294 295 296 292 288 293 293 297 298 296 292 296 290 284 286 290 295 291 293 293 293 291 288 284 287 305 307 308 309 309 310 309 311
302 297 304 307 304 297 296 295 293 297 296 298 296 297 294 292 294 292 291 295 298 297 298 297 291 287 284 286 288 287 290 293 292 285 289 289 290 299 304 305 306 307 308 309 310
304 300 300 295 298 296 297 296 292 293 296 297 295 294 293 289 291 290 293 294 297 298 298 295 289 290 291 292 291 290 290 291 290 292 287 291 290 293 299 302 305 307 307 308 308
298 296 299 296 296 294 296 295 293 294 295 293 292 293 293 289 290 289 292 293 291 296 295 297 288 291 289 292 292 289 292 292 292 292 291 293 293 300 302 304 303 304 305 306 308
303 303 297 295 297 293 293 292 292 293 295 296 294 292 291 294 297 299 299 299 296 294 293 292 290 289 285 291 291 287 290 292 292 293 292 289 295 300 300 301 303 305 306 306 308

GFSSW_sfc_thetae_060.txt.gz
Theta_e
313 314 314 314 314 314 314 314 315 315 316 316 317 317 317 317 316 313 310 311 314 326 323 311 310 311 312 314 316 319 307 304 305 305 307 312 310 314 316 313 317 322 325 330 334
313 313 314 314 314 314 314 314 315 315 316 317 317 317 317 317 312 311 316 316 323 326 310 309 307 308 306 310 312 310 307 307 311 312 310 312 312 312 312 311 313 318 326 329 332
313 313 313 313 313 313 313 314 315 316 316 317 317 317 317 316 311 310 320 315 323 320 311 310 310 307 304 307 309 311 308 312 312 314 314 313 313 314 311 309 313 315 322 326 328
313 313 312 312 313 313 313 314 314 315 316 316 316 317 318 314 299 316 322 319 326 318 312 307 307 304 302 301 306 304 310 312 314 315 314 313 316 313 313 313 317 319 324 326 327
312 312 312 312 312 312 312 313 314 315 315 315 316 317 315 310 305 313 325 321 316 314 309 306 303 303 301 303 304 302 305 309 313 315 315 316 313 314 314 317 318 319 320 326 328
311 312 311 311 311 312 313 313 313 313 314 315 317 317 313 303 311 313 313 312 312 310 308 308 305 306 301 300 302 305 305 306 308 309 312 311 313 314 316 319 319 319 319 320 326
313 312 311 311 311 311 312 313 313 313 314 316 318 316 310 306 311 312 313 311 312 310 307 309 308 305 304 300 304 304 300 304 305 307 307 311 308 310 317 319 318 319 319 320 321
311 311 310 311 311 311 312 313 312 313 316 318 319 314 307 311 313 311 311 310 311 311 310 310 310 305 303 304 301 298 299 295 303 305 306 306 300 310 315 316 316 318 319 320 321
312 311 311 310 311 311 312 312 312 316 317 318 314 313 304 311 308 309 309 306 308 309 310 310 307 302 301 296 294 297 290 293 296 304 305 304 301 309 313 313 314 317 319 320 322
311 311 311 310 310 311 311 311 315 315 316 317 314 305 309 302 306 307 310 309 306 306 305 305 302 298 298 295 287 291 292 294 293 299 301 301 302 307 311 312 313 314 316 320 321
311 310 311 311 311 311 310 315 309 309 313 306 304 304 304 306 309 306 309 306 306 304 298 302 296 293 297 298 298 296 294 293 297 300 298 298 301 305 309 310 310 315 315 317 320
311 311 311 311 311 311 310 309 307 308 300 307 306 305 306 306 300 305 308 301 300 295 299 296 293 298 300 299 297 295 293 293 296 299 298 297 297 302 307 309 310 313 316 317 319
310 311 311 311 310 310 312 309 313 313 300 303 303 302 303 305 300 301 305 302 297 295 295 293 295 299 298 296 294 294 293 292 292 296 298 296 294 298 304 308 311 314 316 317 319
310 310 311 310 307 313 311 314 314 313 295 297 298 302 303 303 299 305 306 301 298 294 295 294 298 296 296 294 295 291 297 295 294 292 287 295 286 296 301 304 308 311 314 316 317
310 310 310 309 312 309 311 315 314 309 286 298 299 307 303 299 301 301 307 302 295 295 295 292 294 294 293 294 297 293 297 294 293 291 291 290 288 292 300 300 305 309 313 316 317
310 310 310 313 314 314 314 315 312 295 286 294 299 297 298 300 300 301 301 304 302 296 296 296 300 298 296 298 298 298 294 293 292 290 283 288 288 289 294 300 305 310 311 315 317
310 310 307 313 309 314 315 310 295 289 298 294 295 297 296 296 296 298 296 295 293 289 289 294 293 298 299 295 298 296 291 283 281 282 282 290 287 291 298 302 306 309 311 314 316
308 307 311 312 315 314 310 301 289 295 294 298 297 296 294 296 295 295 295 292 296 294 290 286 284 293 297 294 292 293 291 283 276 278 282 291 285 291 301 303 307 310 313 315 315
306 315 313 317 316 313 303 294 293 294 297 294 296 293 293 295 295 294 294 292 295 295 288 287 286 295 296 297 297 293 288 293 285 287 283 286 291 297 301 302 305 308 310 311 314
306 311 312 317 315 308 299 294 296 299 298 297 291 294 290 292 292 293 292 296 294 297 298 292 285 292 294 297 297 295 296 286 287 278 277 284 286 288 296 300 304 306 309 313 315
308 306 313 315 312 303 295 295 297 299 298 295 294 292 293 291 292 291 292 295 297 296 297 294 290 289 294 291 290 292 290 291 290 287 280 279 285 297 298 302 304 306 310 313 313
308 299 313 311 299 302 297 297 297 297 300 298 298 296 293 293 291 291 291 294 298 298 292 296 291 286 288 295 297 293 293 291 284 283 288 285 286 300 302 303 305 307 310 312 313
303 304 313 310 297 296 299 299 300 296 297 296 295 298 297 293 289 293 294 298 299 297 294 295 289 283 285 290 293 289 291 292 292 292 285 282 286 301 302 298 299 306 309 310 311
304 298 304 304 304 299 296 296 295 299 296 298 297 298 296 293 295 291 292 296 299 298 301 298 291 286 282 285 290 286 290 292 290 286 287 287 288 292 294 294 299 301 309 309 310
305 300 302 294 296 297 297 297 295 294 298 298 296 295 293 289 291 291 293 294 297 300 298 296 288 290 290 291 292 290 290 292 290 290 286 288 289 292 295 296 299 303 306 306 307
299 296 298 295 299 298 297 296 295 296 295 293 292 294 294 291 291 289 293 293 293 297 296 297 288 291 288 291 291 289 292 292 292 292 291 291 290 297 299 300 301 303 304 304 306
304 304 297 294 297 296 296 295 294 295 296 297 296 294 292 294 299 299 299 299 298 295 294 293 290 288 283 289 289 285 290 291 291 294 293 289 294 299 298 299 301 304 305 306 307

GFSSW_sfc_thetae_063.txt.gz
Theta_e
314 314 314 314 314 314 314 315 315 316 316 317 318 318 318 317 317 310 304 309 312 323 326 309 308 307 308 305 312 310 301 299 302 303 304 309 306 312 312 310 312 313 319 329 331
313 313 313 313 313 313 314 314 314 315 316 317 317 317 317 317 310 308 317 322 323 326 307 305 303 305 301 303 306 304 298 302 309 310 308 310 310 311 309 308 309 311 324 328 330
313 313 313 313 313 313 313 313 314 315 316 317 317 317 317 316 306 305 322 326 324 321 310 307 304 303 298 300 301 304 299 305 309 311 312 311 311 314 310 305 308 308 313 323 325
312 312 313 313 312 312 313 313 314 315 315 316 316 317 318 312 297 307 324 328 326 319 311 307 301 295 296 295 300 296 302 306 309 312 312 310 313 311 312 310 315 315 315 317 322
312 313 313 313 312 312 312 313 313 314 314 315 316 317 312 306 305 319 329 327 318 311 309 303 298 295 291 297 299 298 300 302 305 306 308 311 310 311 312 316 318 318 317 315 317
312 312 311 311 311 312 312 313 313 313 314 315 316 318 309 301 308 312 317 312 311 304 305 303 299 301 296 295 294 297 298 300 302 302 304 303 305 310 312 317 317 317 315 316 316
312 312 312 311 312 311 313 313 313 313 314 316 317 315 306 302 307 307 308 302 306 308 304 305 305 300 298 295 299 298 294 297 299 301 300 304 301 302 310 314 315 316 317 317 316
312 311 311 311 311 311 312 313 312 313 315 318 318 310 302 312 305 305 305 305 308 307 306 305 305 300 296 298 297 293 292 287 295 300 302 300 294 303 307 310 311 314 316 317 317
311 311 310 311 311 312 312 312 312 314 316 318 310 305 303 310 306 306 303 303 306 307 307 309 301 297 297 291 286 288 285 287 292 298 298 297 296 302 306 307 309 310 314 316 317
312 312 311 311 311 312 311 312 313 313 315 315 312 302 306 302 306 306 306 307 304 304 303 302 296 292 290 287 281 285 286 289 290 293 294 292 294 299 303 305 305 308 310 314 316
312 312 311 312 312 311 308 306 303 302 305 305 306 303 305 307 308 304 308 305 304 300 293 296 290 286 290 293 294 293 291 290 293 297 294 293 293 296 299 300 302 306 308 310 312
312 312 312 312 311 311 305 302 303 302 296 304 304 304 306 305 299 303 307 299 297 291 294 291 286 294 296 296 294 293 290 289 293 296 294 293 292 296 298 298 300 301 305 310 312
311 311 311 311 310 308 305 307 309 307 294 300 305 301 302 302 299 300 303 300 294 291 291 288 291 296 295 293 291 291 289 290 290 294 295 292 290 293 297 298 300 302 303 308 312
311 311 311 310 306 307 305 309 309 307 288 296 296 300 302 301 297 305 305 300 295 291 292 290 294 293 293 291 292 288 295 294 292 288 283 291 281 289 293 295 298 300 301 304 308
310 310 310 309 302 304 305 308 308 303 282 297 297 305 301 297 299 301 305 300 293 292 291 288 290 291 291 292 295 291 295 293 292 287 284 286 282 287 292 292 294 297 301 304 307
310 310 309 309 306 309 310 309 306 290 283 292 298 296 295 298 299 301 300 301 299 293 293 292 297 294 295 296 295 297 293 292 290 284 279 284 283 283 287 291 294 298 300 304 307
310 309 307 308 304 312 308 303 288 286 297 292 293 296 294 294 296 297 295 291 289 285 285 291 291 294 297 291 294 292 288 279 276 276 277 287 285 285 292 295 296 297 299 301 303
307 306 309 310 310 310 304 294 284 294 292 297 295 294 292 295 295 295 292 289 295 291 285 283 281 290 296 291 288 288 286 280 275 275 278 287 281 285 295 299 300 299 301 301 302
305 308 308 312 313 308 297 287 289 293 295 293 293 291 291 294 293 292 290 290 293 293 284 282 285 294 295 294 291 287 284 287 282 283 280 282 286 292 296 297 300 301 302 301 303
300 305 308 313 311 303 293 291 294 296 295 294 288 293 287 290 289 289 289 295 293 295 294 289 282 291 293 295 294 291 292 282 284 274 275 280 283 284 292 294 296 297 300 303 305
301 302 308 309 307 298 288 292 296 298 297 293 291 290 290 289 289 288 289 293 296 295 295 291 286 287 291 288 287 288 286 288 287 284 277 275 280 295 293 295 294 296 299 302 305
301 296 308 307 293 297 292 296 299 298 299 296 296 294 292 292 289 289 289 293 298 296 290 292 287 282 286 291 295 292 288 289 282 280 282 282 282 296 295 296 297 297 301 305 308
298 300 309 306 290 290 296 296 298 296 296 295 293 295 295 291 287 292 292 297 298 295 292 292 285 279 281 285 291 288 290 290 288 287 282 280 282 296 297 296 297 298 302 304 305
300 294 299 299 298 293 292 292 293 300 297 296 295 295 293 290 291 289 290 296 297 296 301 297 287 283 279 283 286 285 288 290 286 280 283 285 287 293 294 294 296 298 300 302 305
301 294 295 288 289 292 294 294 292 294 297 296 293 292 290 286 288 288 290 291 295 298 295 292 285 288 289 290 290 289 288 289 287 287 284 287 288 292 294 295 297 300 302 302 302
293 292 294 291 294 292 294 293 292 293 292 291 289 292 291 287 289 286 289 290 289 293 291 294 286 289 286 290 289 287 289 290 290 290 289 290 290 297 298 299 299 300 301 301 303
300 300 294 292 291 289 290 291 292 293 295 295 292 290 289 291 295 295 295 294 293 291 291 291 288 286 282 288 287 282 287 289 291 292 290 287 291 297 297 298 298 300 302 305 309

GFSSW_sfc_thetae_066.txt.gz
Theta_e
313 313 313 313 313 313 314 314 314 315 316 317 317 318 318 318 317 309 302 311 313 321 324 311 307 306 305 303 308 309 299 296 299 302 303 309 305 312 314 309 311 312 316 325 327
313 313 313 313 313 313 313 313 314 314 315 316 317 317 317 318 309 306 314 323 323 325 304 303 302 303 298 301 301 303 294 301 308 308 307 310 310 311 311 310 309 310 315 318 326
313 314 313 313 313 313 313 313 313 314 315 315 316 316 317 317 305 307 325 326 325 323 309 305 303 299 296 298 298 300 299 305 306 309 311 309 310 313 310 307 311 308 312 314 317
313 313 313 312 313 312 312 313 313 314 314 315 315 316 318 311 295 307 326 328 328 318 310 306 300 291 292 293 297 294 299 301 305 307 307 305 310 309 311 311 315 316 316 313 315
312 312 313 313 313 312 312 313 313 313 314 314 315 316 311 304 306 314 329 328 323 312 308 304 295 292 287 292 295 294 297 299 301 301 302 305 304 305 305 311 317 317 317 314 314
312 312 312 312 311 312 312 312 312 313 313 314 316 317 307 298 311 315 320 315 312 305 303 301 296 298 293 292 292 294 296 296 297 297 299 299 301 303 305 309 310 314 315 315 314
312 312 312 311 311 312 312 313 312 312 313 315 318 314 304 299 309 307 312 305 304 306 302 303 302 298 296 293 295 295 291 294 295 297 297 301 297 299 305 307 307 310 313 314 316
313 312 312 312 311 311 312 312 312 313 314 315 317 309 298 312 311 304 303 302 305 305 304 303 303 298 294 295 294 290 288 284 293 296 298 298 292 300 304 304 305 307 311 313 314
313 313 312 311 311 311 311 311 313 314 315 316 308 303 301 314 304 304 301 301 304 305 304 308 300 296 295 289 285 285 281 284 289 295 295 294 291 298 302 303 303 305 306 311 314
313 312 312 312 311 311 311 312 312 312 313 314 311 300 304 302 304 304 303 304 303 302 301 300 294 290 287 285 280 284 283 286 287 293 294 291 292 296 299 299 298 299 302 306 310
313 312 311 312 312 311 307 302 297 299 304 301 305 303 307 306 306 302 305 304 303 298 290 293 287 284 287 289 291 290 288 287 291 294 292 291 292 295 297 296 296 297 299 301 304
312 312 312 311 312 311 303 301 301 301 294 303 303 304 307 306 298 301 306 297 296 289 292 289 285 291 293 293 291 290 287 287 291 294 292 291 291 294 296 296 297 298 299 300 301
312 312 311 311 310 306 301 305 305 303 291 298 303 302 302 301 297 298 302 298 293 289 289 285 289 294 292 291 290 289 287 288 289 293 294 290 288 291 295 296 297 298 298 300 301
311 311 311 310 304 302 302 307 304 302 287 296 295 298 300 299 295 303 303 298 293 289 289 288 292 292 291 290 292 286 293 292 291 288 281 289 280 287 291 291 295 296 297 297 299
311 311 310 309 299 299 307 305 305 301 279 297 295 302 299 295 297 300 304 298 291 291 289 287 288 289 289 291 294 289 293 291 291 287 284 285 279 285 289 289 292 294 296 298 299
309 309 308 305 301 303 307 303 303 289 281 292 297 295 293 295 296 299 298 299 297 291 290 290 294 292 293 295 294 294 291 289 287 284 277 283 281 282 286 288 291 295 297 299 299
308 308 306 306 300 305 303 300 287 283 296 291 291 294 292 293 295 296 293 290 286 282 283 289 289 292 296 290 291 288 285 277 276 275 276 284 282 284 290 293 295 296 299 301 302
306 306 306 306 304 305 299 293 283 291 290 296 294 293 290 293 293 293 291 287 292 290 283 281 280 289 294 289 284 284 284 277 275 275 278 286 279 284 292 298 300 301 300 301 301
305 301 304 307 309 301 295 283 286 290 293 291 292 289 289 293 291 290 288 289 292 291 282 280 283 293 294 294 290 285 280 286 282 281 275 279 285 290 298 297 298 297 299 298 300
296 299 303 309 305 299 291 289 292 296 295 293 287 291 286 289 288 287 287 294 293 295 291 287 281 291 292 293 292 289 290 280 281 272 272 279 281 282 291 293 295 295 296 298 300
298 298 305 303 303 296 285 290 295 299 297 293 290 288 289 288 288 288 289 292 295 293 293 288 284 285 289 286 284 285 283 287 283 282 277 276 278 292 292 294 294 295 297 298 300
294 292 305 302 291 290 288 294 297 297 298 295 294 292 290 290 288 289 288 292 297 295 288 290 285 281 285 291 292 290 286 285 276 279 282 279 280 295 294 294 295 297 298 299 302
291 294 304 301 283 285 291 294 296 295 295 294 291 293 293 288 285 291 291 295 297 294 291 290 283 280 280 284 288 286 287 286 285 285 279 278 280 295 296 297 296 298 299 301 304
293 288 291 293 291 287 287 290 291 298 296 295 293 293 289 288 289 287 289 294 294 294 301 296 286 282 278 282 284 284 287 289 287 282 281 282 285 291 294 295 297 298 300 302 305
292 288 289 282 286 287 287 291 291 291 294 292 290 290 287 283 286 286 289 290 293 296 293 290 284 286 287 289 289 288 288 288 285 286 283 285 286 291 294 296 298 300 301 303 304
288 288 290 287 289 287 289 288 289 291 290 289 287 290 288 284 286 285 287 287 288 292 288 290 284 287 285 289 289 287 289 289 288 289 288 288 287 295 297 299 299 301 302 302 305
294 294 290 287 286 284 284 288 289 290 291 293 290 288 287 289 292 292 292 291 291 288 287 287 286 286 280 287 286 282 286 287 289 291 289 284 290 295 295 296 297 299 302 303 303

GFSSW_sfc_thetae_069.txt.gz
Theta_e
314 314 313 313 313 313 313 313 314 314 315 316 316 317 317 317 317 307 301 305 312 322 322 307 304 304 302 300 306 309 299 296 299 300 301 308 306 309 313 309 312 311 312 319 333
313 313 313 313 313 313 313 313 314 314 314 315 316 316 316 317 309 304 314 322 324 323 300 300 300 300 296 298 300 301 294 299 307 307 305 309 307 309 309 310 310 311 315 319 327
313 313 313 313 313 313 312 313 313 314 314 314 315 315 316 316 303 306 324 324 326 321 306 303 302 298 293 295 296 299 297 304 306 306 307 306 306 310 308 306 309 309 311 313 316
313 313 313 312 312 312 312 312 313 313 314 314 314 316 317 309 293 307 327 329 326 316 309 305 299 291 291 291 295 290 297 298 300 303 304 303 306 305 307 308 313 313 314 313 314
311 312 313 312 312 311 311 312 312 313 313 314 315 316 309 301 304 314 330 327 320 314 306 302 294 291 286 290 293 291 294 297 298 298 298 300 299 300 301 306 309 310 312 313 313
313 313 313 312 312 311 311 311 311 312 313 314 315 317 304 292 310 314 315 314 312 306 302 300 295 297 291 290 289 293 293 294 296 296 297 297 299 301 303 307 307 307 307 310 312
313 313 313 312 311 311 312 311 311 312 313 314 316 314 302 293 308 308 314 304 305 306 300 301 301 296 294 291 293 293 288 292 294 296 295 299 294 296 303 305 304 306 307 309 312
312 313 313 312 312 311 312 312 312 313 314 314 317 308 296 307 310 306 304 303 303 304 302 302 300 296 292 293 292 288 285 281 289 293 295 296 290 298 302 302 303 303 305 307 307
313 313 313 311 312 312 312 312 313 314 315 315 306 301 299 314 303 305 301 299 301 303 303 307 298 293 293 287 284 285 280 283 287 293 293 292 288 296 299 299 299 300 301 303 302
314 313 312 311 311 312 311 311 311 311 313 314 310 299 302 302 303 303 301 302 300 300 299 298 292 288 286 284 279 283 282 285 285 290 292 290 291 295 298 298 298 298 299 301 302
313 313 311 311 312 311 307 300 296 295 302 297 303 302 306 310 305 300 303 302 301 295 288 291 286 283 286 288 289 288 286 285 289 292 290 289 290 294 296 295 295 297 298 299 300
312 312 311 311 311 311 302 300 300 299 293 301 301 304 307 307 299 299 304 296 294 288 290 287 283 290 291 291 290 288 285 285 289 294 292 290 290 294 295 294 295 296 297 298 299
311 311 311 310 310 304 300 302 306 300 291 297 301 300 300 302 298 296 300 296 291 287 287 284 288 293 290 289 289 287 285 286 287 291 292 289 287 289 292 294 296 295 296 297 297
309 309 309 309 303 299 301 306 303 300 287 294 295 299 299 297 294 301 302 297 291 288 288 286 290 290 288 289 290 284 291 291 289 286 280 289 279 286 289 290 292 294 293 295 296
308 309 309 308 298 299 304 304 301 301 278 297 294 300 296 293 295 298 302 296 290 290 288 286 287 287 287 289 293 288 292 289 289 286 283 284 279 283 289 288 289 291 293 294 300
309 308 308 304 300 303 305 301 302 287 280 291 296 294 292 294 295 297 297 297 296 289 289 288 292 290 290 294 293 293 288 287 285 281 276 283 281 283 284 286 289 292 298 300 301
307 308 305 305 299 302 302 299 286 281 294 289 290 292 291 292 293 294 292 289 285 281 281 287 287 290 295 289 290 286 281 274 274 274 275 283 280 283 289 292 293 296 298 299 300
306 306 305 305 301 303 298 292 282 289 289 294 292 291 289 292 291 292 290 286 292 288 282 280 279 288 293 288 285 284 281 274 271 274 276 284 278 282 290 297 299 300 299 300 299
304 299 302 305 307 299 294 283 284 288 292 290 291 288 288 291 290 289 287 288 290 289 282 279 282 292 293 292 289 284 279 283 278 279 274 278 283 289 292 296 297 296 298 296 298
296 299 301 306 302 299 290 288 290 296 295 292 286 289 284 286 286 286 286 293 291 293 290 286 280 289 291 292 291 287 288 279 275 269 271 278 279 281 286 289 294 295 295 297 299
298 297 304 300 302 295 284 288 293 297 297 291 288 287 287 286 286 285 287 291 294 292 291 287 284 284 288 285 283 283 281 283 280 282 276 274 278 287 289 292 293 294 296 297 299
294 291 303 301 291 287 286 291 296 295 298 293 292 291 288 288 286 287 287 290 295 293 287 289 284 280 284 290 291 288 284 283 275 277 279 278 279 291 292 293 294 294 297 298 299
291 293 303 298 281 283 288 292 294 294 293 293 290 291 291 287 284 289 289 294 294 291 288 289 283 279 280 283 287 286 287 286 284 284 279 277 280 292 294 294 296 295 297 299 299
292 286 290 290 289 285 285 288 290 297 294 293 291 291 288 285 287 286 287 293 293 292 298 295 286 284 279 281 283 284 287 287 284 281 280 281 284 289 291 293 295 296 299 302 300
289 286 288 282 284 285 286 288 289 289 292 291 288 289 286 282 284 284 288 288 291 295 291 288 281 284 286 288 288 287 287 288 286 286 281 284 284 288 291 293 296 300 301 302 301
289 287 288 285 288 286 287 287 287 289 288 287 285 288 287 283 285 284 285 285 285 289 287 287 283 288 284 288 288 286 288 288 289 288 287 287 286 292 295 296 298 299 300 301 302
293 293 290 286 284 283 283 287 287 288 290 291 288 286 285 287 290 291 291 290 289 287 285 284 282 282 280 286 285 281 286 287 287 289 288 284 288 293 293 295 295 296 297 300 301

GFSSW_sfc_thetae_072.txt.gz
Theta_e
314 314 313 313 313 313 313 313 313 313 314 315 315 316 316 316 315 305 300 304 310 319 322 305 301 301 300 297 302 307 300 296 298 299 301 307 306 309 312 309 311 311 311 315 332
313 313 313 313 313 312 312 313 313 313 314 314 315 315 316 316 308 303 312 318 320 322 297 297 297 298 294 295 298 299 294 299 305 305 304 306 307 308 308 307 308 310 314 315 329
312 312 312 313 313 312 312 311 312 313 314 314 314 315 316 316 302 303 324 324 327 318 304 302 301 297 291 293 294 295 294 302 304 305 306 304 304 307 305 303 307 307 309 311 315
313 314 314 313 313 312 311 311 311 312 313 313 314 315 317 306 292 306 327 326 324 312 307 303 297 289 289 290 293 288 295 295 297 299 298 298 301 300 302 303 308 307 306 311 311
313 313 313 313 312 311 311 312 311 311 312 313 314 315 308 297 302 313 329 324 316 311 303 300 293 290 287 290 291 289 291 295 297 297 297 299 298 299 300 304 307 307 306 306 309
313 312 312 312 312 312 311 311 311 310 311 313 314 317 301 289 304 310 315 314 312 306 301 300 294 295 290 289 290 292 291 293 296 296 297 297 298 299 302 305 305 306 305 305 306
313 312 312 312 312 312 312 313 312 312 312 314 315 313 300 291 306 308 310 304 304 305 299 299 298 295 293 289 291 292 287 290 293 294 293 296 293 295 301 304 303 304 304 304 305
312 312 312 312 312 312 313 313 312 313 313 314 316 307 293 304 307 309 305 304 303 303 301 300 300 294 291 291 291 286 284 280 287 292 294 294 288 296 299 300 300 301 301 302 302
312 312 312 312 312 313 313 312 313 313 314 315 304 299 298 312 303 304 301 298 299 301 301 305 297 292 292 286 283 284 280 281 286 291 291 291 287 295 299 298 298 299 300 301 301
311 311 310 310 311 312 311 311 312 313 313 314 310 297 300 301 306 301 300 300 298 298 297 295 291 287 285 283 278 281 281 284 284 289 290 289 290 293 297 297 297 298 299 300 301
310 311 311 310 310 311 307 299 296 294 302 295 299 300 304 308 306 299 301 300 299 294 287 290 286 282 285 287 287 286 285 284 287 291 289 288 289 292 295 295 295 296 298 299 300
310 310 309 310 310 310 301 299 299 298 292 300 299 303 306 306 298 301 302 294 293 287 289 286 282 288 290 289 288 286 284 283 288 292 290 288 289 293 294 294 294 295 296 297 300
309 309 309 309 310 302 299 301 304 299 290 295 299 298 299 302 297 297 299 295 290 286 286 284 287 292 289 287 287 286 284 284 286 289 290 288 285 287 291 293 294 295 296 296 297
307 308 309 309 302 298 299 304 302 299 286 292 294 297 299 297 294 301 300 296 290 287 287 285 289 289 286 287 288 283 289 289 288 284 278 288 277 285 289 290 291 292 292 293 294
308 308 309 308 297 298 302 302 300 299 277 294 292 298 294 292 294 296 301 295 289 288 287 286 285 286 285 287 291 286 290 288 287 283 281 283 278 282 287 286 289 291 291 294 299
307 308 308 303 298 301 303 300 301 285 278 290 294 292 291 293 294 296 295 297 295 289 287 287 290 288 288 291 292 291 286 284 282 280 274 280 280 279 283 286 289 291 294 299 300
307 308 304 304 297 300 300 298 285 280 292 288 289 291 289 290 292 292 291 288 285 281 281 286 286 289 293 287 288 285 280 274 273 273 274 281 279 282 287 291 291 292 296 299 299
306 305 305 304 301 302 298 290 280 287 287 293 290 290 287 290 290 290 288 285 290 287 282 281 280 286 292 287 284 283 281 274 270 272 274 281 277 281 289 292 296 299 298 299 298
304 300 301 304 305 299 293 281 283 287 291 289 289 286 286 290 289 288 285 286 289 289 281 279 283 291 292 291 289 283 278 282 277 276 273 277 281 287 291 291 296 296 297 296 296
297 299 300 301 301 297 290 287 289 295 294 290 285 288 283 285 285 285 285 291 290 292 289 285 280 288 290 290 289 286 287 278 274 269 267 275 278 280 286 289 291 294 294 295 297
297 296 302 301 301 294 284 287 292 297 295 290 287 285 286 285 286 284 286 289 293 291 289 286 283 284 287 285 283 282 280 282 278 275 271 273 277 286 286 288 290 292 294 295 296
294 290 301 299 290 285 285 290 296 294 296 293 290 288 287 287 285 285 286 289 294 292 286 287 282 279 283 289 289 285 283 282 275 276 278 277 279 290 291 292 293 294 296 296 298
291 292 301 297 281 282 286 290 293 293 292 291 290 290 289 286 283 287 289 292 293 290 288 288 282 277 279 281 286 283 285 284 284 282 279 277 279 291 292 293 294 294 296 298 300
290 285 288 289 288 285 285 286 289 295 293 292 290 290 286 284 286 285 286 292 292 291 297 294 284 282 277 280 281 281 285 287 286 280 280 281 282 287 290 291 293 295 298 299 301
289 285 286 280 282 284 285 287 287 288 291 289 287 287 285 281 283 283 286 287 290 293 290 287 281 284 286 287 287 286 286 287 285 285 282 284 284 287 290 291 294 297 299 299 299
287 285 286 283 286 284 286 285 286 288 287 286 284 287 285 282 284 283 285 283 284 288 286 290 282 284 283 287 286 284 286 287 287 287 287 287 286 294 294 295 296 296 297 297 300
291 291 290 286 283 282 282 286 287 287 289 290 287 285 284 286 288 288 288 289 288 286 285 284 282 282 278 284 284 280 285 286 287 288 288 283 288 291 293 294 294 295 297 298 299

GFSSW_sfc_thetae_075.txt.gz
Theta_e
313 313 313 313 312 312 312 312 313 313 314 315 315 316 316 316 316 311 304 308 313 322 321 306 305 306 306 305 310 316 304 299 301 301 303 311 309 312 316 314 315 316 316 317 321
314 314 314 313 313 313 312 312 311 312 313 314 315 315 316 315 311 307 315 316 319 323 302 301 303 304 301 302 307 307 301 301 308 308 307 309 309 308 309 311 311 314 317 316 317
314 314 314 314 314 313 312 312 311 312 313 314 314 315 316 316 307 307 324 323 324 318 308 306 307 303 299 302 303 304 300 306 308 309 307 307 305 309 308 306 311 310 310 313 315
314 314 313 313 313 313 312 312 312 312 312 313 314 314 315 313 297 312 328 326 325 314 310 308 304 299 298 297 300 297 301 300 305 303 301 301 302 302 305 307 310 309 312 312 313
313 313 313 313 313 312 311 312 311 311 311 312 313 314 312 301 305 315 328 324 317 312 307 304 301 298 296 297 298 297 297 299 301 301 301 302 300 301 304 308 308 309 311 311 312
312 312 313 313 313 312 311 311 313 311 311 311 313 315 307 294 310 314 319 318 314 311 306 306 302 302 299 297 297 298 298 298 300 300 301 299 301 301 304 307 306 307 309 310 312
313 312 312 312 312 312 312 312 313 312 312 313 314 314 303 297 311 313 314 310 310 309 304 305 305 301 300 296 299 298 294 296 297 299 298 300 297 298 302 304 304 308 311 309 309
313 312 311 311 311 311 312 312 312 312 313 314 315 312 299 306 311 313 312 310 310 309 306 306 306 302 300 300 297 294 293 290 295 297 298 298 293 298 302 302 302 303 304 306 308
311 310 311 311 311 312 312 312 314 314 314 315 311 307 302 315 307 307 309 304 303 305 306 305 304 299 299 295 293 292 289 289 292 298 297 296 293 299 302 301 301 303 303 305 306
310 311 310 310 311 311 311 311 315 316 314 315 312 303 306 304 310 306 306 304 301 303 301 301 299 297 295 293 286 287 288 290 290 295 296 295 295 298 300 300 300 301 302 303 305
309 309 310 310 311 311 310 307 304 301 308 300 301 302 304 310 310 303 305 303 303 300 294 296 294 291 292 293 292 291 290 289 292 296 294 294 294 296 299 299 299 300 302 304 305
308 309 309 309 310 311 307 305 303 305 297 302 303 303 306 308 301 304 306 299 298 293 294 293 290 294 294 293 291 291 289 289 292 295 294 293 293 297 299 300 301 300 301 303 304
307 308 308 309 310 307 306 306 308 304 297 299 301 301 302 305 300 301 303 299 296 293 293 290 292 295 293 292 291 291 290 290 289 293 294 293 291 293 297 299 300 301 303 303 301
307 308 308 309 306 304 305 308 308 306 293 294 297 301 303 303 297 305 304 300 295 292 292 292 294 292 292 291 293 288 293 292 291 289 284 292 283 291 294 296 297 299 301 302 301
307 309 309 308 305 305 307 308 307 306 282 296 296 304 300 297 298 299 303 300 294 293 292 290 292 291 290 291 294 290 294 292 291 289 288 288 285 289 294 292 295 299 301 302 303
308 309 308 307 306 308 308 307 308 293 282 292 297 295 296 297 297 299 298 301 299 294 293 293 295 294 293 294 296 295 292 291 289 288 282 286 285 286 290 293 295 298 300 302 305
308 308 307 306 304 306 307 306 294 286 294 291 292 294 293 293 294 295 294 293 291 287 288 291 292 294 296 292 293 292 289 283 281 281 281 287 285 288 294 296 297 297 300 304 306
306 306 307 307 309 308 306 299 287 290 289 295 293 293 291 293 293 293 292 291 294 291 289 286 284 291 295 293 290 290 289 283 276 278 281 287 282 288 295 297 299 300 303 305 305
305 308 309 310 309 306 302 292 290 290 294 292 292 290 290 292 292 292 291 291 293 295 289 287 286 294 295 295 294 289 286 290 285 285 281 284 287 292 295 296 298 299 302 302 304
304 307 308 307 307 305 298 291 292 296 296 294 288 291 287 289 289 290 290 293 293 296 296 291 285 292 293 295 294 292 293 285 286 277 275 281 283 284 290 293 296 297 299 302 304
304 304 308 305 308 302 294 292 295 299 297 294 290 289 290 289 290 289 290 293 296 295 296 293 289 288 291 290 288 289 288 289 288 285 279 277 283 293 293 295 296 298 301 301 303
302 298 307 306 297 293 292 293 295 295 298 296 294 293 291 291 290 290 289 292 297 297 291 294 291 285 287 293 294 292 290 290 283 281 285 283 283 296 296 297 299 299 300 302 306
297 298 307 303 292 290 291 291 293 293 295 294 292 293 293 291 288 291 292 296 297 296 293 295 289 283 284 288 291 289 290 290 290 288 283 280 284 296 297 297 298 298 300 303 304
295 292 295 295 293 290 288 288 290 297 295 294 293 294 291 290 292 290 290 294 295 294 297 296 290 286 281 284 289 286 289 290 289 283 285 285 287 292 295 296 298 299 301 304 304
294 291 291 287 288 289 289 289 288 289 293 294 291 291 289 287 288 288 290 291 293 295 294 293 286 288 289 290 289 288 288 288 287 289 284 287 288 292 295 297 299 301 303 302 303
292 291 292 290 290 289 289 288 288 289 290 289 289 290 290 287 289 287 289 289 288 292 292 294 286 288 285 289 289 287 289 290 289 290 289 289 289 297 299 300 299 300 301 301 302
295 295 294 289 288 287 287 288 289 289 291 292 291 289 288 289 292 293 293 293 292 290 290 290 288 285 281 286 286 283 288 289 290 292 292 288 293 298 297 298 299 301 301 301 302

GFSSW_sfc_thetae_078.txt.gz
Theta_e
316 316 315 315 315 314 313 312 313 312 313 315 315 316 316 317 316 317 310 311 314 325 319 311 310 310 310 310 314 316 307 303 305 305 307 312 309 314 318 316 318 319 320 322 324
315 315 315 315 315 314 314 313 312 313 312 314 315 315 316 316 315 314 319 316 322 322 308 305 306 308 307 307 310 310 305 305 310 311 310 312 311 313 312 313 315 319 322 322 322
315 315 315 314 315 315 314 313 313 312 313 313 314 315 315 317 313 308 324 322 322 322 311 308 309 307 304 307 307 308 304 308 309 312 314 312 312 313 311 310 314 317 317 318 320
314 314 314 314 315 314 314 313 313 313 313 313 313 315 316 316 301 314 327 326 325 316 314 310 307 303 302 302 306 302 307 308 309 312 311 309 313 310 311 312 314 319 318 317 318
314 314 314 314 314 314 313 313 312 313 312 312 312 315 316 306 308 321 328 324 317 314 309 307 304 303 300 302 303 302 304 305 307 307 307 309 308 308 309 313 310 314 315 315 316
314 314 313 313 312 312 312 313 313 313 313 312 314 315 311 298 314 317 318 316 314 312 308 308 305 306 302 302 301 303 303 303 305 305 306 304 305 307 308 309 308 314 317 317 315
313 312 311 311 312 312 312 312 312 312 312 314 314 316 307 301 315 318 317 313 312 310 306 308 308 304 304 301 303 302 299 302 303 304 303 305 301 302 308 307 307 307 310 315 316
311 311 311 311 311 312 313 313 312 313 313 314 315 315 303 309 316 315 316 312 313 312 310 310 309 305 303 304 301 298 299 295 301 300 302 301 297 304 307 306 305 305 305 309 310
311 310 310 310 311 312 312 312 315 315 314 315 315 312 303 316 310 311 314 307 308 309 310 308 308 304 302 298 296 298 292 294 296 301 300 300 298 304 306 306 305 306 305 306 309
309 309 309 310 310 311 311 312 316 317 316 317 315 308 308 304 310 310 311 309 305 306 305 305 304 300 300 297 290 293 293 294 294 299 299 298 298 303 305 305 305 306 306 305 307
309 309 309 309 310 311 313 315 310 309 311 305 304 304 306 311 313 308 309 306 306 304 298 301 297 295 297 297 297 296 294 293 296 299 297 297 298 301 304 304 304 305 305 307 307
308 309 309 309 310 311 314 309 308 309 302 307 306 306 309 310 303 306 309 302 301 297 299 297 294 299 298 297 295 295 294 294 297 298 297 297 296 300 302 303 304 305 306 306 307
308 309 309 309 310 312 312 309 314 311 303 302 306 304 305 308 302 303 306 303 299 297 297 294 296 298 296 295 294 295 293 294 293 296 298 296 295 298 301 303 304 305 306 307 307
308 309 310 310 309 315 311 314 314 313 299 298 301 304 306 306 300 307 307 303 299 296 297 296 299 296 295 294 295 291 296 294 293 293 289 296 287 295 299 300 301 303 304 306 306
308 310 310 308 315 312 312 316 315 312 288 298 300 309 305 301 301 302 308 304 297 297 297 294 295 295 294 295 297 294 297 295 295 293 292 292 290 294 298 296 299 302 303 305 306
308 309 309 313 317 313 316 315 314 298 287 295 300 299 299 301 301 302 302 305 304 299 299 297 302 298 297 298 298 298 296 296 295 293 286 291 291 291 295 297 300 302 302 304 307
308 308 310 313 311 316 316 312 299 291 298 295 295 298 298 297 299 299 299 298 295 292 292 296 296 299 299 295 298 297 294 287 285 286 285 292 289 292 297 299 299 300 302 304 306
306 306 311 316 317 317 313 304 292 295 295 298 297 298 295 298 298 298 297 295 299 297 293 290 289 296 299 297 294 295 294 287 280 283 286 292 286 294 299 300 301 303 304 305 307
305 317 318 320 317 315 307 296 295 295 297 296 297 294 294 296 295 295 295 295 298 299 292 291 291 298 297 299 298 294 290 295 289 290 286 289 293 297 299 298 300 301 303 304 306
312 314 315 314 316 312 302 295 297 299 299 298 291 294 291 293 292 293 293 296 295 299 301 296 289 296 297 298 299 296 297 288 289 281 280 287 288 290 294 296 298 300 302 304 307
313 308 313 315 315 306 297 297 298 301 301 296 294 293 294 293 294 293 293 296 298 297 300 298 294 292 295 293 292 293 291 292 292 290 284 283 288 297 296 298 299 301 303 305 305
308 300 314 315 300 304 297 297 295 297 299 297 298 296 294 295 293 293 293 296 299 299 295 298 294 289 291 297 298 296 293 293 286 286 289 288 288 300 299 300 301 302 304 305 306
300 303 314 310 295 296 297 295 295 295 295 296 296 297 297 295 291 294 295 299 299 298 295 297 292 286 288 293 295 292 294 294 294 293 288 285 288 300 301 301 303 303 304 305 307
300 297 302 305 301 294 292 292 292 298 297 299 297 298 296 294 297 293 294 297 298 299 298 298 294 288 285 288 292 289 291 293 292 286 288 288 291 296 299 300 302 304 305 306 307
299 297 298 294 296 293 293 293 291 290 296 297 294 295 294 291 292 292 294 295 296 297 298 297 290 292 292 292 291 290 290 292 290 292 288 290 291 296 299 300 302 304 305 305 306
296 295 299 295 295 293 292 292 291 292 293 291 292 293 294 291 292 290 293 293 293 296 294 296 288 291 288 291 290 288 291 292 292 292 292 292 292 300 301 303 302 303 304 304 305
299 301 297 296 293 292 291 290 290 293 292 294 294 293 292 294 296 296 296 296 295 293 292 291 289 287 284 290 289 286 290 292 293 294 294 290 295 300 300 300 302 303 304 304 305

GFSSW_sfc_thetae_081.txt.gz
Theta_e
316 316 316 316 316 316 316 314 314 313 314 314 315 316 317 317 317 317 315 312 316 324 320 312 313 312 313 312 315 317 306 304 305 306 308 314 311 315 317 314 316 321 322 323 326
315 316 316 316 316 316 316 315 314 314 314 314 315 315 316 317 316 316 319 322 323 322 316 308 307 311 309 309 312 310 306 305 311 312 310 313 314 312 314 313 315 318 323 325 325
314 315 315 315 315 316 315 314 313 314 314 314 315 315 316 317 316 313 324 321 322 322 316 310 310 310 307 309 309 309 305 310 311 312 313 312 313 316 313 311 314 315 319 323 322
314 314 315 315 315 314 314 314 313 313 314 314 314 314 316 317 305 317 326 324 325 322 316 312 308 306 304 304 309 304 308 309 310 312 311 311 315 313 315 314 317 317 319 322 322
314 314 314 313 313 313 313 313 313 313 313 314 314 315 317 311 310 322 327 324 321 316 311 309 307 306 303 306 307 305 306 308 310 309 310 313 311 312 313 317 318 317 315 320 322
312 312 312 312 312 312 313 313 313 313 313 313 314 315 316 304 317 322 320 317 316 313 310 310 308 309 305 305 304 307 306 306 308 307 308 306 307 308 310 316 315 315 313 316 320
311 311 311 311 312 312 313 314 314 313 314 314 315 316 311 306 316 320 317 315 314 312 309 310 311 307 307 304 308 305 301 304 305 306 305 307 303 304 310 313 312 312 312 313 318
311 311 310 311 311 312 313 313 314 314 314 315 316 317 308 312 317 315 317 313 314 313 311 312 311 308 306 308 304 301 301 297 303 305 306 305 298 306 310 311 310 310 311 311 311
310 310 310 310 311 312 312 313 316 316 315 316 317 315 307 313 310 314 315 310 310 311 311 310 308 305 306 300 298 300 295 297 300 304 303 303 299 306 310 309 309 310 311 311 311
310 310 310 310 311 311 312 313 315 315 317 319 318 309 312 305 310 311 314 311 307 307 307 306 305 302 302 298 292 295 296 298 297 302 302 300 300 304 308 308 308 309 310 311 311
310 310 310 310 310 311 313 317 314 313 315 310 307 308 308 312 314 310 312 309 308 306 301 305 300 297 300 302 301 299 297 296 300 302 300 299 300 302 306 306 307 308 309 310 311
309 310 310 310 311 311 314 312 310 312 305 310 308 308 310 311 305 308 311 303 303 299 303 300 296 301 302 301 299 298 295 296 299 302 300 299 299 302 304 305 306 307 308 309 310
309 309 311 311 311 313 315 312 317 315 306 305 307 306 307 309 305 305 308 305 301 300 300 297 300 301 300 298 296 297 295 296 296 299 300 298 296 300 304 306 307 308 309 309 310
309 310 311 311 308 318 314 316 317 317 301 301 302 306 308 308 303 310 310 306 302 299 300 300 302 298 297 296 298 294 299 298 296 295 290 299 289 298 302 302 304 306 307 308 310
309 310 311 309 319 314 315 316 317 316 292 302 303 312 308 304 304 305 310 306 300 300 300 297 299 297 295 297 299 296 299 298 297 295 294 294 291 296 301 299 302 305 307 308 310
309 309 310 315 319 315 316 317 317 301 291 298 303 301 302 303 303 305 305 307 306 301 302 300 304 301 299 300 300 300 297 297 297 295 288 293 293 293 297 300 302 305 305 305 308
307 308 310 317 313 318 319 315 301 294 302 298 298 301 301 300 302 303 301 301 298 294 295 299 299 302 302 298 300 299 295 288 286 286 286 296 292 295 299 301 302 304 304 305 308
306 306 313 317 320 319 316 306 294 299 299 302 300 300 297 301 301 301 299 298 302 300 296 293 291 299 302 299 296 296 295 289 282 284 287 293 289 295 301 303 304 303 305 307 307
304 317 319 322 320 318 308 298 298 300 300 298 299 296 297 300 298 298 298 297 300 301 295 293 293 301 301 302 300 296 292 297 291 291 286 290 295 299 302 301 302 303 305 306 308
312 314 315 320 321 314 305 297 301 302 302 300 294 297 293 296 297 297 296 299 297 301 303 298 291 299 300 302 301 298 299 290 291 283 282 287 289 290 296 299 301 301 303 305 307
315 309 316 321 318 307 298 300 302 304 302 298 297 295 296 295 296 295 296 299 301 300 302 299 296 295 298 295 294 295 293 294 293 290 284 283 286 298 297 300 300 302 305 306 307
311 303 316 317 303 305 299 300 296 299 301 299 299 298 296 296 295 295 295 298 302 301 296 300 296 291 293 299 300 298 295 293 287 287 289 288 288 301 301 302 303 303 305 307 309
304 305 317 310 298 300 302 300 300 298 297 297 297 300 301 297 293 296 297 302 302 300 298 299 294 288 291 295 297 294 296 296 295 294 289 287 289 302 302 303 304 304 306 307 308
302 299 306 307 306 299 298 297 296 300 298 300 299 300 298 296 298 295 296 300 301 300 300 300 295 291 286 290 291 288 293 295 294 289 289 290 291 297 299 301 303 305 307 307 308
305 301 301 297 300 300 299 298 296 296 299 300 297 297 296 293 295 294 297 298 299 302 299 299 289 291 292 293 294 293 292 292 291 293 288 292 291 294 299 300 302 305 306 306 307
297 297 299 296 301 299 298 296 295 295 296 295 295 295 296 293 294 292 295 296 295 299 296 297 290 291 289 292 292 290 292 292 293 293 293 293 292 300 302 302 302 304 304 306 306
301 302 298 296 298 296 297 295 294 296 296 297 295 294 293 294 297 298 299 299 297 294 293 293 291 290 285 291 290 287 292 292 294 295 294 290 294 300 298 301 303 304 306 305 306

GFSSW_sfc_thetae_084.txt.gz
Theta_e
316 316 316 316 316 316 316 315 315 315 315 315 315 316 317 317 317 315 312 317 319 326 318 309 312 313 312 310 312 313 303 301 303 304 306 312 311 315 316 313 314 317 320 324 327
315 316 315 315 316 316 315 315 315 315 315 315 315 316 316 317 314 312 321 330 327 322 311 310 307 309 307 307 308 306 302 303 308 309 309 312 312 313 313 312 312 314 319 325 327
315 315 315 315 316 315 315 314 314 314 315 315 315 315 315 316 313 314 327 328 327 320 315 313 309 308 306 308 307 306 302 307 309 311 312 310 310 314 312 310 313 313 317 321 324
313 314 314 314 314 313 313 313 314 315 315 315 315 315 316 314 304 312 328 325 324 318 318 313 309 304 303 303 307 302 306 308 309 311 310 308 312 310 313 314 318 318 320 319 319
312 312 312 312 312 313 313 313 314 314 314 315 315 315 315 312 310 317 330 325 319 317 314 310 307 306 302 304 306 304 305 307 308 309 308 309 308 309 311 316 319 319 319 316 316
311 311 311 312 312 312 312 313 314 314 314 314 315 315 312 305 319 317 317 316 316 313 312 310 308 309 305 304 303 306 306 306 307 307 308 305 306 308 311 316 315 317 317 316 315
311 311 311 311 311 312 312 314 314 314 315 315 316 315 309 309 315 319 318 315 316 312 308 311 310 307 306 303 307 305 301 303 304 305 305 307 302 303 309 311 310 311 315 316 316
311 311 310 311 311 312 313 313 314 316 316 316 316 315 307 316 316 315 317 314 314 313 311 311 311 307 305 306 304 300 301 296 302 304 305 304 297 305 309 309 308 309 312 313 314
310 311 310 311 311 312 312 312 314 318 318 316 314 313 308 314 308 314 315 311 312 311 311 311 308 303 304 299 297 299 293 295 298 304 304 303 299 305 308 308 308 310 311 312 313
310 311 310 311 312 312 312 312 318 314 316 317 317 309 312 309 309 312 315 313 308 308 307 306 305 300 300 298 290 293 295 297 297 302 303 300 299 304 306 306 308 308 310 311 312
310 310 310 312 312 312 312 317 312 312 315 311 310 310 310 311 314 310 312 309 308 305 299 304 299 296 299 301 301 300 298 296 299 303 301 300 300 302 305 305 305 308 309 311 312
310 310 311 312 312 312 312 314 311 311 304 312 313 309 311 312 305 308 312 304 303 298 302 300 296 301 302 301 299 299 296 295 298 301 300 299 298 302 304 304 306 307 308 310 312
310 310 311 312 312 311 316 312 317 316 304 308 310 306 307 310 304 306 308 305 300 299 300 297 300 303 301 299 297 297 295 295 295 299 300 298 296 299 302 305 306 308 309 310 311
310 310 311 311 309 317 314 317 316 318 299 304 303 305 308 308 303 310 311 306 302 298 300 299 303 301 299 296 298 293 299 298 296 295 290 298 288 296 300 302 305 306 307 309 310
309 310 310 310 314 314 315 317 317 315 291 303 304 312 309 304 305 305 311 306 299 299 300 297 299 298 297 297 299 295 300 297 296 294 293 293 290 294 300 298 302 306 307 308 310
309 309 309 316 316 319 317 318 317 301 292 300 304 302 301 304 304 306 305 308 306 300 301 300 304 301 300 301 301 301 297 297 296 294 287 291 291 292 296 299 302 305 306 308 308
308 307 307 315 311 318 317 313 300 294 305 300 299 302 301 300 302 303 301 300 297 294 294 299 300 303 303 298 301 299 294 287 285 286 285 294 291 294 300 301 303 304 305 306 307
306 305 310 315 318 320 315 305 293 300 301 305 301 301 297 300 300 301 300 297 302 300 296 292 290 299 303 299 296 296 295 288 280 283 286 294 287 292 301 304 305 305 307 306 306
304 316 314 319 322 317 307 296 297 301 303 300 300 296 296 300 300 299 298 297 299 300 293 292 292 302 302 303 301 297 293 297 290 291 286 290 294 299 302 303 303 303 304 305 306
305 314 315 324 321 313 302 296 300 305 304 301 294 297 293 296 296 297 297 301 299 302 302 297 290 298 300 302 302 298 300 290 292 282 281 287 289 290 296 299 301 301 303 305 308
308 311 317 321 318 306 296 298 302 306 304 298 295 295 296 294 295 294 295 299 301 300 302 299 295 294 298 296 294 295 294 294 293 291 284 282 286 298 298 300 301 303 303 305 306
308 303 317 317 301 304 300 303 301 302 304 301 300 298 296 296 295 295 295 298 302 302 297 300 296 290 293 299 300 298 294 294 288 286 289 288 288 300 301 302 303 303 304 306 308
301 305 317 312 296 299 302 301 301 300 299 298 297 299 300 297 293 296 297 301 302 301 298 300 294 287 289 294 298 293 294 294 293 293 288 286 288 300 303 301 301 302 303 306 308
303 298 307 307 306 300 298 297 296 301 300 301 299 300 298 296 298 295 296 300 302 302 303 301 294 290 285 288 293 290 293 294 291 286 289 289 291 296 299 300 301 302 303 304 308
305 301 303 295 298 298 299 298 296 295 300 299 297 297 296 292 293 292 296 297 299 303 301 297 290 292 292 293 292 291 291 292 290 290 287 290 290 295 299 301 303 302 303 305 305
297 296 299 296 300 299 298 296 295 296 295 293 293 295 295 292 293 290 293 294 294 298 297 297 289 292 289 292 291 289 291 291 291 292 293 292 292 299 301 303 302 303 304 305 306
303 302 297 295 297 296 295 295 295 296 296 297 295 293 292 294 296 297 297 297 296 293 293 292 290 288 284 289 289 284 290 292 293 295 294 290 295 301 299 301 302 303 305 305 306

GFSSW_sfc_thetae_087.txt.gz
Theta_e
315 316 315 316 316 315 315 315 315 315 315 316 316 316 316 317 316 311 307 316 316 324 323 306 305 306 308 303 304 304 294 293 297 299 301 307 304 308 312 309 312 315 314 318 322
314 314 315 315 315 314 314 314 314 315 315 315 316 316 316 316 310 307 318 328 328 325 307 303 301 304 300 299 300 297 292 294 301 304 302 304 305 306 308 307 308 311 315 317 320
313 313 313 313 313 313 313 313 314 315 315 315 315 316 315 315 306 310 331 329 329 322 309 310 310 301 295 298 298 297 294 300 302 305 306 305 305 308 305 305 308 308 312 316 318
312 312 313 312 313 313 313 313 314 315 315 315 315 316 316 311 298 307 330 330 326 314 311 312 308 294 293 294 300 295 300 302 303 306 305 304 305 304 304 306 313 313 315 316 315
312 312 312 312 312 312 312 313 313 315 315 315 315 316 311 305 306 318 331 328 316 313 311 309 303 298 293 296 298 297 299 302 303 302 302 304 302 302 303 308 316 315 315 314 312
311 311 311 311 312 312 312 312 314 314 315 315 315 316 308 298 314 317 318 315 313 311 311 306 301 302 297 297 295 299 299 299 300 299 300 300 301 302 304 307 309 313 312 312 311
311 311 311 311 311 312 313 313 314 314 314 316 316 314 305 302 314 314 313 310 312 312 306 306 305 301 300 296 300 299 294 297 299 299 298 302 298 299 304 306 305 306 308 312 312
310 310 310 311 311 312 313 314 314 314 317 317 316 310 302 314 311 310 312 311 312 310 307 307 306 300 296 299 298 294 292 287 295 300 301 298 293 301 304 304 304 305 306 307 310
310 311 311 311 311 312 313 313 314 317 318 317 309 306 304 314 307 309 310 309 310 310 308 310 302 297 298 291 288 290 286 289 293 299 299 297 294 301 304 303 302 303 305 306 306
310 310 310 310 312 312 312 312 314 315 314 314 313 304 310 308 309 309 310 310 308 306 304 301 297 293 291 288 282 287 288 291 291 296 298 295 295 298 301 301 301 301 303 305 306
310 310 311 312 312 313 310 309 305 305 309 306 309 307 310 311 312 307 310 308 307 301 293 298 291 289 293 295 295 295 293 292 295 299 295 294 294 296 300 299 298 299 300 303 305
310 310 311 312 312 313 307 306 307 305 299 310 312 312 314 311 305 307 310 301 299 293 297 293 289 297 300 299 296 294 292 290 295 298 295 293 293 296 298 298 299 300 301 301 304
310 310 310 312 312 307 307 312 312 309 298 303 308 308 308 306 303 304 306 303 298 294 294 291 295 301 299 296 294 292 291 291 291 295 296 293 291 294 298 300 301 302 303 303 302
309 309 310 310 308 310 309 316 309 312 291 300 304 305 305 305 301 309 309 303 298 294 295 293 298 298 296 295 295 288 296 295 294 290 283 292 283 291 294 297 299 301 302 303 304
309 309 309 308 305 306 309 309 311 309 285 302 302 308 305 301 304 304 309 304 297 296 296 293 295 294 294 295 297 292 297 294 293 289 286 288 284 289 294 294 297 299 302 302 303
309 308 308 310 308 310 315 311 309 295 287 298 302 300 299 301 302 304 303 305 303 296 296 295 300 298 296 299 299 299 294 292 290 286 281 287 286 287 291 294 298 300 302 303 302
308 308 304 308 305 312 313 307 293 289 305 299 298 299 298 297 299 300 298 295 291 287 288 294 295 299 301 295 298 295 288 281 279 278 280 289 288 289 295 299 299 300 301 301 302
306 306 306 306 311 313 310 299 287 297 299 304 302 300 295 297 297 298 297 294 297 296 292 289 287 297 301 297 294 293 292 285 278 276 282 290 284 289 299 300 302 303 303 302 299
304 309 308 311 313 313 302 289 292 298 301 299 299 295 294 297 296 296 295 295 296 297 290 288 289 299 299 299 297 293 289 293 287 288 282 283 289 295 299 298 301 301 303 299 300
300 305 311 318 318 309 297 293 296 301 302 300 292 294 289 292 293 293 293 298 297 300 299 293 287 296 298 299 298 294 297 286 287 280 277 283 285 285 292 295 299 299 300 301 302
302 304 315 318 314 302 291 294 299 304 302 297 295 293 293 292 292 292 293 298 301 299 299 296 291 291 296 292 290 291 288 289 290 285 280 278 281 292 293 295 295 298 300 300 301
299 297 314 315 298 299 296 301 300 300 302 299 298 296 294 294 292 293 293 297 302 300 294 297 292 287 290 296 298 294 291 290 285 283 285 285 284 298 297 296 297 299 302 302 303
295 299 313 310 291 293 299 298 300 299 299 298 296 298 298 293 290 294 295 300 301 299 296 296 289 282 285 288 292 291 291 292 291 289 284 282 284 299 298 300 300 299 300 302 304
297 296 304 304 302 295 294 295 295 301 299 300 296 296 294 292 295 292 293 297 299 298 308 301 290 287 282 286 289 287 290 291 290 284 284 286 287 292 296 297 298 298 300 301 303
301 296 298 292 292 294 296 296 294 293 299 298 294 293 292 287 289 289 292 293 296 299 297 293 286 289 290 292 292 290 289 289 287 288 285 287 289 292 295 297 296 300 301 302 302
294 293 296 292 296 294 294 294 293 294 295 293 291 292 292 288 289 287 290 290 289 292 290 292 285 289 287 290 289 287 289 289 289 290 289 290 289 296 298 298 298 300 301 303 304
301 300 297 294 293 291 292 294 292 295 295 296 294 291 290 292 294 293 293 292 291 288 287 286 284 281 279 286 286 281 287 289 290 291 292 286 291 297 296 297 297 298 300 302 303

GFSSW_sfc_thetae_090.txt.gz
Theta_e
313 313 313 314 314 314 314 314 314 315 315 316 316 316 317 317 315 309 302 310 315 324 323 305 303 302 304 300 301 301 291 288 292 295 299 305 301 305 311 310 314 312 313 318 318
312 312 313 313 313 313 313 313 313 314 315 316 316 316 316 316 308 305 313 327 330 329 305 300 299 300 297 297 298 295 288 291 297 299 299 303 301 303 306 306 306 309 313 316 319
312 312 312 313 313 313 313 313 313 314 314 315 315 316 316 315 304 308 328 328 330 323 305 306 307 304 294 294 295 293 290 295 299 300 302 302 302 304 304 301 305 307 310 313 316
312 312 312 312 313 313 312 312 312 313 314 314 314 315 316 309 296 306 334 332 330 313 308 309 306 294 291 290 295 291 296 298 299 301 301 300 304 301 302 302 308 310 312 314 313
311 312 311 311 311 312 312 312 313 313 313 314 314 315 309 302 305 314 333 330 317 310 309 307 302 298 290 292 294 292 296 298 300 301 301 302 300 300 300 305 311 312 313 313 311
311 311 311 311 311 311 312 313 313 314 313 314 314 315 306 292 307 318 318 316 311 307 308 306 303 299 294 293 292 295 295 296 297 297 297 297 299 299 302 305 305 307 309 311 311
311 311 311 311 311 311 312 314 314 314 314 315 315 313 304 297 311 315 314 309 309 310 307 304 302 299 296 294 295 296 292 294 294 296 295 298 296 297 302 303 302 304 307 311 310
311 311 311 311 311 312 313 313 313 314 316 317 316 309 298 310 308 307 309 308 310 309 306 305 302 297 294 294 295 291 289 285 292 296 298 296 291 298 302 301 302 303 303 304 307
311 311 311 311 312 312 313 313 314 315 318 317 307 304 299 317 310 309 309 308 309 309 306 309 300 295 295 289 285 286 283 286 290 295 296 294 291 298 301 301 300 301 302 302 302
311 311 311 311 311 312 313 313 313 313 314 314 311 301 307 307 306 307 306 309 305 304 302 300 294 291 289 286 281 284 285 288 288 293 294 291 291 295 298 299 300 299 300 302 304
310 311 311 311 312 312 308 305 303 303 306 302 306 304 309 312 309 304 307 305 305 299 291 295 289 286 290 291 293 291 289 289 292 297 293 291 291 294 296 297 297 297 298 299 301
310 310 310 310 311 312 304 302 308 302 296 307 309 307 312 314 306 305 309 300 298 292 294 291 287 294 296 296 294 293 289 288 292 295 293 292 291 295 296 296 297 298 298 298 299
310 310 310 310 310 305 304 308 314 307 296 302 307 307 308 310 306 303 305 301 296 292 291 288 292 298 296 294 293 292 289 288 289 293 293 291 288 291 295 297 299 299 299 300 300
310 310 309 308 305 305 304 311 308 307 290 297 302 305 306 305 300 307 307 302 296 293 293 290 295 295 294 292 293 287 294 293 292 288 282 290 282 287 292 293 296 298 297 298 299
310 310 309 307 299 301 308 310 309 306 282 304 302 307 303 299 302 303 308 301 295 294 293 291 293 292 292 293 295 291 296 293 292 287 284 286 282 285 290 291 294 296 298 299 301
310 309 308 305 302 306 310 309 306 293 286 298 300 298 296 299 300 303 302 303 301 295 294 294 297 295 294 297 296 297 292 290 287 284 279 284 283 285 288 291 293 298 299 301 302
309 308 305 305 299 305 306 304 292 286 303 297 298 298 296 295 297 298 297 294 291 286 286 293 293 297 298 292 295 292 285 281 279 279 280 286 284 287 291 295 297 298 299 299 300
307 306 305 305 301 304 305 297 286 295 297 302 299 298 295 296 295 296 294 291 294 292 288 286 286 294 299 295 290 289 289 282 277 276 282 287 281 288 295 298 300 301 300 299 300
305 302 305 306 305 307 300 288 291 297 299 297 298 292 291 294 293 293 292 291 294 294 288 286 288 297 298 298 296 290 287 292 287 287 279 283 288 293 297 297 299 299 299 298 302
298 300 307 313 309 305 296 292 295 300 299 297 291 294 289 292 291 291 290 297 296 298 295 290 285 295 297 299 298 293 295 285 284 280 278 283 284 285 291 293 297 297 296 297 298
297 298 311 315 311 300 289 293 298 303 301 296 293 291 292 291 292 291 293 296 300 297 298 292 288 289 294 292 290 290 288 290 289 284 281 279 280 292 292 294 295 296 298 296 297
294 291 308 310 295 296 293 298 299 299 302 299 299 296 292 293 291 291 292 296 301 299 293 294 290 285 289 295 297 294 289 288 280 280 286 283 283 296 297 298 298 298 300 300 302
293 295 307 305 289 289 295 296 299 297 297 297 296 296 295 292 287 292 294 298 298 296 294 294 287 281 284 289 292 289 291 290 287 286 279 275 281 296 297 298 299 299 300 300 301
294 294 298 300 297 291 290 293 293 300 298 299 296 295 292 289 291 289 290 295 297 296 304 297 290 286 282 286 289 287 290 291 288 282 281 283 285 291 294 296 297 299 300 300 299
296 291 293 288 291 293 293 292 292 292 297 298 294 293 290 286 287 288 291 291 294 297 296 292 285 289 289 291 290 289 289 289 286 287 282 285 285 290 294 295 298 299 299 299 300
294 292 294 291 293 292 293 291 291 292 293 291 291 292 292 288 288 286 289 289 288 292 289 289 282 288 285 289 289 286 287 287 286 287 287 288 288 294 297 298 298 299 300 301 302
299 298 296 294 292 289 289 293 293 294 295 296 294 292 290 292 294 293 293 292 291 289 287 285 284 281 278 285 285 279 285 287 289 291 290 285 290 296 296 296 296 297 298 299 300

GFSSW_sfc_thetae_093.txt.gz
Theta_e
312 312 312 313 313 313 313 313 313 313 313 314 315 316 316 316 315 307 299 305 312 323 323 304 302 300 302 298 300 299 289 288 291 294 296 299 299 303 307 306 307 312 313 316 316
312 312 312 312 312 313 313 313 313 313 313 314 314 315 316 316 306 303 311 321 324 328 307 302 296 300 295 296 297 293 288 290 295 296 296 298 298 300 303 303 304 306 311 316 316
311 311 311 312 312 312 312 312 312 313 313 313 313 314 315 314 302 307 327 324 330 329 302 303 305 303 293 293 293 292 290 294 296 298 299 298 299 301 301 300 302 303 307 312 314
312 312 312 312 312 311 311 312 312 312 313 313 313 314 315 307 294 306 332 328 332 311 305 307 304 294 287 290 293 289 295 296 297 299 297 298 300 299 300 301 305 307 309 313 312
311 311 311 311 311 311 311 311 312 312 313 313 313 314 307 298 301 308 333 330 316 308 304 304 300 296 292 291 292 290 293 296 298 297 296 299 297 298 299 303 305 309 310 310 310
311 311 311 311 311 311 311 311 312 313 313 313 313 315 303 288 300 316 316 315 308 305 306 305 301 298 292 291 290 293 293 294 295 295 295 295 297 297 299 303 304 304 304 306 310
311 311 311 311 311 311 311 313 314 313 313 314 314 313 302 292 307 315 311 305 306 308 306 307 303 297 294 292 293 293 290 292 292 294 294 296 294 295 300 302 301 302 303 304 307
311 311 310 312 311 312 313 313 313 314 314 315 316 308 296 305 307 305 308 308 308 307 307 306 301 296 292 293 293 289 287 283 290 293 295 294 288 296 300 299 299 300 301 303 305
311 311 310 311 311 312 312 313 314 315 316 318 305 301 298 314 310 308 308 306 307 308 306 309 298 294 293 287 284 285 281 283 288 293 294 293 289 295 298 297 297 298 299 301 301
312 311 310 311 311 312 313 313 312 312 314 314 310 299 304 305 307 308 307 308 306 303 300 298 293 289 287 285 280 282 283 286 286 292 292 290 290 293 296 296 296 296 297 298 300
312 311 311 310 311 311 307 304 300 300 304 301 303 301 305 313 309 303 305 304 303 298 291 293 288 285 288 290 291 289 287 287 290 294 291 290 290 292 295 294 294 296 296 297 298
312 311 311 310 310 310 302 300 304 301 297 305 306 305 308 311 306 309 305 298 296 291 292 289 285 292 293 293 291 290 288 287 291 294 291 290 290 292 293 294 295 296 297 297 297
312 311 311 311 310 304 302 305 310 305 295 299 305 305 306 308 304 305 303 299 294 290 290 287 291 296 294 292 290 289 287 288 288 291 291 289 287 290 293 294 296 297 298 298 298
311 311 311 309 303 302 302 309 307 304 289 295 300 304 306 306 299 310 306 300 294 291 291 289 294 293 291 290 291 286 292 292 290 287 282 289 282 286 290 292 294 295 295 296 297
311 311 310 309 296 299 306 306 306 305 281 301 300 307 305 300 300 301 305 300 294 293 292 290 291 290 290 291 293 289 294 291 291 286 282 284 280 284 289 289 292 293 295 296 297
310 310 309 304 301 303 308 305 305 292 283 298 299 297 296 298 298 300 301 301 300 293 292 293 295 294 293 296 294 295 291 288 285 282 278 284 283 284 286 290 291 294 296 299 299
310 309 306 304 296 302 304 304 291 285 298 296 295 297 295 295 296 296 295 292 291 285 285 292 292 294 296 291 293 290 283 278 277 277 280 286 283 285 289 293 294 294 296 298 298
307 306 306 305 302 305 305 298 286 293 295 299 297 297 294 295 295 296 293 289 293 291 286 284 284 293 298 292 289 289 287 281 276 276 281 287 281 285 293 295 296 298 298 298 298
305 299 303 306 306 304 300 289 290 296 296 295 296 291 291 294 293 292 290 291 293 292 286 284 286 296 297 298 295 290 286 290 284 283 280 282 286 292 295 295 297 297 298 297 298
299 299 305 306 306 305 293 289 295 298 299 297 289 292 287 290 291 291 290 296 296 297 294 290 283 293 296 298 297 293 295 284 283 279 277 281 283 283 289 291 295 296 296 297 298
297 298 307 310 308 299 288 292 297 301 300 296 293 291 291 289 290 290 292 296 299 297 297 291 287 288 293 291 290 290 289 290 289 286 281 279 280 288 291 292 293 295 297 298 299
294 292 303 308 297 294 292 295 298 298 301 298 299 296 293 292 290 290 291 294 297 296 292 295 290 284 288 294 297 294 290 291 284 283 285 284 280 293 292 295 296 296 299 301 302
290 292 305 304 289 288 293 294 297 296 296 297 295 295 294 290 286 290 292 296 297 295 294 293 287 281 284 288 293 290 292 291 289 286 280 278 280 294 293 295 295 294 297 300 302
292 289 293 296 294 291 289 291 292 298 297 297 296 296 292 290 292 288 289 295 296 295 300 296 289 287 282 285 290 287 290 291 289 283 282 282 284 288 291 292 294 296 300 301 302
291 287 290 285 289 290 292 292 291 291 296 297 294 293 291 286 287 287 291 291 294 296 295 292 284 286 288 288 289 289 288 288 286 286 281 284 284 287 292 293 295 297 300 301 301
289 288 291 289 291 290 290 289 290 293 292 291 291 292 291 289 289 286 289 289 288 292 290 290 282 287 284 287 287 285 287 287 286 286 284 285 285 292 295 296 296 297 297 298 298
293 293 293 293 291 289 287 291 290 292 293 296 294 291 289 292 294 293 293 292 291 289 287 285 283 282 279 284 284 279 284 286 286 290 288 283 288 295 294 293 294 295 296 296 297

GFSSW_sfc_thetae_099.txt.gz
Theta_e
313 313 312 312 312 312 312 313 312 312 312 312 313 313 314 315 313 309 300 307 313 321 320 307 305 305 307 304 306 305 299 296 297 297 300 305 303 307 309 306 308 311 311 314 321
312 313 313 313 313 312 312 312 312 312 311 312 313 313 313 314 308 303 311 315 325 324 310 307 300 303 303 302 303 302 298 298 301 303 301 302 303 303 304 305 306 308 312 314 321
311 312 312 313 312 312 311 311 311 312 312 312 312 312 313 313 302 308 324 320 325 326 309 306 306 304 301 302 301 299 298 300 301 303 304 302 302 304 302 302 305 305 309 312 313
312 312 312 312 312 312 311 311 311 312 312 312 312 312 313 309 296 307 333 324 325 318 306 308 308 301 299 299 300 297 300 301 301 302 301 300 303 301 303 305 309 308 310 310 313
313 312 312 311 311 311 311 311 311 311 311 312 312 312 309 299 298 320 329 326 322 308 306 308 305 301 297 298 298 297 298 299 301 301 300 301 300 301 302 307 308 308 308 310 313
314 313 311 311 311 311 311 310 311 310 312 312 311 312 307 291 303 322 324 315 309 307 306 310 306 305 301 299 299 300 299 300 300 301 300 299 301 301 304 307 307 307 308 308 310
314 313 312 311 311 311 312 311 311 312 312 312 312 312 304 296 309 318 317 309 309 310 307 310 309 302 302 298 300 299 296 298 300 301 301 301 299 299 305 306 306 307 308 308 310
314 314 312 313 312 312 312 313 313 312 313 312 314 312 300 307 311 314 313 309 310 310 310 310 306 302 301 300 297 295 295 293 298 298 299 300 295 301 304 303 304 305 306 307 309
314 314 313 313 313 312 312 312 312 313 314 315 311 306 300 316 309 312 312 306 308 309 310 310 305 299 299 296 294 293 290 291 293 298 297 298 295 302 304 303 304 305 306 306 308
314 313 313 313 313 312 310 312 314 315 316 314 311 303 305 305 310 309 310 309 307 307 303 302 301 298 296 294 287 289 289 291 292 298 298 297 297 301 304 303 303 305 306 307 308
313 313 312 313 313 311 309 310 305 303 309 306 304 299 304 311 312 307 308 307 306 303 298 298 296 293 295 296 295 293 292 292 295 298 295 297 297 300 303 303 303 304 306 307 309
312 312 312 312 312 310 307 304 307 308 301 306 307 305 308 309 303 306 309 303 301 297 297 296 293 298 297 295 294 293 292 292 295 298 296 297 296 300 301 302 304 304 306 307 309
311 311 312 311 310 307 305 307 311 310 301 301 305 305 306 308 302 304 305 302 298 295 295 294 296 296 295 294 293 293 292 292 292 297 297 295 294 297 300 301 303 305 306 307 307
310 310 310 310 304 304 303 310 310 309 296 297 300 304 306 307 301 309 305 303 298 295 295 295 299 295 294 293 295 291 296 295 294 292 289 295 286 295 299 299 302 304 306 306 307
309 310 310 308 305 301 307 308 309 309 284 300 300 310 307 303 303 304 307 302 297 295 296 294 294 293 293 294 295 293 296 295 295 293 292 292 289 293 296 296 300 303 305 307 306
309 310 309 306 305 306 308 307 310 295 284 297 301 299 299 302 301 303 304 306 303 297 296 296 299 297 297 297 297 298 296 296 293 291 285 291 290 291 295 297 300 302 303 306 307
309 309 306 307 302 306 307 309 293 287 299 294 295 298 298 297 298 300 297 298 296 291 291 295 296 299 298 295 299 297 293 286 285 285 285 294 290 293 298 300 301 301 304 306 307
307 305 306 307 307 308 309 301 286 293 293 298 297 297 293 296 296 296 295 293 297 295 292 289 288 294 298 296 295 295 293 287 281 283 286 293 287 293 300 301 303 304 305 305 305
305 304 308 308 310 309 305 292 289 293 297 295 296 292 292 295 295 296 295 293 296 296 290 290 289 297 298 299 297 294 290 296 290 291 286 289 293 298 300 300 301 302 303 303 304
301 303 306 309 311 308 298 291 295 298 299 299 291 295 290 293 292 294 293 298 296 299 299 295 289 296 298 299 300 296 298 289 290 282 281 287 289 290 296 297 299 300 301 302 304
302 305 308 308 310 304 294 294 297 301 301 296 294 293 293 292 294 293 293 297 298 297 299 296 292 292 296 293 293 294 292 293 292 290 283 283 288 298 297 298 297 299 300 302 304
300 299 308 308 300 297 294 294 297 298 300 299 299 297 295 295 293 291 291 295 300 298 293 296 293 288 290 297 299 296 293 293 287 286 288 288 288 298 299 298 299 300 302 304 304
297 297 307 306 294 293 295 295 297 296 297 296 295 297 296 292 289 292 292 297 298 295 294 295 290 285 287 292 295 292 294 294 292 288 286 284 288 298 299 299 300 300 302 302 303
297 295 299 300 297 293 291 292 293 298 296 297 296 297 294 292 294 290 291 295 298 297 298 296 291 288 284 287 291 288 290 291 289 285 286 287 289 293 295 295 298 301 302 302 301
296 292 294 290 292 292 292 292 291 291 297 296 294 293 292 288 288 288 292 293 295 296 296 293 286 288 289 290 290 288 288 289 286 288 283 286 287 291 294 296 299 300 300 299 299
297 295 296 293 293 292 291 290 290 292 292 291 290 293 292 288 290 288 290 290 290 293 293 295 287 288 286 289 288 286 288 288 288 288 288 289 288 296 298 298 297 297 297 297 298
298 298 297 292 292 291 291 291 290 292 293 295 294 292 289 291 295 295 294 294 295 292 290 290 288 285 281 287 286 283 288 288 289 291 290 287 293 297 297 297 296 296 296 296 297

GFSSW_sfc_thetae_102.txt.gz
Theta_e
313 313 314 313 313 313 313 312 313 313 312 313 313 314 314 315 315 313 305 310 313 322 321 313 311 311 312 310 312 312 303 300 301 301 302 309 307 311 312 310 312 315 315 317 319
313 313 313 313 313 313 313 312 312 312 313 312 313 313 314 313 312 307 317 316 323 325 314 309 306 309 308 308 309 307 303 303 306 306 305 306 306 307 307 308 310 313 317 318 318
314 313 313 313 313 313 313 312 312 312 312 313 313 313 313 314 308 310 323 320 326 325 315 313 310 308 305 307 307 306 303 306 306 307 308 306 305 308 305 305 309 310 314 316 317
315 314 313 312 312 312 312 312 312 312 312 313 313 313 313 314 299 314 331 323 328 318 312 310 307 305 304 302 307 301 306 306 306 307 306 305 307 305 307 308 311 311 313 315 316
314 313 312 311 312 311 311 311 311 311 312 313 313 312 313 305 303 324 330 325 323 315 308 308 307 306 302 304 305 302 304 305 306 306 305 306 304 305 306 310 312 312 312 313 314
315 314 313 313 312 312 311 311 311 311 312 313 312 312 310 297 309 323 318 322 319 314 308 312 308 308 305 303 303 305 305 304 305 306 306 304 305 305 308 311 311 311 312 313 314
315 314 314 313 313 312 312 312 311 311 313 312 312 314 307 302 312 322 319 316 314 310 311 313 311 307 306 303 306 304 301 304 305 306 305 307 302 303 308 309 309 310 311 312 313
315 314 314 314 314 313 313 312 312 312 313 313 314 315 305 309 312 317 320 311 313 315 314 313 311 308 306 306 303 301 301 298 304 303 304 303 298 305 308 308 308 309 310 311 313
314 313 313 313 314 314 313 311 312 313 314 315 314 312 304 316 308 313 320 310 311 312 313 312 311 306 304 301 299 300 295 297 299 303 302 301 299 305 308 308 307 309 310 311 312
313 312 313 313 313 313 312 314 314 315 317 317 314 308 312 305 309 312 318 312 310 309 308 308 306 302 302 299 293 295 295 296 296 301 302 300 301 304 307 307 308 309 310 311 312
312 312 312 312 312 312 311 316 313 311 313 309 309 306 307 313 315 311 315 311 311 308 301 304 300 297 300 301 300 298 296 296 299 302 301 300 301 304 307 307 307 308 309 310 312
311 311 312 312 312 310 312 310 311 312 304 311 311 311 312 312 306 309 314 306 305 301 304 300 296 301 302 301 298 297 296 297 300 302 301 301 300 304 306 307 308 308 309 310 312
310 310 311 311 310 310 310 311 316 315 305 305 308 307 309 311 306 308 310 307 303 301 301 298 299 301 300 299 297 297 296 297 297 300 302 300 298 301 305 307 308 309 310 311 311
309 310 310 309 308 313 309 315 316 314 298 300 303 307 308 310 304 312 311 307 303 299 301 300 303 300 299 297 299 295 300 299 298 297 293 301 291 299 303 304 306 308 309 311 312
309 310 310 308 311 310 313 317 317 313 287 303 303 313 308 304 306 307 312 307 301 300 300 297 298 297 297 298 300 297 300 299 298 297 297 297 294 298 304 301 304 307 309 311 312
309 310 308 310 312 312 315 314 315 299 286 298 303 301 301 304 302 305 306 308 306 301 301 300 304 301 301 301 301 302 299 300 300 298 291 296 295 296 300 303 305 308 308 309 311
309 308 309 313 308 313 314 313 299 292 300 296 297 299 300 298 300 301 301 300 297 294 295 299 300 303 303 299 302 301 297 291 290 291 290 299 296 298 303 305 306 306 308 310 310
307 306 308 314 316 314 314 305 291 295 296 301 300 299 295 298 298 299 297 296 301 299 296 293 291 299 302 300 298 299 299 292 285 287 291 298 293 298 304 306 307 308 309 309 309
305 316 316 315 318 318 310 296 296 297 299 297 298 295 295 298 299 299 298 297 298 300 293 293 293 300 300 302 301 298 296 300 294 295 291 294 299 303 305 305 305 306 306 307 309
310 314 312 316 319 316 303 295 298 301 301 300 293 295 292 294 295 296 295 300 298 300 302 297 291 300 302 303 302 299 302 293 294 286 285 292 293 295 299 300 303 304 304 306 309
311 310 313 317 318 309 300 299 300 303 303 298 296 296 296 295 297 296 296 300 301 299 300 298 295 295 299 296 295 296 295 296 295 294 287 286 291 301 301 303 303 303 305 307 307
310 305 314 317 307 308 303 299 298 301 303 301 301 300 297 297 295 295 295 298 302 301 296 299 295 291 294 301 302 300 297 296 289 290 294 292 291 304 304 304 304 304 306 307 308
306 306 314 314 302 303 301 299 300 299 300 299 298 299 300 297 292 296 297 300 300 299 295 298 292 288 290 296 299 296 298 298 296 292 288 287 291 302 302 303 304 303 304 306 307
306 302 305 308 306 301 298 298 298 301 299 300 300 300 297 295 297 292 295 298 300 299 299 298 294 292 286 291 294 291 294 296 294 287 289 290 294 298 300 299 301 303 305 306 306
305 299 300 298 299 299 299 297 295 295 299 300 297 296 295 291 291 291 293 295 297 299 298 296 287 292 292 293 293 292 292 294 291 292 287 292 292 296 298 299 302 304 305 305 304
303 301 304 301 298 297 294 295 293 294 295 295 294 295 295 290 291 291 293 294 293 296 296 296 290 291 289 292 291 289 292 292 292 292 293 293 292 299 301 303 303 304 303 302 303
308 307 303 295 297 297 297 294 294 296 297 298 296 294 294 294 298 298 299 299 297 293 293 293 291 288 285 290 290 287 292 293 294 295 294 290 295 301 300 300 302 302 302 302 303

GFSSW_sfc_thetae_105.txt.gz
Theta_e
315 314 314 315 314 314 313 313 313 313 314 313 313 314 315 315 314 315 308 314 317 323 321 315 314 312 313 312 314 314 305 300 303 304 306 312 309 315 317 314 315 318 320 323 322
316 315 314 314 314 314 313 313 313 313 313 313 313 314 314 314 312 309 322 323 323 326 313 311 309 310 309 309 311 308 304 304 308 309 307 309 309 311 310 310 312 314 319 322 323
315 315 314 314 314 314 313 313 313 313 313 313 314 314 314 315 311 310 329 327 325 325 316 314 312 311 307 310 309 308 304 309 308 309 310 309 308 310 308 305 311 312 316 320 321
316 315 314 313 313 313 313 312 312 313 313 314 314 314 314 315 303 322 325 325 328 316 317 313 310 306 306 305 310 304 308 309 309 310 309 307 310 308 309 309 312 313 315 316 318
315 315 315 314 313 313 312 312 312 312 312 313 314 314 313 309 307 329 329 325 318 318 311 310 308 308 305 307 308 306 307 309 309 309 309 309 307 307 308 312 314 314 314 314 316
315 315 315 314 314 314 313 313 312 312 312 313 313 313 312 302 313 324 317 317 315 317 312 311 310 311 308 307 307 308 307 308 308 308 308 306 307 308 309 313 312 313 313 315 317
315 315 314 314 314 314 314 314 313 312 313 314 314 314 310 307 313 323 319 318 321 317 309 314 314 310 310 306 309 308 304 306 307 308 307 309 304 305 310 312 311 312 313 315 316
314 314 314 314 314 314 314 314 313 313 314 315 314 317 310 314 314 319 320 316 316 315 316 316 315 311 309 310 306 304 304 300 306 307 308 307 300 308 312 311 310 311 312 313 315
313 313 313 313 313 314 313 313 313 314 315 316 315 316 311 313 307 315 321 311 312 315 316 314 313 308 308 303 301 303 297 300 302 307 305 304 301 307 310 310 310 311 312 313 314
312 312 312 312 312 313 313 313 315 314 316 320 318 311 315 308 310 311 322 316 311 311 310 309 308 304 304 302 294 298 299 300 300 305 304 302 302 306 309 309 310 311 312 313 313
312 311 311 312 312 312 311 317 315 314 316 313 313 311 309 314 312 311 317 313 311 308 303 307 302 299 302 304 303 302 300 299 302 305 302 303 303 306 309 309 309 310 311 313 314
312 311 311 311 311 311 313 309 313 315 306 315 314 313 313 314 306 309 316 307 307 302 305 303 299 304 306 305 302 301 298 299 302 305 304 303 302 306 308 309 310 310 311 312 314
312 311 311 311 311 310 313 310 319 317 305 307 309 309 311 313 307 307 312 309 305 303 304 301 303 305 303 302 300 300 299 299 299 303 304 302 300 303 307 309 310 311 312 313 313
311 310 310 310 307 318 312 316 320 318 301 302 305 308 310 311 305 314 313 309 306 302 304 304 306 303 302 299 301 297 303 301 299 298 294 303 293 302 305 307 308 310 311 312 313
311 310 310 308 315 312 315 321 321 317 292 305 305 314 311 306 307 307 314 309 303 303 302 301 302 300 299 300 303 299 303 301 300 299 298 298 296 300 306 304 307 310 311 313 314
310 310 309 310 314 317 319 320 318 302 290 301 305 304 303 304 303 307 308 310 307 302 304 302 306 303 303 304 303 304 301 301 301 299 293 298 298 298 302 305 308 311 312 313 313
310 309 310 317 312 316 319 314 302 294 303 299 300 303 302 301 302 303 302 301 298 295 295 299 301 304 305 300 304 303 299 292 291 292 291 301 298 301 306 308 309 309 311 314 314
307 306 312 317 319 317 315 306 294 299 299 303 302 301 298 301 300 300 299 297 302 300 296 294 293 301 304 301 299 300 299 291 285 288 292 300 295 301 309 310 310 310 311 312 312
305 320 320 320 322 320 312 298 299 299 302 300 301 298 298 300 300 301 299 298 300 302 295 294 295 304 304 305 303 299 296 301 295 297 293 296 300 306 309 309 309 309 310 310 311
313 318 315 322 325 318 308 295 302 304 303 302 295 299 295 298 298 298 298 302 300 303 304 298 293 301 303 305 306 301 303 293 295 287 287 292 296 297 303 305 307 307 308 310 311
316 313 318 324 323 312 302 302 302 306 305 301 298 296 297 296 298 296 297 302 303 302 304 301 297 296 300 299 297 298 296 297 297 295 289 288 292 304 303 305 307 307 307 308 309
316 309 319 321 308 310 305 304 298 303 305 303 303 301 297 298 297 296 297 299 304 304 298 300 297 293 296 302 303 301 298 297 290 291 294 293 293 307 306 308 307 307 307 309 310
310 311 320 318 304 304 305 302 303 302 302 302 301 302 302 299 294 298 298 303 303 301 298 302 295 290 293 299 302 297 299 299 298 297 292 289 293 305 306 305 306 306 307 307 308
310 305 309 315 312 305 302 301 300 304 303 303 302 303 300 296 299 297 297 300 302 300 301 300 296 291 288 293 295 292 296 297 296 292 292 293 294 299 301 304 305 306 305 307 308
311 305 305 303 303 303 302 301 298 297 302 303 300 299 297 294 296 295 298 299 298 301 299 298 291 294 294 294 295 295 294 295 292 294 290 294 294 297 302 303 303 305 306 306 306
305 304 307 305 302 301 295 300 297 298 298 298 297 299 298 296 297 295 295 296 296 299 297 300 290 294 291 294 294 292 295 295 295 295 294 295 295 302 304 303 303 304 303 304 305
312 311 306 298 301 300 302 299 297 299 300 301 300 298 297 298 301 302 302 302 300 296 294 294 291 291 288 293 293 288 293 295 295 297 296 291 297 301 301 302 303 304 304 304 305

GFSSW_sfc_thetae_108.txt.gz
Theta_e
317 317 316 314 314 315 314 314 314 314 314 314 314 314 315 316 315 313 304 313 316 325 319 312 312 311 312 309 311 312 301 299 301 302 306 312 310 316 319 316 317 317 318 322 324
317 316 315 315 314 314 314 314 313 314 314 314 314 315 315 315 311 306 317 331 329 325 309 309 309 310 307 307 309 306 302 302 307 308 307 309 310 311 310 312 312 314 318 321 323
316 316 315 315 313 313 313 313 313 313 313 313 314 315 315 315 309 309 332 329 329 323 309 313 312 309 304 307 307 307 302 306 308 310 310 309 308 311 309 307 310 311 315 318 320
316 316 316 315 315 314 313 313 312 313 313 313 314 314 315 312 304 318 332 331 330 312 309 310 310 306 304 303 308 303 307 308 308 310 309 308 310 308 309 309 313 313 314 315 316
314 315 315 315 315 314 314 313 313 313 313 313 314 315 312 308 306 326 330 327 313 311 309 312 308 307 302 305 307 305 306 308 309 309 309 309 307 307 308 311 312 313 314 313 315
314 314 314 315 315 314 314 314 313 313 312 313 314 314 309 302 317 325 317 314 312 312 313 311 309 310 307 306 305 308 307 307 308 308 308 306 306 307 308 312 312 312 312 313 314
314 314 313 314 314 315 315 315 315 314 313 314 315 314 309 307 313 322 316 314 314 313 312 313 312 310 309 305 310 308 304 306 306 307 306 308 303 304 309 311 310 311 313 313 315
313 313 313 312 313 314 314 314 314 314 314 316 316 314 309 318 318 315 318 315 320 320 316 314 315 312 309 310 308 304 304 298 304 306 307 306 298 306 311 310 309 310 311 313 315
313 313 313 312 312 313 313 313 314 315 315 316 313 313 309 316 310 311 319 314 314 314 314 316 313 308 308 302 300 302 296 298 301 307 306 305 300 307 310 310 309 310 311 312 314
313 313 312 312 312 312 313 312 316 314 314 318 316 311 315 311 312 310 318 316 309 310 310 309 307 303 302 300 292 296 297 299 299 305 305 303 302 305 308 309 309 310 311 312 313
314 313 312 312 311 311 311 313 313 312 315 311 312 309 311 315 313 307 316 314 311 308 302 306 300 297 300 302 302 301 300 299 303 306 303 302 302 305 308 308 308 310 311 313 314
314 313 312 311 311 311 310 309 313 313 305 316 315 314 315 315 307 308 313 309 306 300 304 302 298 304 305 305 303 302 299 298 302 304 303 302 301 305 307 308 309 310 311 313 315
313 313 312 311 311 309 310 312 316 318 304 307 311 310 310 313 307 306 310 309 304 301 302 299 302 306 304 302 300 300 299 298 298 302 304 302 299 302 306 308 310 311 313 314 314
313 312 311 310 306 314 312 317 317 318 300 303 304 308 309 310 305 312 312 309 304 301 303 302 306 304 303 300 301 296 303 301 300 298 293 302 292 301 305 306 309 310 311 312 313
312 311 310 309 313 313 315 318 318 316 291 306 306 314 312 305 307 306 313 308 301 302 303 300 302 302 300 301 303 299 303 301 300 298 297 297 294 298 304 303 306 310 312 314 315
312 311 310 311 313 317 319 319 317 299 291 302 306 304 303 305 305 308 308 310 308 302 303 301 305 304 303 304 304 304 301 300 300 297 291 295 295 296 300 304 308 311 313 313 314
311 310 308 317 314 318 317 313 299 293 306 300 301 304 303 302 302 304 303 301 297 293 293 298 299 303 304 300 303 302 298 290 289 290 290 299 296 300 307 309 310 310 311 313 314
309 307 313 317 318 316 314 304 293 301 300 305 303 303 299 302 302 302 301 298 302 299 296 294 292 300 305 301 298 299 298 291 284 287 290 299 293 299 309 311 312 313 312 314 313
306 320 319 320 320 318 310 298 298 300 304 301 302 299 298 301 301 301 300 299 302 303 296 294 294 304 305 306 304 298 294 300 294 295 291 294 299 304 308 309 310 310 311 312 313
309 318 316 321 323 317 307 301 302 305 304 303 296 299 296 299 299 299 299 304 301 304 305 299 293 301 303 305 305 301 303 292 294 286 285 291 294 296 301 304 308 308 309 311 313
313 312 319 324 322 311 301 301 304 306 306 302 299 297 298 297 299 297 298 302 305 304 306 302 298 296 300 298 297 298 296 298 297 294 287 286 291 305 304 306 307 309 309 310 311
315 307 319 323 309 311 303 305 300 304 306 303 303 302 299 299 297 297 297 301 305 304 299 302 298 293 295 301 303 302 298 299 291 290 294 292 291 306 307 307 308 308 309 310 310
309 310 319 319 303 304 306 303 303 302 303 302 301 302 303 299 295 299 299 304 305 302 300 302 296 289 290 295 301 297 298 299 298 297 290 288 291 305 306 304 306 307 308 309 309
309 304 309 312 311 305 303 302 301 306 302 303 302 303 301 299 300 296 298 301 303 302 302 302 296 291 286 290 295 292 295 296 294 287 290 292 294 299 302 303 305 307 308 308 308
310 306 306 303 304 303 302 302 298 298 303 303 300 300 298 295 296 297 299 300 301 302 301 298 291 294 294 294 294 293 293 294 293 294 290 293 293 297 301 303 304 305 306 306 307
305 303 308 305 304 302 297 301 298 300 299 299 298 300 300 296 297 295 297 298 297 300 298 299 291 294 291 294 294 292 295 295 295 295 295 295 294 302 303 304 303 305 305 304 305
310 312 306 301 303 300 302 301 299 300 302 301 300 299 297 299 302 302 303 302 301 297 296 296 293 290 286 293 293 289 294 295 296 298 296 291 297 301 301 301 302 303 303 303 304

GFSSW_sfc_thetae_111.txt.gz
Theta_e
316 317 315 314 314 315 314 314 314 314 314 314 314 314 315 316 316 310 302 306 311 322 322 307 306 304 304 302 304 305 291 290 294 297 300 306 304 309 315 313 314 313 315 318 320
316 316 316 315 314 313 313 313 313 313 313 313 314 314 314 316 309 304 314 324 330 331 306 303 302 304 299 300 301 297 293 295 302 303 300 303 302 304 307 308 309 311 316 319 318
315 316 316 315 315 314 313 313 313 313 313 313 314 314 314 314 305 305 332 325 331 324 306 304 305 304 298 299 298 299 295 301 304 305 305 302 302 305 305 302 308 307 311 311 312
314 315 315 315 315 314 314 314 313 313 314 313 313 313 316 309 299 312 335 329 332 310 305 302 301 295 295 294 299 294 301 303 304 306 302 303 306 304 303 304 309 310 311 310 309
313 314 314 314 315 314 314 314 314 314 313 312 313 314 310 303 301 320 333 331 316 306 302 301 301 299 294 297 299 297 300 304 306 305 302 305 303 304 303 308 309 309 310 308 307
314 313 313 313 314 314 314 315 315 314 313 312 313 314 306 295 316 322 315 313 308 302 304 303 304 304 299 298 296 300 301 302 303 303 302 301 302 302 304 308 308 308 307 307 308
314 314 313 312 313 313 314 315 315 315 315 314 314 313 304 303 318 317 312 305 308 307 306 309 309 302 301 298 302 302 297 300 301 301 300 303 299 301 305 307 305 306 307 308 308
314 314 314 313 312 313 313 313 314 314 315 315 315 310 302 316 313 310 310 309 310 309 309 313 309 302 301 303 302 297 295 289 297 302 303 300 293 302 305 305 304 306 307 308 308
315 314 314 313 312 312 312 312 313 316 315 315 310 306 305 316 308 311 312 309 312 314 313 314 307 302 303 295 292 293 288 291 295 302 302 300 295 302 306 304 304 305 306 307 307
315 314 314 314 312 312 312 312 314 315 313 315 313 304 310 310 312 310 308 314 310 306 305 306 300 296 294 290 285 289 290 293 294 300 300 298 297 300 303 302 303 304 305 306 307
315 315 314 313 312 311 309 308 308 305 309 306 307 307 312 316 310 306 308 312 308 303 296 300 293 289 293 296 297 296 295 293 296 300 297 295 296 299 301 300 300 302 304 304 306
314 314 314 313 312 311 307 303 309 308 303 312 312 312 316 315 305 304 308 306 303 295 299 296 291 298 301 300 298 297 294 293 297 300 297 295 295 299 301 300 301 302 303 304 306
312 313 313 312 311 307 304 306 313 312 301 305 311 312 311 310 306 304 306 306 302 297 296 293 297 303 301 299 297 295 293 294 294 298 298 296 293 296 301 302 303 304 304 305 306
312 312 312 311 305 307 305 311 311 312 295 302 303 306 308 308 304 312 309 305 301 296 297 296 301 301 299 298 298 292 299 298 297 293 288 295 286 292 298 299 302 304 303 303 306
312 313 312 310 304 308 314 315 313 309 286 303 304 312 308 303 306 306 311 306 300 299 298 296 298 297 296 299 300 295 300 297 297 292 288 291 286 289 297 297 299 301 305 305 305
312 312 311 309 305 308 315 314 309 294 289 302 304 302 301 303 304 306 307 308 306 299 299 298 303 301 299 302 302 302 297 295 293 289 284 289 288 289 294 297 300 307 307 308 310
312 312 307 310 309 315 312 308 294 290 304 300 299 301 300 300 301 302 301 298 295 291 291 296 297 301 303 297 299 297 290 283 281 282 282 292 291 290 300 304 307 305 306 307 308
310 308 308 311 315 314 309 298 290 299 301 305 303 302 298 301 300 300 299 294 299 296 292 291 290 299 304 300 295 296 292 285 279 280 285 294 287 293 303 308 307 308 307 307 307
307 312 311 315 316 313 304 292 296 301 304 301 301 298 298 300 300 300 297 297 300 298 290 290 293 303 304 304 302 296 291 297 289 290 285 289 294 299 304 305 306 308 308 307 307
302 307 313 318 317 311 302 299 302 304 304 303 296 299 296 298 298 297 297 303 301 303 301 296 289 299 302 303 302 299 301 290 291 284 280 287 290 291 299 301 305 305 306 307 306
306 307 313 318 318 306 297 300 302 305 305 301 298 297 297 296 297 296 296 301 303 302 302 297 293 293 298 294 293 293 291 294 293 290 284 279 285 300 299 302 302 304 306 306 305
306 304 316 318 303 306 300 305 301 303 306 303 303 301 298 298 296 296 296 300 304 302 296 298 293 288 291 298 299 296 293 295 288 288 289 288 287 302 302 301 302 303 305 307 306
300 307 315 315 299 301 306 303 303 302 303 302 301 302 301 296 292 298 299 304 303 302 297 296 289 282 285 289 297 294 294 295 294 293 288 286 287 303 304 303 304 303 304 307 306
302 301 306 309 307 301 300 301 300 305 301 302 300 301 297 295 296 293 297 302 302 301 304 300 290 286 280 286 290 289 292 294 293 286 287 288 290 296 299 301 301 302 302 301 303
304 302 302 297 300 299 298 300 298 298 302 301 298 299 295 290 293 292 297 298 301 303 298 293 285 289 291 293 293 291 291 291 288 290 286 289 291 295 298 298 299 299 302 303 303
301 299 301 300 302 299 296 297 298 299 298 298 296 299 296 290 292 290 293 292 293 297 295 296 285 290 288 292 292 290 293 293 293 293 292 292 292 298 299 300 299 299 301 302 300
307 306 303 300 301 297 298 299 299 299 301 300 298 295 294 296 297 296 296 296 295 292 291 291 288 287 282 290 289 283 290 292 294 296 294 288 293 297 297 297 296 297 298 298 299

GFSSW_sfc_thetae_114.txt.gz
Theta_e
317 316 316 315 315 313 313 313 313 313 313 313 313 314 314 314 315 310 302 305 307 320 323 305 305 304 302 299 303 303 290 289 293 294 298 304 299 304 309 309 310 312 315 317 320
315 316 316 316 315 314 313 313 313 313 313 313 313 314 313 314 308 304 311 320 324 329 306 301 299 301 295 297 299 295 290 293 299 301 299 302 302 303 305 305 307 309 315 316 316
314 314 315 315 314 314 314 314 313 312 312 312 313 313 313 313 303 304 325 324 326 328 307 304 301 300 293 294 296 293 292 298 301 303 303 301 301 303 302 299 304 306 310 310 310
314 314 314 314 315 314 314 313 313 313 313 313 312 312 314 308 293 313 336 329 331 316 305 300 297 293 292 292 295 290 298 300 302 304 302 300 303 303 302 303 309 307 309 308 307
314 314 313 313 313 314 314 314 314 315 314 312 311 312 308 300 298 309 336 330 323 307 301 298 295 296 291 293 294 292 297 300 303 303 301 302 301 303 302 306 308 308 308 306 304
315 315 314 314 313 314 314 313 313 314 314 313 311 312 304 290 306 320 321 319 311 302 300 299 300 302 297 296 294 297 297 299 300 301 299 299 300 301 304 306 306 306 306 306 305
316 316 315 315 314 313 313 314 314 314 314 314 312 312 304 299 314 315 310 305 305 304 302 303 303 302 299 296 298 297 293 297 298 299 298 301 298 299 304 305 303 303 304 306 306
316 315 316 315 315 314 313 313 313 313 314 314 314 309 299 313 310 307 308 305 306 305 304 308 307 302 298 300 299 294 292 288 295 299 300 298 292 300 304 303 302 303 304 305 305
315 315 315 315 314 313 313 312 313 315 315 314 308 303 301 319 313 312 309 306 307 306 305 309 305 300 300 294 289 290 286 289 294 298 297 296 293 300 302 302 301 302 303 304 305
314 314 314 315 314 313 312 311 312 314 313 313 312 301 307 309 310 308 309 309 307 307 304 303 297 294 292 289 284 287 287 290 291 296 296 294 294 300 301 300 300 302 302 303 305
313 313 313 314 314 312 307 303 306 304 306 301 303 305 309 316 313 307 306 305 307 300 293 298 292 288 292 293 294 293 291 290 294 298 294 292 294 296 298 297 297 299 300 302 304
313 312 312 313 313 311 307 299 308 308 301 309 309 307 313 315 304 302 305 300 299 292 296 293 289 295 297 296 295 294 291 290 293 298 295 293 294 296 298 297 299 300 300 301 302
313 313 313 313 311 306 301 303 309 308 298 304 310 309 311 309 305 299 302 303 299 294 293 290 294 300 298 296 295 294 291 291 292 296 295 293 290 293 297 299 301 301 301 302 302
313 312 312 311 305 304 301 308 308 308 294 301 303 309 309 306 302 309 304 305 300 295 295 293 298 297 296 295 296 292 297 296 294 291 285 293 283 289 294 296 299 300 299 300 302
312 312 311 311 301 301 310 309 307 305 286 302 303 309 306 302 304 304 307 303 297 297 295 293 295 295 294 295 297 293 298 295 295 289 286 288 283 288 293 294 296 298 301 303 304
312 313 311 305 305 304 308 307 307 294 288 301 303 301 300 302 303 304 305 305 304 298 297 296 300 298 297 300 299 300 295 292 290 287 281 286 285 285 289 292 296 300 304 305 303
312 312 308 307 302 309 307 305 292 288 304 300 297 299 298 298 300 302 300 297 293 288 288 294 294 297 301 296 299 296 288 282 280 280 281 291 288 287 294 302 303 302 303 304 303
310 308 306 308 306 308 305 296 287 298 300 306 301 299 295 298 298 299 297 293 298 295 290 288 288 297 302 297 293 293 289 282 278 278 282 292 285 291 302 305 306 306 303 304 303
307 304 306 309 310 308 301 291 295 299 305 301 301 297 296 300 298 297 294 294 296 296 289 288 291 301 302 302 298 294 290 293 286 287 282 286 291 296 302 303 305 304 304 302 303
300 302 306 314 313 308 300 298 301 306 304 302 294 298 295 297 296 295 296 301 300 301 297 294 287 297 300 300 300 295 298 287 286 278 278 284 287 289 297 299 303 303 303 302 303
302 304 312 314 311 302 295 298 303 304 304 300 297 295 295 294 295 293 295 300 302 300 300 295 291 292 296 293 290 290 288 291 291 290 283 280 284 296 296 299 300 302 304 305 305
299 300 312 313 301 303 299 304 302 302 304 302 301 299 296 296 294 294 295 299 302 301 295 295 291 286 290 296 297 293 290 291 285 286 290 288 287 298 299 299 301 301 303 305 306
295 299 311 310 296 298 302 303 303 301 301 300 299 300 299 294 289 296 297 301 303 301 296 294 287 281 283 287 292 291 292 292 292 289 286 285 285 301 301 299 302 301 302 305 306
297 296 300 304 303 299 297 298 299 303 300 300 298 298 295 293 293 291 297 301 302 300 305 298 288 285 279 283 287 287 290 291 291 285 285 287 288 293 296 299 300 301 302 302 302
299 298 298 294 296 295 294 296 298 296 299 299 296 296 293 288 290 290 294 295 299 305 295 291 283 287 288 290 291 290 290 290 287 287 284 287 288 292 295 295 297 299 300 299 298
296 295 299 295 299 296 294 295 296 297 296 295 294 296 294 289 289 288 290 290 290 295 291 291 283 288 287 291 291 288 290 290 291 291 290 290 290 296 298 297 297 296 297 297 298
301 302 298 297 296 293 294 296 297 297 297 298 295 293 292 293 294 293 293 294 293 291 289 288 286 283 281 288 287 282 287 289 291 294 292 287 290 296 296 296 293 294 296 295 297

GFSSW_sfc_thetae_117.txt.gz
Theta_e
315 315 316 316 315 315 314 313 314 314 314 314 313 313 313 313 313 308 303 305 305 320 321 308 307 304 302 299 302 302 290 288 292 293 296 299 298 302 306 306 308 311 316 319 336
315 314 314 315 315 314 314 314 313 312 313 313 313 312 313 312 306 303 311 318 319 326 306 299 299 299 295 298 299 296 288 292 298 299 299 300 297 299 303 304 306 309 311 318 338
314 314 314 314 314 314 313 313 313 313 312 312 312 312 312 311 300 298 320 322 325 328 304 302 300 299 292 295 296 295 292 297 300 302 301 298 300 301 301 298 302 304 307 308 314
315 315 315 314 314 314 314 313 313 314 313 313 312 312 312 306 286 307 330 324 326 318 304 299 296 293 292 292 295 291 297 299 300 302 301 300 303 301 300 302 306 306 308 306 306
316 316 316 315 314 314 314 313 313 313 313 313 312 311 306 297 294 302 335 327 320 312 301 298 294 294 291 293 293 290 295 298 300 300 299 300 299 300 300 305 306 306 306 304 304
315 315 316 316 315 314 314 313 313 312 313 314 312 311 302 288 300 314 320 318 313 303 300 297 296 299 295 293 293 295 296 297 298 298 297 297 299 299 302 306 305 304 304 303 303
314 315 314 315 315 314 313 312 313 313 312 313 312 310 302 296 311 315 315 312 311 305 300 300 301 300 298 294 296 296 292 295 296 298 297 298 296 297 303 304 303 302 302 303 304
315 315 314 314 315 314 313 312 312 312 313 313 314 309 298 310 309 305 306 304 305 304 303 303 303 299 297 298 297 293 291 287 294 297 299 298 292 299 303 301 301 302 302 302 303
315 315 314 314 314 314 313 311 312 313 315 314 307 301 297 315 312 312 308 304 304 303 303 307 303 299 298 293 289 290 286 288 293 297 297 294 291 299 301 300 300 300 301 302 302
314 313 312 312 313 313 312 311 311 312 313 313 311 300 304 306 309 310 308 307 304 302 301 300 296 294 291 290 284 287 287 289 290 294 295 293 293 296 299 298 299 299 300 301 302
313 313 312 312 313 312 307 303 304 300 303 299 301 303 308 314 310 304 307 305 305 300 293 297 292 289 292 293 293 292 290 289 293 296 293 292 292 295 298 296 295 296 298 300 300
314 314 313 313 312 311 307 299 306 307 299 305 305 306 309 313 306 303 305 298 297 291 294 292 289 294 296 295 294 292 289 289 292 295 292 292 292 295 296 296 295 296 297 299 299
313 313 312 312 312 306 302 301 308 307 297 303 306 306 307 311 306 299 301 301 295 291 291 289 293 298 296 293 293 291 289 289 290 294 293 291 289 292 296 297 298 298 298 299 300
312 312 312 312 304 303 300 307 307 305 295 299 303 307 309 305 300 303 302 301 297 292 292 291 296 295 293 293 293 288 295 295 293 289 284 291 282 288 292 294 296 298 297 298 299
312 312 312 311 300 299 308 306 305 303 286 301 304 312 306 301 301 301 303 302 296 295 294 291 293 293 292 293 296 292 296 294 293 288 285 286 283 286 290 292 293 297 299 300 303
312 311 311 305 305 304 307 307 304 293 288 298 302 300 299 301 302 302 300 303 301 295 294 294 298 296 295 298 298 299 293 290 287 285 280 285 284 283 288 290 298 301 302 302 302
312 311 308 307 302 307 306 304 291 288 303 300 296 299 299 298 299 300 298 295 291 287 286 292 292 295 299 293 298 293 286 280 279 279 279 288 285 287 293 301 301 300 300 301 302
310 308 306 307 306 307 304 297 287 297 299 306 299 298 294 297 297 298 296 293 297 294 289 287 286 295 300 296 292 291 287 281 277 277 280 289 283 289 300 303 302 302 301 301 301
307 302 303 307 308 305 301 290 293 299 304 302 300 294 295 299 296 296 293 293 298 296 290 288 291 301 301 301 299 293 288 290 285 285 282 284 289 295 300 301 303 303 302 301 301
300 301 305 312 311 308 300 295 299 305 306 302 294 297 293 296 295 294 294 299 298 299 296 294 287 296 299 299 298 294 297 287 285 279 277 282 285 286 294 297 301 301 302 303 304
301 303 309 312 309 302 297 299 303 307 304 299 295 294 294 293 294 292 294 298 300 298 298 293 289 290 294 291 289 289 287 288 287 285 278 278 283 292 295 296 297 298 302 304 307
297 298 311 310 299 300 298 304 303 301 302 300 299 297 295 295 293 293 294 297 301 299 293 294 290 285 288 293 295 291 289 288 280 281 287 288 285 297 296 295 296 297 299 300 302
294 296 309 308 294 296 303 302 302 300 299 298 297 299 297 293 290 295 297 300 302 299 295 293 286 280 281 285 291 289 291 291 288 285 283 279 283 297 297 297 298 298 299 300 302
295 295 298 302 301 296 296 297 298 301 299 298 296 297 294 291 292 291 295 299 301 300 303 297 287 283 278 281 286 285 288 290 287 282 281 284 286 291 294 295 296 298 298 298 298
297 295 296 292 294 294 295 295 297 295 297 297 294 294 292 287 288 288 292 295 298 301 293 290 283 286 287 289 290 288 288 288 285 285 282 285 286 290 291 293 295 295 296 296 297
294 293 296 295 296 295 294 294 295 295 295 294 292 293 292 288 288 287 289 289 289 294 289 289 283 286 285 290 289 287 289 289 288 289 288 288 287 293 294 293 293 293 294 294 295
299 300 296 295 295 293 293 295 296 295 297 297 295 292 291 292 293 292 292 293 292 290 288 287 285 282 280 287 286 281 286 287 288 290 289 286 290 294 295 295 293 292 294 296 295

GFSSW_sfc_thetae_120.txt.gz
Theta_e
315 315 315 315 315 315 315 315 313 313 314 314 314 314 314 314 312 308 301 304 308 318 324 311 307 305 302 299 301 300 290 288 290 293 294 298 297 301 303 304 307 309 316 323 341
316 315 315 314 314 314 314 313 314 314 312 313 313 313 313 313 306 301 309 317 318 322 302 303 300 302 297 297 298 297 289 292 297 297 295 299 299 299 301 301 305 307 314 337 340
315 316 316 315 315 314 314 313 313 314 314 313 312 312 312 311 299 297 317 318 321 323 301 302 301 299 295 295 296 293 292 297 299 301 298 297 299 300 299 298 302 304 307 322 332
316 316 317 317 316 315 314 313 312 313 314 313 313 312 312 306 284 300 327 324 322 318 302 300 297 295 293 293 296 292 297 299 300 301 300 298 299 299 299 300 303 304 306 308 326
316 316 316 316 316 315 314 313 312 312 312 313 312 310 307 296 295 300 332 324 316 313 300 298 295 294 293 294 295 293 296 298 300 299 298 299 297 298 298 303 304 304 305 304 308
315 315 315 315 316 316 314 313 312 312 312 313 312 310 302 289 299 313 323 315 314 304 299 298 296 299 295 294 294 295 296 297 297 297 297 296 297 298 300 303 303 303 303 302 302
316 315 315 315 315 315 315 313 312 311 312 313 313 308 302 295 307 314 314 308 309 303 299 299 300 300 299 293 294 296 293 295 295 297 297 298 296 295 302 303 302 301 302 302 302
315 314 314 314 314 314 314 313 311 311 311 313 314 307 296 307 308 306 305 303 306 303 302 301 300 298 296 297 295 292 292 288 295 297 298 298 291 299 302 301 300 300 300 301 301
314 313 313 313 313 314 314 313 312 312 313 313 308 303 295 313 310 311 305 302 304 302 302 305 300 296 296 292 288 289 285 287 292 297 296 294 289 297 299 298 298 298 299 300 301
314 312 313 313 313 313 313 311 311 313 312 311 309 298 302 304 311 308 306 304 300 299 298 296 295 293 290 289 283 286 286 288 290 294 293 289 291 296 297 297 297 298 298 299 300
315 314 312 313 313 313 307 306 301 299 304 298 299 301 306 310 309 304 307 304 302 297 292 294 290 288 291 293 293 291 289 289 292 295 291 290 290 294 296 296 296 298 296 297 299
314 314 312 313 313 312 307 298 304 302 297 303 303 304 308 309 304 301 306 299 296 290 293 291 288 294 295 295 293 291 289 288 292 294 291 291 291 294 296 295 296 297 297 296 298
313 313 312 313 312 308 303 302 307 305 295 301 303 301 305 307 304 298 301 298 294 289 289 289 292 296 295 292 291 289 288 289 290 293 292 291 288 291 295 296 297 298 298 298 299
312 312 312 312 304 304 301 307 308 306 294 298 301 304 307 306 300 304 302 301 294 291 290 289 294 294 292 292 292 286 293 294 292 289 284 289 281 287 291 293 295 297 299 299 300
311 312 312 312 303 298 307 305 305 302 284 301 302 310 306 299 300 295 302 301 295 293 292 289 291 292 290 292 294 291 295 292 292 287 284 285 282 286 290 291 293 299 301 301 302
310 311 311 307 306 305 307 307 303 292 287 296 301 301 298 299 300 299 298 302 300 294 292 292 296 295 294 297 296 297 291 289 286 284 279 283 283 283 287 291 298 300 299 300 300
310 310 308 307 302 308 306 302 292 287 303 298 296 298 298 296 298 297 294 292 290 286 285 290 291 294 297 291 296 291 285 280 279 279 279 286 285 286 291 299 299 297 298 299 300
308 308 306 307 306 307 303 297 287 297 298 305 298 298 295 297 296 297 293 290 293 291 286 285 283 293 298 293 291 289 286 280 276 277 279 287 283 287 299 300 301 301 301 302 300
307 301 303 306 308 306 300 289 291 298 302 302 298 293 295 299 296 296 294 293 297 295 290 287 289 298 299 298 295 291 286 287 283 283 281 283 287 294 299 300 301 302 303 303 303
300 301 305 310 310 306 298 294 299 304 305 303 294 297 293 294 294 294 294 299 298 299 297 294 288 296 298 297 297 292 295 286 284 278 277 281 284 285 294 295 297 297 297 300 303
297 301 308 310 309 304 294 298 302 306 306 300 296 294 294 294 294 292 294 296 299 297 298 293 289 290 294 290 288 289 286 287 286 283 278 278 282 291 294 296 295 295 297 298 300
294 297 308 309 298 301 297 302 304 305 304 302 298 298 296 294 293 292 294 296 300 298 292 292 289 285 287 291 293 290 288 286 280 281 284 286 284 296 295 295 295 295 297 298 299
294 296 307 307 295 297 302 303 303 299 298 297 295 297 296 294 291 295 296 299 301 298 294 292 285 280 280 286 290 288 289 288 286 283 284 280 282 296 296 295 295 295 296 298 299
296 296 297 301 300 296 299 299 296 300 297 297 295 296 293 290 290 291 294 298 300 299 303 296 286 283 278 279 285 284 287 288 285 282 280 281 284 290 293 293 295 295 296 295 297
298 294 295 292 292 293 294 294 295 294 297 297 293 293 291 287 288 288 292 294 298 299 293 289 283 284 285 287 288 287 287 287 284 284 281 283 286 288 291 292 293 294 295 296 295
293 292 296 295 296 294 293 295 294 294 294 294 292 292 290 288 289 288 289 289 290 292 288 287 283 285 284 288 288 286 288 288 287 287 286 287 286 293 294 293 292 293 294 295 295
296 297 294 295 294 292 292 295 295 294 295 296 294 291 290 291 292 291 291 291 292 290 287 286 284 282 280 285 285 280 284 286 286 288 287 283 287 294 293 294 293 293 294 295 295

GFSSW_sfc_thetae_123.txt.gz
Theta_e
316 316 316 315 315 315 315 314 314 313 313 314 314 314 314 314 314 308 303 308 312 318 320 312 308 308 308 303 304 304 299 296 298 299 303 305 305 308 310 309 312 316 320 329 348
316 316 316 317 316 315 314 313 313 314 313 312 312 313 313 313 307 302 311 316 319 319 310 306 305 311 305 302 303 300 297 298 303 304 304 305 304 305 307 308 312 315 336 343 345
317 317 317 317 317 316 314 313 314 314 314 313 312 312 312 312 300 301 315 318 320 320 308 307 310 316 311 306 304 301 296 303 302 305 305 304 304 307 305 305 309 310 324 340 343
317 317 317 317 317 317 315 314 314 313 313 314 313 312 312 306 290 306 320 320 322 317 305 304 309 308 309 305 308 297 302 300 303 304 304 303 305 304 305 307 310 310 312 337 341
316 316 316 316 316 316 316 314 314 313 312 313 313 312 307 298 299 306 320 324 317 313 302 303 303 304 300 302 299 299 301 305 302 304 304 304 303 304 305 309 311 311 311 313 337
316 315 315 315 315 316 316 315 313 313 312 312 313 311 302 293 306 315 323 318 314 307 303 304 303 304 300 298 298 300 299 301 302 302 303 301 303 303 306 310 310 310 311 312 315
315 315 314 314 315 315 315 315 314 312 312 312 314 308 301 298 309 317 318 314 313 305 301 305 306 304 301 297 301 300 297 299 299 301 301 303 299 300 307 309 308 309 310 311 312
315 315 314 314 313 314 314 315 314 312 312 313 315 307 299 310 312 311 313 312 310 308 305 305 307 305 303 302 299 296 297 295 300 300 302 302 296 304 306 306 307 308 310 310 313
315 314 314 313 314 314 314 314 313 312 312 314 309 304 299 314 310 313 311 306 305 306 307 306 304 302 302 298 295 295 292 293 297 300 300 300 297 303 306 306 307 309 310 310 312
314 314 314 313 313 314 313 312 312 314 312 311 309 300 305 306 312 311 310 306 303 303 301 301 300 298 298 296 288 292 291 293 295 298 300 298 299 303 305 305 306 308 309 308 309
314 313 313 313 313 313 310 307 304 302 304 301 302 301 306 310 312 308 307 304 304 301 295 298 295 293 297 298 297 297 295 294 296 299 298 298 299 303 303 305 306 307 307 307 308
313 313 313 313 313 312 309 301 305 304 300 304 305 305 308 309 303 306 308 302 299 293 298 296 294 299 300 299 297 296 294 294 296 298 298 298 298 302 304 304 305 305 307 308 311
312 312 312 313 312 309 305 303 309 307 299 302 304 301 302 308 305 302 306 303 298 296 297 294 297 300 298 296 296 295 294 294 294 297 298 297 296 298 302 303 304 306 310 312 311
311 311 311 312 306 305 302 308 310 308 296 298 302 304 309 310 304 306 308 304 299 296 297 297 299 298 297 295 297 293 298 297 296 295 291 296 289 296 300 302 302 309 310 310 312
311 311 311 311 305 302 307 309 309 304 286 301 302 312 310 304 303 300 307 306 299 297 297 295 296 296 295 296 298 296 299 298 296 294 293 292 292 295 296 298 303 306 308 310 312
310 311 310 307 307 308 309 310 304 293 287 297 303 301 303 302 302 300 302 307 304 299 298 298 301 300 299 299 300 300 297 295 294 294 289 293 293 293 296 299 305 305 307 308 311
310 309 307 309 304 310 309 304 294 289 303 296 297 301 301 299 298 297 297 298 297 293 292 296 297 300 301 299 301 298 296 289 287 288 287 292 291 295 298 303 304 305 307 309 310
308 307 307 308 310 310 307 300 289 297 297 304 299 300 297 299 299 296 295 294 298 299 294 291 289 298 302 299 297 298 296 290 282 284 288 293 290 295 303 305 307 308 310 312 313
307 307 307 309 310 309 302 293 293 298 302 300 300 295 296 299 298 297 295 295 299 300 294 292 292 301 301 303 302 297 294 296 291 291 290 292 294 302 305 305 305 305 306 307 310
302 304 310 312 311 309 302 294 299 305 304 303 294 297 294 296 296 297 296 300 299 301 302 298 292 299 300 302 302 300 301 294 295 286 284 289 291 294 300 302 303 303 304 306 308
302 306 311 312 310 307 298 297 301 305 305 302 298 297 297 296 297 295 296 300 302 300 302 300 297 295 299 296 296 297 296 295 296 294 288 286 291 300 303 304 302 303 304 305 307
301 300 311 312 302 304 299 301 301 302 305 303 302 300 298 298 297 297 296 299 303 303 298 299 297 292 292 296 298 297 296 297 293 290 293 292 292 303 305 304 303 302 304 306 308
299 299 312 311 299 300 301 300 303 301 300 301 299 301 300 297 295 298 298 301 302 301 300 300 294 289 289 294 296 294 296 296 296 295 292 289 291 303 304 305 304 303 304 305 306
298 298 303 307 305 301 299 299 299 302 298 299 298 300 299 296 298 296 297 300 302 302 302 302 294 292 289 288 294 291 293 295 294 289 289 291 293 297 301 302 304 303 304 303 303
301 298 298 297 297 298 301 298 296 296 299 300 298 298 298 294 294 294 297 298 300 299 298 299 292 292 291 292 292 291 291 292 291 292 288 291 290 295 298 300 301 303 303 301 302
298 296 300 298 299 297 297 296 296 295 297 296 297 295 297 296 296 294 296 297 297 298 297 296 291 292 290 291 291 290 292 292 292 292 292 292 292 299 301 302 300 301 300 300 301
303 303 298 297 297 296 296 297 298 298 298 299 298 297 296 295 298 299 299 300 301 298 295 295 294 291 287 290 289 286 290 292 292 294 293 290 295 300 300 300 301 301 301 302 302

GFSSW_sfc_thetae_126.txt.gz
Theta_e
318 317 317 317 317 316 315 314 314 315 314 313 314 315 315 314 314 312 307 312 315 321 318 316 315 314 315 312 309 308 303 303 305 306 309 312 311 313 315 313 317 326 329 337 353
318 318 318 318 318 317 316 315 314 314 314 314 313 313 313 313 311 307 314 318 317 319 314 312 310 312 312 314 311 306 302 303 308 310 310 310 309 311 312 312 316 322 338 345 350
317 317 317 317 317 317 317 315 315 314 314 315 313 312 313 313 305 303 324 322 319 320 315 313 313 310 312 315 315 312 304 306 305 309 314 314 309 311 310 311 314 315 329 342 346
317 317 317 317 316 316 317 316 315 314 314 314 314 313 313 311 294 311 318 324 321 318 313 310 309 307 311 310 315 309 314 308 305 307 310 309 311 309 311 313 315 315 316 338 344
316 316 315 316 316 316 316 316 315 314 314 313 313 312 310 304 303 311 321 321 318 315 310 308 305 308 309 313 315 311 312 313 312 311 314 313 310 310 311 313 315 316 315 317 338
315 315 315 315 315 315 315 316 315 313 313 313 313 312 307 298 309 319 322 320 314 312 309 309 307 312 312 313 313 313 313 312 311 312 312 308 308 309 311 314 314 315 315 317 318
315 315 315 314 315 314 315 315 314 314 313 313 314 310 305 304 310 314 322 321 314 311 306 310 311 311 310 309 315 309 306 306 306 307 305 309 304 304 310 313 313 314 315 315 317
315 315 314 314 314 314 314 315 314 314 313 313 314 308 303 314 316 313 318 317 315 312 309 311 310 309 306 308 306 305 303 294 299 302 305 303 299 309 312 311 311 313 314 314 316
315 314 314 314 314 314 314 314 314 314 313 314 311 306 303 315 312 312 316 312 311 308 309 309 309 306 307 301 299 300 293 295 296 301 301 303 299 306 311 310 309 312 313 314 315
315 314 314 313 313 313 313 312 314 314 313 312 309 301 308 307 312 313 313 310 305 305 304 304 304 301 303 300 293 295 293 294 294 300 300 299 299 307 310 309 310 312 313 313 314
314 314 313 313 313 313 311 310 307 303 306 304 305 305 309 314 316 310 310 306 305 303 297 301 297 295 299 303 302 300 297 295 298 302 300 300 300 305 309 309 310 311 312 313 315
313 313 312 313 313 313 311 304 307 308 303 309 308 308 311 312 306 307 308 302 302 297 300 298 294 300 302 303 301 299 296 296 300 302 303 300 300 304 308 308 310 310 312 315 317
312 312 311 312 312 311 308 306 313 312 303 306 308 306 307 309 306 304 305 304 300 298 298 296 298 302 301 300 299 299 297 297 297 301 302 300 298 302 305 309 310 313 315 317 318
311 311 311 311 307 309 305 311 314 313 299 301 304 305 307 310 305 309 310 305 300 297 299 299 302 301 301 299 301 297 301 300 299 296 293 302 293 301 304 305 307 312 313 316 319
312 310 311 310 308 306 310 315 315 309 287 303 304 313 313 307 306 305 312 307 300 299 301 298 300 300 299 300 302 298 301 299 300 299 298 297 294 300 304 301 306 310 313 317 320
311 311 310 310 308 312 313 313 310 295 289 298 304 304 306 306 304 306 307 310 309 302 302 301 305 303 302 303 303 303 301 300 301 299 293 297 296 297 300 302 308 311 313 315 317
310 309 308 312 311 314 313 306 294 290 302 297 299 304 304 302 301 302 301 301 299 295 295 299 300 304 304 300 303 302 300 292 290 291 291 299 296 298 306 308 309 310 312 314 316
308 307 311 311 316 316 311 301 290 296 298 304 301 302 300 302 300 301 300 298 303 301 297 294 292 300 304 303 300 300 300 293 287 289 292 298 293 300 308 310 312 313 314 315 316
306 316 314 314 316 315 306 293 293 298 302 301 300 298 298 300 300 299 299 299 302 303 296 295 295 303 304 305 304 301 297 302 295 296 293 296 300 305 308 308 310 310 311 311 313
309 311 316 318 317 311 301 295 299 303 304 302 296 299 296 298 298 298 297 301 301 304 306 301 295 301 303 306 305 304 305 295 297 288 288 293 295 298 304 306 308 308 308 310 312
310 309 317 317 315 306 296 297 301 306 305 301 300 299 299 298 299 298 297 301 303 303 305 304 301 299 303 300 300 301 299 300 301 298 291 290 296 305 306 309 308 309 309 311 312
308 304 317 315 303 304 300 302 301 303 307 303 305 302 300 300 298 299 298 301 306 305 299 305 302 296 297 302 304 303 301 301 296 293 296 296 296 308 309 311 310 309 310 311 312
303 308 316 315 299 301 302 299 301 302 302 302 302 305 305 301 296 300 301 303 305 305 303 305 299 292 294 298 301 299 301 302 301 302 296 293 296 307 309 309 310 310 310 309 310
304 303 308 312 310 304 298 294 295 304 303 304 302 305 302 302 304 300 300 302 305 305 304 308 302 297 291 294 301 297 298 301 301 296 295 296 298 302 305 305 307 308 308 308 309
308 303 302 298 303 303 300 298 295 297 303 303 300 302 302 298 300 299 303 302 303 301 304 306 298 299 297 296 296 296 296 297 295 297 293 295 295 299 301 302 305 307 307 307 307
300 299 303 300 303 301 299 295 296 300 299 299 300 301 303 301 302 299 303 304 302 304 303 304 297 298 294 295 295 293 295 295 295 296 295 296 295 302 304 306 305 307 306 306 306
305 304 300 299 300 299 300 300 298 303 301 303 303 302 301 302 306 308 308 308 307 304 302 301 299 295 291 294 293 289 294 295 296 297 296 293 298 303 302 304 305 306 306 306 307

GFSSW_sfc_thetae_129.txt.gz
Theta_e
319 319 319 319 318 318 317 316 315 315 315 315 315 314 315 315 315 313 307 314 317 324 319 316 319 318 317 315 316 315 306 305 307 311 314 318 315 321 320 316 319 328 334 348 353
318 318 318 318 318 318 318 317 316 315 315 316 315 314 314 314 312 309 319 325 321 317 313 313 313 315 313 312 313 310 304 308 310 313 313 316 315 316 314 316 317 324 339 348 351
317 317 317 317 317 317 317 318 316 315 315 315 315 314 313 314 308 308 328 325 324 320 316 316 315 314 310 312 313 312 308 311 310 312 312 314 315 315 313 314 318 318 329 341 345
316 316 316 316 316 316 317 317 317 316 315 315 314 314 314 313 298 312 326 329 322 317 313 313 312 309 308 308 314 309 313 314 311 310 309 310 316 314 314 316 319 318 320 333 341
315 316 316 316 315 315 316 317 316 316 314 314 313 314 311 306 306 314 322 325 321 314 309 311 308 309 306 309 311 310 313 314 315 315 312 314 313 312 314 318 319 319 319 320 339
316 315 315 316 315 315 315 315 316 315 314 314 313 314 309 301 314 314 318 322 318 312 309 311 309 310 309 308 311 313 315 315 317 315 315 312 313 313 314 320 318 319 318 320 324
315 316 316 315 316 315 315 315 315 315 314 314 314 314 308 306 313 315 318 320 315 312 308 312 313 309 310 308 315 315 311 313 314 315 314 313 310 310 315 316 315 317 318 319 321
315 315 316 315 315 315 315 315 315 315 315 314 315 311 304 317 319 315 314 320 315 314 312 315 315 311 309 314 311 309 311 306 312 314 313 311 305 314 317 315 315 317 318 318 320
315 315 315 314 314 314 314 313 314 316 315 314 312 309 305 319 312 315 318 317 312 313 314 312 312 307 308 305 304 306 302 303 304 308 309 309 308 312 315 312 313 316 318 318 318
315 314 314 314 314 314 314 313 314 313 313 313 312 302 309 307 313 313 319 317 310 309 307 306 306 302 305 302 295 298 301 303 301 303 305 306 308 310 313 312 311 313 316 316 317
315 314 313 313 314 313 312 313 308 304 308 307 307 306 308 314 315 314 315 313 309 305 299 303 299 297 301 303 303 303 301 299 302 305 302 300 301 306 309 310 310 312 315 319 320
314 314 313 312 313 313 312 308 309 313 306 311 311 309 313 313 307 310 313 304 303 298 302 300 296 302 304 304 302 302 300 299 302 304 303 301 299 303 306 308 310 310 313 315 315
313 313 312 312 312 310 309 310 314 315 305 308 311 308 310 313 307 305 308 306 302 299 300 297 300 303 302 301 301 302 300 300 299 303 304 301 298 300 305 309 311 311 315 317 318
312 312 312 312 307 312 309 317 315 315 300 302 305 307 310 310 306 310 310 306 302 299 300 300 304 301 300 300 302 298 303 302 301 300 295 301 290 299 302 304 307 311 314 316 318
312 312 311 310 310 310 315 319 316 311 289 305 304 314 310 305 308 306 310 308 300 300 301 298 300 300 299 300 303 300 305 302 302 300 299 298 293 297 304 301 305 308 313 317 319
312 312 311 311 308 313 319 316 312 297 289 299 304 303 303 305 307 307 305 310 308 302 303 302 306 305 304 305 305 306 302 302 302 300 293 297 296 295 300 304 306 310 313 315 317
311 311 308 311 310 317 319 310 294 291 304 298 299 303 303 302 303 302 302 302 300 296 296 301 302 305 306 302 305 303 300 293 292 292 292 301 298 299 306 306 311 312 314 315 316
309 308 313 312 317 314 309 300 290 296 299 304 301 303 300 302 302 302 300 299 305 302 298 296 294 301 304 303 300 301 301 295 289 290 293 301 295 301 310 312 313 314 315 317 317
306 317 319 316 321 315 305 292 293 299 302 302 301 299 300 302 301 301 301 300 303 305 298 296 296 304 305 306 306 301 298 304 298 300 296 297 303 308 310 310 312 313 315 315 316
309 313 316 320 322 316 302 295 297 304 303 304 297 300 297 299 298 299 299 303 302 306 308 302 295 303 304 306 306 305 306 298 299 291 289 295 297 298 305 307 310 311 312 314 315
310 311 320 319 319 307 296 297 300 306 304 300 301 298 300 299 299 298 299 302 305 305 307 305 302 299 303 301 300 301 302 302 302 298 292 291 295 309 307 310 310 311 313 314 314
309 306 320 318 305 306 300 302 301 303 307 302 303 304 301 301 299 298 299 301 305 306 302 306 302 298 300 305 307 307 301 303 297 295 299 298 297 310 311 312 313 312 313 314 314
303 309 319 315 299 302 305 302 303 300 303 301 299 305 308 302 298 301 302 306 307 305 303 306 302 296 296 302 305 302 304 304 304 303 298 294 297 310 311 312 313 312 312 313 312
305 304 312 312 311 303 300 300 297 303 301 304 303 304 306 303 305 301 302 305 307 307 308 310 302 299 294 297 301 298 300 303 302 299 297 298 299 306 307 308 310 311 312 312 311
309 305 307 299 301 300 305 299 294 295 303 305 303 303 302 299 300 300 303 303 305 304 306 306 299 301 299 300 300 300 300 301 300 301 298 299 298 302 305 305 306 308 309 309 309
299 298 301 303 303 301 300 297 294 298 300 299 299 303 305 303 304 300 303 303 302 305 304 308 299 301 297 299 299 297 298 299 299 299 299 299 298 304 305 306 306 308 308 308 308
306 304 300 301 300 296 299 300 298 301 303 304 302 303 300 303 307 310 311 309 308 305 303 304 301 299 294 298 296 292 296 297 298 300 299 295 300 305 305 305 307 308 308 308 309